     2              OBSERVATION DATA    GPS                 RINEX VERSION / TYPE
teqc 1997Sep10 19971030 21:26:21UTC                         PGM / RUN BY / DATE
                                                            COMMENT
BIT 2 OF LLI FLAGS DATA COLLECTED UNDER A-S CONDITION       COMMENT
BIT 2 OF LLI FLAGS DATA COLLECTED UNDER A-S CONDITION       COMMENT
Original Marker Name: 55457.E122                            COMMENT
Campaign Name: NGS Imperial Valley 1990                     COMMENT
4-Character Station Name: E122                              COMMENT
6-Character Antenna Code: TI4100                            COMMENT
Vertical Measurement Point: PAE                             COMMENT
Vertical Offset to Rinex Ref. Point: 0.0000                 COMMENT
Radial Measurement Point: RRP                               COMMENT
Radial Offset to Rinex Ref. Point: 0.0000                   COMMENT
Antenna Height from Field Measurement: 1.1380 m             COMMENT
Original XYZ: -2318340.8274 -4839904.4425 3435306.8940      COMMENT
New XYZ position is based on association with SCEC monument COMMENT
E1C8W0P8+0011. Position of that monument is believed to be  COMMENT
valid to within 1 m horizontally; vertical accuracy         COMMENT
should be no worse than 3-times this value.                 COMMENT
                                                            COMMENT
Revised Rinex header created by UCSD GPS archive for        COMMENT
GSAC on 10-Apr-1999 (1999:100) 05:40:15 GMT                 COMMENT
For assistance contact dagnew@ucsd.edu or hjohnson@ucsd.edu COMMENT
                                                            COMMENT
E 1223                                                      MARKER NAME
5 NATIONAL GEODETIC SURVEY                                  OBSERVER / AGENCY
40030 TI 4100 1.9                                           REC # / TYPE / VERS
108 TI 4100                                                 ANT # / TYPE
 -2318325.0000 -4839899.0000  3435295.0000                  APPROX POSITION XYZ
        1.1380        0.0000        0.0000                  ANTENNA: DELTA H/E/N
     1     1     0                                          WAVELENGTH FACT L1/2
     4    P1    P2    L1    L2                              # / TYPES OF OBSERV
    15                                                      INTERVAL
  1990     2    28     4    19   29.000000                  TIME OF FIRST OBS
  1990     2    28     8    31   59.000000                  TIME OF LAST OBS
     0                                                      # OF SATELLITES
                                                            END OF HEADER
 90  2 28  4 19 29.0800000  0  4G 6G 9G11G13
  20587761.690    20587767.292     4213053.413 8  -6781157.036 7
  22163157.237    22163161.766      479035.782 8  -1016473.583 7
  20936020.132    20936027.860      677636.676 8   -749419.707 7
  23851013.908    23851024.495      347541.962 8  -1026059.407 7
 90  2 28  4 19 44.0800000  0  4G 6G 9G11G13
  20585300.366    20585305.256     4200114.910 7  -6791238.968 8
  22155352.885    22155358.401      438029.038 8  -1048426.868 7
  20932168.339    20932176.117      657402.580 8   -765186.501 7
  23840662.881    23840676.719      293154.259 9  -1068439.264 7
 90  2 28  4 19 59.0800000  0  4G 6G 9G11G13
  20582859.026    20582861.400     4187279.050 9  -6801240.917 7
  22147556.823    22147564.966      397065.764 9  -1080346.282 7
  20928346.306    20928351.118      637300.268 8   -780850.616 7
  23830323.561    23830336.068      238821.043 8  -1110776.659 7
 90  2 28  4 20 14.0800000  0  4G 6G 9G11G13
  20580435.184    20580439.882     4174545.661 9  -6811163.009 8
  22139769.644    22139774.944      356146.078 9  -1112231.693 7
  20924546.425    20924550.988      617329.336 8   -796412.336 7
  23819995.801    23820006.832      184541.756 8  -1153072.036 7
 90  2 28  4 20 29.0800000  0  4G 6G 9G11G13
  20578032.347    20578034.897     4161915.077 9  -6821004.998 8
  22131992.428    22131997.736      315270.322 8  -1144082.893 7
  20920770.824    20920776.275      597490.066 9   -811871.488 7
  23809676.227    23809688.190      130316.828 8  -1195325.044 7
 90  2 28  4 20 44.0800000  0  4G 6G 9G11G13
  20575646.886    20575652.578     4149388.300 8  -6830766.112 8
  22124223.109    22124227.354      274439.189 9  -1175899.326 8
  20917020.824    20917024.935      577783.194 8   -827227.460 7
  23799368.316    23799379.531       76147.313 8  -1237534.864 7
 90  2 28  4 20 59.0800000  0  4G 6G 9G11G13
  20573283.543    20573289.351     4136965.351 8  -6840446.308 8
  22116461.647    22116465.457      233653.217 8  -1207680.558 8
  20913295.363    20913300.322      558208.585 8   -842480.377 8
  23789070.446    23789082.782       22033.575 8  -1279701.243 8
 90  2 28  4 21 14.0800000  0  4G 6G 9G11G13
  20570939.386    20570944.761     4124646.641 8  -6850045.293 8
  22108709.528    22108713.506      192912.378 9  -1239426.627 8
  20909595.062    20909601.337      538766.159 8   -857630.290 7
  23778783.398    23778795.876      -32024.113 9  -1321823.953 8
 90  2 28  4 21 29.0800000  0  4G 6G 9G11G13
  20568614.012    20568620.356     4112432.269 9  -6859562.964 7
  22100963.718    22100969.356      152217.217 8  -1271137.105 8
  20905919.672    20905925.382      519455.892 9   -872677.223 7
  23768507.553    23768518.441      -86025.844 9  -1363903.058 8
 90  2 28  4 21 44.0800000  0  4G 6G 9G11G13
  20566309.526    20566314.282     4100322.511 8  -6868999.111 8
  22093228.872    22093234.035      111567.863 9  -1302811.876 7
  20902270.816    20902277.908      500277.904 8   -887621.079 7
  23758241.678    23758251.308     -139971.112 9  -1405938.147 6
 90  2 28  4 21 59.0800000  0  4G 6G 9G11G13
  20564025.603    20564030.724     4088318.166 9  -6878353.135 8
  22085501.506    22085508.554       70965.050 9  -1334450.394 8
  20898647.155    20898652.201      481232.569 9   -902461.557 8
  23747985.256    23747998.547     -193859.158 8  -1447928.664 8
 90  2 28  4 22 14.0800000  0  4G 6G 9G11G13
  20561761.804    20561767.384     4076419.406 8  -6887624.873 7
  22077783.916    22077790.395       30409.281 9  -1366052.251 7
  20895047.615    20895054.180      462320.072 8   -917198.536 7
  23737744.282    23737754.850     -247689.765 7  -1489874.399 7
 90  2 28  4 22 29.0800000  0  4G 6G 9G11G13
  20559519.891    20559523.815     4064626.367 1  -6896814.244 1
  22070076.259    22070082.895      -10099.616 8  -1397617.566 7
  20891473.097    20891479.647      443540.172 7   -931832.198 8
  23727509.819    23727521.958     -301462.859 9  -1531775.342 8
 90  2 28  4 22 44.0800000  0  4G 6G 9G11G13
  20557294.311    20557301.869     4052939.209 1  -6905921.106 1
  22062377.170    22062382.875      -50561.174 9  -1429146.022 7
  20887926.160    20887932.205      424892.857 9   -946362.554 7
  23717288.742    23717299.332     -355178.169 8  -1573631.272 7
 90  2 28  4 22 59.0800000  0  4G 6G 9G11G13
  20555089.436    20555094.426     4041358.316 1  -6914945.150 1
  22054686.151    22054692.286      -90975.029 9  -1460637.286 7
  20884401.487    20884408.670      406378.375 9   -960789.382 8
  23707077.462    23707088.836     -408835.500 8  -1615441.979 7
 90  2 28  4 23 14.0800000  0  4G 6G 9G11G13
  20552904.934    20552911.007     4029884.050 6  -6923886.136 4
  22047004.890    22047011.269     -131340.720 8  -1492091.031 7
  20880903.949    20880910.292      387996.876 8   -975112.609 7
  23696878.729    23696889.494     -462434.417 8  -1657207.204 8
 90  2 28  4 23 29.0800000  0  4G 6G 9G11G13
  20550743.316    20550748.263     4018516.336 9  -6932744.072 8
  22039333.533    22039338.580     -171658.632 8  -1523507.544 8
  20877430.993    20877437.164      369747.808 7   -989332.624 7
  23686690.734    23686700.019     -515975.031 8  -1698926.976 7
 90  2 28  4 23 44.0800000  0  4G 6G 9G11G13
  20548599.517    20548606.015     4007255.718 9  -6941518.567 8
  22031670.474    22031676.466     -211927.828 9  -1554886.111 8
  20873983.508    20873989.464      351631.602 8  -1003449.123 7
  23676512.330    23676523.801     -569456.500 8  -1740600.683 7
 90  2 28  4 23 59.0800000  0  4G 6G 9G11G13
  20546477.241    20546484.170     3996102.197 8  -6950209.618 8
  22024014.684    22024020.933     -252148.245 9  -1586226.648 8
  20870561.093    20870567.214      333648.120 8  -1017462.200 7
  23666345.550    23666357.803     -622879.010 7  -1782228.426 7
 90  2 28  4 24 14.0800000  0  4G 6G 9G11G13
  20544374.982    20544380.916     3985056.019 8  -6958817.003 7
  22016370.398    22016376.519     -292319.647 9  -1617529.016 8
  20867163.866    20867170.952      315797.338 8  -1031371.863 6
  23656190.902    23656200.960     -676242.254 8  -1823810.028 6
 90  2 28  4 24 29.0800000  0  4G 6G 9G11G13
  20542294.701    20542299.136     3974117.602 8  -6967340.431 8
  22008736.444    22008741.549     -332441.456 8  -1648792.707 7
  20863793.507    20863798.580      298079.344 8  -1045178.064 7
  23646046.508    23646056.401     -729545.761 8  -1865345.048 7
 90  2 28  4 24 44.0800000  0  4G 6G 9G11G13
  20540234.227    20540238.251     3963287.363 8  -6975779.565 9
  22001110.876    22001115.637     -372513.471 9  -1680017.609 7
  20860447.145    20860454.092      280494.254 8  -1058880.716 7
  23635916.401    23635925.857     -782789.259 8  -1906833.329 7
 90  2 28  4 24 59.0800000  0  4G 6G 9G11G13
  20538193.060    20538198.493     3952565.625 8  -6984134.155 7
  21993495.524    21993500.228     -412535.098 8  -1711203.249 8
  20857126.150    20857132.843      263042.398 8  -1072479.533 7
  23625795.624    23625805.860     -835972.296 8  -1948274.479 7
 90  2 28  4 25 14.0800000  0  4G 6G 9G11G13
  20536171.933    20536178.722     3941952.541 8  -6992404.074 8
  21985889.243    21985894.119     -452506.206 9  -1742349.493 7
  20853830.192    20853836.606      245723.623 9  -1085974.649 7
  23615688.162    23615697.446     -889094.873 8  -1989668.513 7
 90  2 28  4 25 29.0800000  0  4G 6G 9G11G13
  20534172.768    20534179.285     3931448.370 8  -7000589.133 7
  21978292.350    21978297.169     -492426.453 9  -1773456.155 8
  20850559.798    20850565.765      228537.949 8  -1099366.069 7
  23605590.258    23605598.855     -942156.498 7  -2031015.079 6
 90  2 28  4 25 44.0800000  0  4G 6G 9G11G13
  20532195.627    20532202.237     3921053.338 9  -7008689.155 7
  21970704.472    21970710.693     -532295.629 8  -1804523.014 8
  20847315.546    20847320.662      211485.298 8  -1112653.817 7
  23595501.948    23595514.774     -995156.919 8  -2072313.961 7
 90  2 28  4 25 59.0800000  0  4G 6G 9G11G13
  20530239.886    20530243.996     3910767.616 8  -7016703.981 8
  21963128.041    21963133.374     -572113.426 7  -1835549.823 9
  20844095.867    20844101.351      194565.613 9  -1125837.961 7
  23585427.769    23585438.756    -1048096.031 8  -2113565.046 6
 90  2 28  4 26 14.0800000  0  4G 6G 9G11G13
  20528303.212    20528307.390     3900591.256 9  -7024633.601 7
  21955560.167    21955566.774     -611879.838 9  -1866536.588 8
  20840900.488    20840905.891      177778.662 8  -1138918.653 7
  23575365.838    23575376.475    -1100973.716 7  -2154768.271 7
 90  2 28  4 26 29.0800000  0  4G 6G 9G11G13
  20526386.568    20526392.516     3890525.011 9  -7032477.400 8
  21948003.225    21948009.217     -651593.859 8  -1897482.540 9
  20837731.814    20837736.040      161124.999 8  -1151895.514 8
  23565316.543    23565326.979    -1153789.016 8  -2195922.879 7
 90  2 28  4 26 44.0800000  0  4G 6G 9G11G13
  20524491.655    20524497.871     3880568.756 8  -7040235.516 8
  21940454.983    21940462.392     -691255.601 9  -1928387.767 8
  20834588.379    20834593.523      144604.302 8  -1164768.764 7
  23555277.271    23555287.692    -1206542.183 8  -2237029.081 6
 90  2 28  4 26 59.0800000  0  4G 6G 9G11G13
  20522619.809    20522624.126     3870723.050 9  -7047907.490 9
  21932918.961    21932924.452     -730864.489 8  -1959251.784 9
  20831470.188    20831475.210      128216.752 9  -1177538.253 7
  23545251.507    23545261.371    -1259232.926 9  -2278086.663 7
 90  2 28  4 27 14.0800000  0  4G 6G 9G11G13
  20520765.974    20520769.783     3860988.076 8  -7055493.175 8
  21925390.551    21925397.703     -770420.464 9  -1990074.594 8
  20828375.685    20828382.232      111962.365 8  -1190203.984 7
  23535236.761    23535245.551    -1311860.906 8  -2319095.327 6
 90  2 28  4 27 29.0800000  0  4G 6G 9G11G13
  20518934.248    20518939.008     3851363.509 9  -7062992.836 8
  21917874.448    21917880.326     -809923.651 9  -2020856.261 8
  20825307.544    20825314.867       95840.622 8  -1202766.348 7
  23525232.804    23525243.577    -1364426.445 9  -2360055.331 7
 90  2 28  4 27 44.0800000  0  4G 6G 9G11G13
  20517123.770    20517129.561     3841850.338 9  -7070405.692 8
  21910366.100    21910372.521     -849372.857 9  -2051595.861 8
  20822264.147    20822272.410       79852.252 8  -1215224.802 8
  23515240.108    23515251.954    -1416928.453 9  -2400965.818 7
 90  2 28  4 27 59.0800000  0  4G 6G 9G11G13
  20515334.613    20515341.180     3832448.648 8  -7077731.664 8
  21902870.287    21902875.793     -888767.986 8  -2082293.335 8
  20819248.503    20819254.327       63997.080 8  -1227579.456 8
  23505263.017    23505271.371    -1469366.768 9  -2441826.675 7
 90  2 28  4 28 14.0800000  0  4G 6G 9G11G13
  20513568.036    20513571.924     3823158.584 8  -7084970.681 7
  21895384.805    21895389.123     -928109.051 8  -2112948.681 8
  20816254.902    20816262.057       48274.914 8  -1239830.473 6
  23495296.550    23495307.301    -1521741.468 8  -2482637.974 7
 90  2 28  4 28 29.0800000  0  4G 6G 9G11G13
  20511821.685    20511824.968     3813980.850 8  -7092122.141 8
  21887906.821    21887914.187     -967395.033 8  -2143561.099 8
  20813290.155    20813294.727       32686.265 8  -1251977.436 7
  23485342.575    23485351.788    -1574051.580 8  -2523398.958 7
 90  2 28  4 28 44.0800000  0  4G 6G 9G11G13
  20510096.329    20510099.981     3804915.549 9  -7099185.989 8
  21880442.803    21880449.182    -1006625.702 8  -2174130.406 8
  20810347.856    20810354.639       17231.072 8  -1264020.430 6
  23475400.613    23475409.368    -1626296.989 8  -2564109.513 6
 90  2 28  4 28 59.0800000  0  4G 6G 9G11G13
  20508391.607    20508397.491     3795962.536 8  -7106162.345 8
  21872987.800    21872994.407    -1045801.340 8  -2204656.822 8
  20807433.918    20807438.995        1908.916 8  -1275959.740 8
  23465469.254    23465480.291    -1678477.810 9  -2604769.758 7
 90  2 28  4 29 14.0800000  0  4G 6G 9G11G13
  20506708.138    20506714.984     3787122.370 8  -7113050.770 8
  21865543.185    21865548.075    -1084921.166 9  -2235139.782 8
  20804542.696    20804549.082      -13279.796 8  -1287795.079 7
  23455552.325    23455563.742    -1730593.595 9  -2645379.296 6
 90  2 28  4 29 29.0800000  0  4G 6G 9G11G13
  20505048.884    20505053.930     3778395.392 9  -7119851.017 7
  21858109.016    21858114.937    -1123984.960 9  -2265579.060 8
  20801677.441    20801683.405      -28335.206 8  -1299526.546 7
  23445647.989    23445658.275    -1782644.131 9  -2685937.985 8
 90  2 28  4 29 44.0800000  0  4G 6G 9G11G13
  20503409.955    20503415.596     3769781.686 9  -7126562.984 8
  21850686.924    21850691.800    -1162992.300 8  -2295974.345 8
  20798838.279    20798843.946      -43257.444 8  -1311154.231 8
  23435755.422    23435764.957    -1834629.003 9  -2726445.511 7
 90  2 28  4 29 59.0800000  0  4G 6G 9G11G13
  20501791.897    20501799.151     3761281.662 8  -7133186.385 7
  21843275.163    21843279.266    -1201942.815 9  -2326325.357 7
  20796023.017    20796030.505      -58046.397 8  -1322678.065 7
  23425875.726    23425885.690    -1886547.843 9  -2766901.617 8
 90  2 28  4 30 14.0800000  0  4G 6G 9G11G13
  20500197.735    20500202.384     3752895.579 9  -7139720.980 7
  21835873.906    21835878.967    -1240836.198 8  -2356631.844 9
  20793234.775    20793241.150      -72701.934 7  -1334097.937 8
  23416008.422    23416017.900    -1938400.567 8  -2807306.186 7
 90  2 28  4 30 29.0800000  0  4G 6G 9G11G13
  20498623.345    20498627.247     3744623.697 9  -7146166.600 8
  21828484.238    21828490.473    -1279672.029 8  -2386893.491 7
  20790470.700    20790477.179      -87224.031 7  -1345413.837 7
  23406152.880    23406163.738    -1990186.823 8  -2847658.945 8
 90  2 28  4 30 44.0800000  0  4G 6G 9G11G13
  20497072.182    20497075.808     3736465.926 8  -7152523.289 7
  21821104.673    21821109.306    -1318450.430 8  -2417110.392 8
  20787732.529    20787740.417     -101613.113 8  -1356626.080 7
  23396310.739    23396322.377    -2041906.406 8  -2887959.755 7
 90  2 28  4 30 59.0800000  0  4G 6G 9G11G13
  20495539.184    20495545.644     3728422.796 8  -7158790.652 7
  21813735.868    21813741.932    -1357170.597 8  -2447281.923 8
  20785021.614    20785026.951     -115868.909 8  -1367734.473 8
  23386481.690    23386491.762    -2093558.851 7  -2928208.257 7
 90  2 28  4 31 14.0800000  0  4G 6G 9G11G13
  20494030.337    20494036.697     3720494.501 9  -7164968.530 8
  21806378.997    21806384.903    -1395832.606 9  -2477408.136 8
  20782333.975    20782338.805     -129991.471 8  -1378739.058 7
  23376664.869    23376675.040    -2145144.269 8  -2968404.534 7
 90  2 28  4 31 29.0800000  0  4G 6G 9G11G13
  20492543.505    20492549.135     3712681.220 9  -7171056.799 8
  21799032.600    21799039.022    -1434435.869 9  -2507488.556 8
  20779672.165    20779676.723     -143980.931 8  -1389639.902 7
  23366861.520    23366871.198    -2196662.205 8  -3008548.221 8
 90  2 28  4 31 44.0800000  0  4G 6G 9G11G13
  20491078.880    20491084.070     3704983.184 8  -7177055.262 8
  21791698.310    21791704.316    -1472980.371 9  -2537523.208 8
  20777034.702    20777039.549     -157837.199 7  -1400436.967 7
  23357069.811    23357081.142    -2248112.341 7  -3048639.101 8
 90  2 28  4 31 59.0800000  0  4G 6G 9G11G13
  20489635.841    20489640.760     3697400.891 9  -7182963.522 8
  21784375.123    21784380.299    -1511465.243 8  -2567511.380 8
  20774421.979    20774427.174     -171560.130 9  -1411130.127 7
  23347293.428    23347302.913    -2299494.432 9  -3088676.925 7
 90  2 28  4 32 14.0800000  0  4G 6G 9G11G13
  20488215.150    20488221.352     3689934.323 9  -7188781.620 8
  21777062.897    21777066.642    -1549890.435 9  -2597453.038 6
  20771836.323    20771843.066     -185149.854 8  -1421719.518 7
  23337527.533    23337538.420    -2350808.401 7  -3128661.697 7
 90  2 28  4 32 29.0800000  0  4G 6G 9G11G13
  20486817.739    20486821.659     3682583.963 9  -7194509.155 8
  21769762.347    21769767.767    -1588255.500 8  -2627347.870 8
  20769275.328    20769282.057     -198606.260 8  -1432205.006 6
  23327773.980    23327786.140    -2402053.740 8  -3168592.975 7
 90  2 28  4 32 44.0800000  0  4G 6G 9G11G13
  20485441.306    20485445.462     3675349.952 8  -7200146.046 7
  21762472.615    21762477.090    -1626560.030 9  -2657195.538 8
  20766741.675    20766747.563     -211929.386 8  -1442586.652 8
  23318036.539    23318047.361    -2453230.132 8  -3208470.528 7
 90  2 28  4 32 59.0800000  0  4G 6G 9G11G13
  20484085.202    20484090.711     3668232.698 9  -7205691.938 7
  21755194.960    21755200.250    -1664803.747 8  -2686995.796 8
  20764231.370    20764236.400     -225119.086 7  -1452864.316 7
  23308311.003    23308322.083    -2504337.145 8  -3248294.012 7
 90  2 28  4 33 14.0800000  0  4G 6G 9G11G13
  20482754.458    20482758.772     3661232.398 8  -7211146.715 7
  21747928.952    21747935.044    -1702986.285 9  -2716748.400 8
  20761747.309    20761753.598     -238175.458 7  -1463038.088 8
  23298599.340    23298609.383    -2555374.728 8  -3288063.426 6
 90  2 28  4 33 29.0800000  0  4G 6G 9G11G13
  20481444.892    20481448.562     3654349.070 9  -7216510.332 8
  21740675.308    21740680.327    -1741107.502 9  -2746453.201 8
  20759287.326    20759293.294     -251098.776 7  -1473108.178 7
  23288900.448    23288910.162    -2606342.701 8  -3327778.590 8
 90  2 28  4 33 44.0800000  0  4G 6G 9G11G13
  20480156.460    20480162.036     3647582.693 9  -7221782.838 8
  21733433.225    21733436.685    -1779167.300 9  -2776110.168 7
  20756851.687    20756858.434     -263889.265 7  -1483074.763 7
  23279216.080    23279222.996    -2657240.999 8  -3367439.465 7
 90  2 28  4 33 59.0800000  0  4G 6G 9G11G13
  20478891.206    20478896.743     3640934.261 8  -7226963.427 8
  21726202.591    21726206.994    -1817164.633 9  -2805718.442 8
  20754444.034    20754450.923     -276546.284 7  -1492937.359 7
  23269542.908    23269552.565    -2708068.858 8  -3407045.432 7
 90  2 28  4 34 14.0800000  0  4G 6G 9G11G13
  20477648.524    20477653.832     3634403.602 8  -7232052.256 8
  21718983.489    21718988.307    -1855099.587 9  -2835278.118 8
  20752060.365    20752067.216     -289070.204 8  -1502696.229 7
  23259884.483    23259893.659    -2758826.342 8  -3446596.576 7
 90  2 28  4 34 29.0800000  0  4G 6G 9G11G13
  20476429.070    20476432.041     3627990.818 8  -7237049.236 7
  21711776.435    21711781.726    -1892971.916 9  -2864788.997 8
  20749705.348    20749710.278     -301461.141 8  -1512351.491 7
  23250237.855    23250248.520    -2809513.401 9  -3486092.850 7
 90  2 28  4 34 44.0800000  0  4G 6G 9G11G13
  20475230.786    20475234.723     3621696.440 9  -7241953.938 7
  21704580.714    21704586.792    -1930781.250 9  -2894250.776 7
  20747371.547    20747377.861     -313718.981 8  -1521903.038 7
  23240605.465    23240616.574    -2860129.383 8  -3525533.740 6
 90  2 28  4 34 59.0800000  0  4G 6G 9G11G13
  20474055.972    20474059.771     3615520.546 9  -7246766.324 8
  21697398.902    21697404.637    -1968527.126 9  -2923663.090 8
  20745063.067    20745070.157     -325843.929 8  -1531351.029 6
  23230986.769    23230996.397    -2910674.031 7  -3564919.050 7
 90  2 28  4 35 14.0800000  0  4G 6G 9G11G13
  20472903.271    20472907.648     3609463.207 9  -7251486.314 7
  21690227.307    21690232.726    -2006209.187 9  -2953025.721 8
  20742781.902    20742788.224     -337836.106 7  -1540695.568 7
  23221382.711    23221392.696    -2961147.512 8  -3604248.908 7
 90  2 28  4 35 29.0800000  0  4G 6G 9G11G13
  20471772.304    20471777.548     3603524.872 9  -7256113.578 7
  21683068.476    21683073.580    -2043827.502 9  -2982338.656 7
  20740525.948    20740531.063     -349695.263 8  -1549936.451 7
  23211791.674    23211801.310    -3011549.187 8  -3643522.807 7
 90  2 28  4 35 44.0800000  0  4G 6G 9G11G13
  20470664.218    20470669.973     3597705.776 9  -7260647.942 8
  21675922.608    21675927.912    -2081381.172 9  -3011601.224 8
  20738293.227    20738298.511     -361421.512 8  -1559073.763 6
  23202214.775    23202224.195    -3061878.982 8  -3682740.706 7
 90  2 28  4 35 59.0800000  0  4G 6G 9G11G13
  20469579.507    20469586.063     3592006.093 8  -7265089.260 8
  21668789.189    21668795.610    -2118869.899 8  -3040813.196 7
  20736087.011    20736093.297     -373014.930 8  -1568107.570 7
  23192650.676    23192659.245    -3112136.550 7  -3721902.299 7
 90  2 28  4 36 14.0800000  0  4G 6G 9G11G13
  20468517.925    20468523.523     3586426.291 8  -7269437.140 8
  21661667.132    21661672.895    -2156293.667 9  -3069974.538 7
  20733906.759    20733911.853     -384475.306 8  -1577037.719 7
  23183099.705    23183109.390    -3162321.471 7  -3761007.308 8
 90  2 28  4 36 29.0800000  0  4G 6G 9G11G13
  20467480.191    20467483.917     3580966.490 8  -7273691.520 7
  21654557.868    21654563.244    -2193651.559 9  -3099084.557 8
  20731749.920    20731756.227     -395802.815 7  -1585864.344 7
  23173563.552    23173574.131    -3212433.595 7  -3800055.583 7
 90  2 28  4 36 44.0800000  0  4G 6G 9G11G13
  20466463.401    20466467.915     3575626.932 8  -7277852.203 7
  21647462.684    21647467.903    -2230943.677 8  -3128143.326 7
  20729619.332    20729626.880     -406997.493 7  -1594587.444 7
  23164042.394    23164051.149    -3262472.561 8  -3839046.854 7
 90  2 28  4 36 59.0800000  0  4G 6G 9G11G13
  20465470.436    20465475.165     3570407.639 9  -7281919.159 8
  21640377.601    21640382.420    -2268169.977 9  -3157150.801 7
  20727515.598    20727520.531     -418059.537 8  -1603207.206 8
  23154534.386    23154542.820    -3312438.310 7  -3877981.066 8
 90  2 28  4 37 14.0800000  0  4G 6G 9G11G13
  20464500.720    20464504.894     3565309.007 8  -7285892.113 8
  21633306.342    21633311.275    -2305329.681 9  -3186106.400 8
  20725435.163    20725441.387     -428989.007 8  -1611723.655 7
  23145039.415    23145048.656    -3362330.310 8  -3916857.840 7
 90  2 28  4 37 29.0800000  0  4G 6G 9G11G13
  20463553.040    20463557.458     3560331.136 8  -7289770.970 8
  21626247.961    21626253.553    -2342422.478 9  -3215009.848 8
  20723380.513    20723387.113     -439785.846 8  -1620136.762 8
  23135561.263    23135568.959    -3412148.686 8  -3955677.230 8
 90  2 28  4 37 44.0800000  0  4G 6G 9G11G13
  20462628.352    20462633.191     3555474.046 8  -7293555.713 7
  21619202.945    21619205.703    -2379448.816 9  -3243861.499 7
  20721351.198    20721357.927     -450450.319 8  -1628446.740 7
  23126093.572    23126102.849    -3461893.309 8  -3994439.163 7
 90  2 28  4 37 59.0800000  0  4G 6G 9G11G13
  20461727.746    20461731.698     3550738.536 9  -7297245.720 8
  21612168.289    21612174.595    -2416406.964 7  -3272660.053 8
  20719348.880    20719353.417     -460981.978 8  -1636653.200 8
  23116640.662    23116650.862    -3511563.420 9  -4033143.014 6
 90  2 28  4 38 14.0800000  0  4G 6G 9G11G13
  20460849.873    20460853.904     3546125.096 8  -7300840.610 7
  21605150.002    21605154.692    -2453296.998 9  -3301405.504 7
  20717367.644    20717374.270     -471380.537 8  -1644755.970 7
  23107203.163    23107212.884    -3561158.507 8  -4071788.409 7
 90  2 28  4 38 29.0800000  0  4G 6G 9G11G13
  20459994.724    20460000.486     3541633.701 9  -7304340.399 8
  21598142.876    21598147.738    -2490118.660 9  -3330097.679 8
  20715414.908    20715421.783     -481646.256 8  -1652755.196 7
  23097780.446    23097787.984    -3610678.328 8  -4110375.164 8
 90  2 28  4 38 44.0800000  0  4G 6G 9G11G13
  20459163.313    20459167.984     3537264.254 9  -7307745.168 7
  21591147.971    21591153.591    -2526871.746 8  -3358736.421 7
  20713486.587    20713493.048     -491779.582 8  -1660651.285 7
  23088372.746    23088380.378    -3660123.064 8  -4148903.403 6
 90  2 28  4 38 59.0800000  0  4G 6G 9G11G13
  20458355.123    20458360.159     3533016.998 9  -7311054.709 8
  21584166.287    21584173.066    -2563555.674 9  -3387321.257 7
  20711585.572    20711591.356     -501780.376 8  -1668444.088 7
  23078976.815    23078985.642    -3709492.559 9  -4187373.041 7
 90  2 28  4 39 14.0800000  0  4G 6G 9G11G13
  20457569.659    20457574.545     3528891.858 9  -7314269.096 7
  21577200.858    21577204.332    -2600171.000 8  -3415852.665 7
  20709705.387    20709713.000     -511649.257 8  -1676134.132 7
  23069596.030    23069604.607    -3758786.841 8  -4225784.070 7
 90  2 28  4 39 29.0800000  0  4G 6G 9G11G13
  20456808.364    20456813.879     3524889.001 8  -7317388.204 7
  21570245.160    21570250.293    -2636717.014 8  -3444330.042 7
  20707852.690    20707859.065     -521386.274 8  -1683721.391 7
  23060228.347    23060238.983    -3808005.689 8  -4264136.296 7
 90  2 28  4 39 44.0800000  0  4G 6G 9G11G13
  20456070.535    20456074.802     3521009.111 8  -7320411.486 8
  21563304.258    21563309.234    -2673193.130 8  -3472752.944 8
  20706025.771    20706032.425     -530990.996 8  -1691205.578 7
  23050875.966    23050886.281    -3857148.313 8  -4302429.128 7
 90  2 28  4 39 59.0800000  0  4G 6G 9G11G13
  20455355.848    20455361.274     3517252.675 8  -7323338.564 7
  21556377.579    21556381.467    -2709598.764 8  -3501120.946 8
  20704223.393    20704228.594     -540463.222 7  -1698586.536 8
  23041540.606    23041549.525    -3906214.175 7  -4340662.149 7
 90  2 28  4 40 14.0800000  0  4G 6G 9G11G13
  20454664.296    20454667.286     3513619.680 9  -7326169.466 8
  21549463.291    21549467.980    -2745933.344 8  -3529433.600 7
  20702446.545    20702450.122     -549803.204 8  -1705864.411 6
  23032219.104    23032228.103    -3955203.274 9  -4378835.355 8
 90  2 28  4 40 29.0800000  0  4G 6G 9G11G13
  20453996.987    20454000.728     3510109.950 8  -7328904.320 7
  21542561.281    21542567.316    -2782197.306 9  -3557691.194 8
  20700694.757    20700697.676     -559011.438 8  -1713039.653 7
  23022911.082    23022918.972    -4004115.877 9  -4416948.974 8
 90  2 28  4 40 44.0800000  0  4G 6G 9G11G13
  20453351.982    20453356.446     3506723.707 9  -7331542.936 7
  21535674.209    21535679.286    -2818390.288 9  -3585893.484 8
  20698966.972    20698969.891     -568087.938 8  -1720112.237 6
  23013617.391    23013626.990    -4052952.030 8  -4455003.012 8
 90  2 28  4 40 59.0800000  0  4G 6G 9G11G13
  20452731.751    20452735.223     3503461.871 8  -7334084.638 7
  21528800.703    21528806.623    -2854510.743 9  -3614039.274 6
  20697265.251    20697268.067     -577032.104 9  -1727081.690 7
  23004339.433    23004348.316    -4101710.512 8  -4492996.545 8
 90  2 28  4 41 14.0800000  0  4G 6G 9G11G13
  20452133.712    20452138.444     3500324.365 9  -7336529.432 6
  21521940.647    21521945.394    -2890559.702 8  -3642129.359 8
  20695588.010    20695591.956     -585844.111 7  -1733948.176 7
  22995075.196    22995083.687    -4150391.076 8  -4530929.334 7
 90  2 28  4 41 29.0800000  0  4G 6G 9G11G13
  20451561.316    20451565.593     3497311.065 9  -7338877.466 7
  21515093.470    21515099.906    -2926536.430 9  -3670163.142 9
  20693935.896    20693941.909     -594524.541 8  -1740712.141 7
  22985825.828    22985834.325    -4198994.141 8  -4568801.741 8
 90  2 28  4 41 44.0800000  0  4G 6G 9G11G13
  20451010.784    20451015.824     3494422.285 9  -7341128.477 8
  21508262.147    21508267.624    -2962440.414 8  -3698140.250 8
  20692310.000    20692314.689     -603073.233 8  -1747373.453 8
  22976591.884    22976601.913    -4247519.139 8  -4606613.326 7
 90  2 28  4 41 59.0800000  0  4G 6G 9G11G13
  20450485.659    20450489.961     3491658.499 8  -7343282.070 8
  21501444.619    21501447.892    -2998271.172 9  -3726060.292 8
  20690708.075    20690712.679     -611490.207 8  -1753932.122 7
  22967374.453    22967381.398    -4295965.888 8  -4644363.924 7
 90  2 28  4 42 14.0800000  0  4G 6G 9G11G13
  20449983.724    20449987.465     3489020.092 8  -7345337.961 8
  21494638.480    21494643.599    -3034028.152 8  -3753922.866 8
  20689131.002    20689136.783     -619774.971 9  -1760387.767 7
  22958169.701    22958176.002    -4344333.615 8  -4682052.969 7
 90  2 28  4 42 29.0800000  0  4G 6G 9G11G13
  20449504.341    20449508.923     3486507.033 9  -7347296.181 7
  21487849.799    21487854.818    -3069711.673 8  -3781728.160 8
  20687579.481    20687584.572     -627928.191 9  -1766740.908 6
  22948978.213    22948988.456    -4392622.583 8  -4719680.634 7
 90  2 28  4 42 44.0800000  0  4G 6G 9G11G13
  20449050.547    20449054.270     3484119.317 9  -7349156.724 7
  21481072.879    21481079.086    -3105321.171 8  -3809475.789 8
  20686052.955    20686058.235     -635950.071 9  -1772991.706 7
  22939804.167    22939814.096    -4440832.545 8  -4757246.713 6
 90  2 28  4 42 59.0800000  0  4G 6G 9G11G13
  20448620.137    20448623.982     3481857.032 9  -7350919.541 7
  21474310.183    21474315.632    -3140856.325 9  -3837165.487 8
  20684549.853    20684557.520     -643840.825 7  -1779140.324 8
  22930645.283    22930656.213    -4488963.371 9  -4794751.156 7
 90  2 28  4 43 14.0800000  0  4G 6G 9G11G13
  20448213.188    20448218.327     3479720.581 9  -7352584.287 7
  21467562.827    21467567.173    -3176316.810 8  -3864797.009 7
  20683073.421    20683080.818     -651600.387 8  -1785186.711 7
  22921503.219    22921511.279    -4537014.843 8  -4832193.776 7
 90  2 28  4 43 29.0800000  0  4G 6G 9G11G13
  20447831.297    20447835.310     3477710.425 9  -7354150.645 7
  21460829.379    21460833.654    -3211701.927 9  -3892369.806 8
  20681622.172    20681628.500     -659228.533 7  -1791130.730 8
  22912373.983    22912383.675    -4584986.505 9  -4869574.195 8
 90  2 28  4 43 44.0800000  0  4G 6G 9G11G13
  20447471.592    20447476.328     3475826.419 9  -7355618.697 8
  21454110.469    21454115.932    -3247011.809 9  -3919883.974 8
  20680194.830    20680201.272     -666725.554 8  -1796972.543 7
  22903259.549    22903269.206    -4632878.472 8  -4906892.502 7
 90  2 28  4 43 59.0800000  0  4G 6G 9G11G13
  20447138.038    20447142.201     3474068.964 9  -7356988.131 7
  21447404.924    21447410.845    -3282245.789 9  -3947339.001 7
  20678794.393    20678800.352     -674091.462 7  -1802712.199 8
  22894160.270    22894170.621    -4680690.292 7  -4944148.367 8
 90  2 28  4 44 14.0800000  0  4G 6G 9G11G13
  20446827.657    20446831.960     3472437.877 9  -7358259.104 8
  21440714.747    21440720.181    -3317403.882 9  -3974734.871 7
  20677417.405    20677423.418     -681326.528 8  -1808349.909 8
  22885077.482    22885086.959    -4728421.673 8  -4981341.520 7
 90  2 28  4 44 29.0800000  0  4G 6G 9G11G13
  20446541.792    20446545.207     3470933.973 9  -7359430.967 7
  21434038.880    21434043.126    -3352485.184 8  -4002070.949 8
  20676066.213    20676072.212     -688430.465 8  -1813885.439 7
  22876011.635    22876018.874    -4776072.094 9  -5018471.608 7
 90  2 28  4 44 44.0800000  0  4G 6G 9G11G13
  20446279.143    20446283.532     3469557.473 8  -7360503.567 7
  21427378.723    21427383.900    -3387489.388 8  -4029346.929 8
  20674737.479    20674744.165     -695403.141 8  -1819318.672 7
  22866961.193    22866967.852    -4823641.186 8  -5055538.354 7
 90  2 28  4 44 59.0800000  0  4G 6G 9G11G13
  20446041.697    20446045.408     3468307.611 8  -7361477.485 8
  21420731.331    21420736.608    -3422417.066 9  -4056563.264 8
  20673436.924    20673441.556     -702245.822 8  -1824650.624 7
  22857922.556    22857930.030    -4871129.999 8  -5092542.528 7
 90  2 28  4 45 14.0800000  0  4G 6G 9G11G13
  20445827.864    20445831.476     3467185.912 9  -7362351.525 7
  21414099.765    21414104.096    -3457266.568 9  -4083718.691 7
  20672158.094    20672164.547     -708957.324 7  -1829880.347 8
  22848901.268    22848909.422    -4918536.908 8  -5129482.868 7
 90  2 28  4 45 29.0800000  0  4G 6G 9G11G13
  20445639.293    20445644.973     3466192.459 9  -7363125.644 8
  21407483.394    21407487.226    -3492037.464 9  -4110812.886 9
  20670906.898    20670911.888     -715537.504 8  -1835007.757 6
  22839893.002    22839904.455    -4965861.482 7  -5166359.058 7
 90  2 28  4 45 44.0800000  0  4G 6G 9G11G13
  20445475.156    20445478.529     3465327.281 8  -7363799.788 7
  21400880.647    21400886.539    -3526729.820 8  -4137845.865 8
  20669679.946    20669685.351     -721986.648 8  -1840033.048 8
  22830905.642    22830913.567    -5013103.892 7  -5203171.216 7
 90  2 28  4 45 59.0800000  0  4G 6G 9G11G13
  20445333.463    20445337.855     3464590.108 8  -7364374.198 8
  21394296.014    21394300.747    -3561343.796 9  -4164817.767 7
  20668477.666    20668482.760     -728305.537 8  -1844956.859 6
  22821930.545    22821938.992    -5060264.579 8  -5239919.708 7
 90  2 28  4 46 14.0800000  0  4G 6G 9G11G13
  20445217.491    20445224.122     3463981.390 9  -7364848.510 8
  21387724.604    21387727.133    -3595878.495 8  -4191727.890 7
  20667299.408    20667306.673     -734493.891 8  -1849778.939 7
  22812971.839    22812980.179    -5107342.570 8  -5276603.775 7
 90  2 28  4 46 29.0800000  0  4G 6G 9G11G13
  20445127.014    20445132.508     3463501.571 8  -7365222.403 7
  21381165.613    21381171.377    -3630333.570 9  -4218575.979 8
  20666146.698    20666151.399     -740551.634 8  -1854499.241 8
  22804029.659    22804037.026    -5154337.475 8  -5313223.086 6
 90  2 28  4 46 44.0800000  0  4G 6G 9G11G13
  20445060.154    20445064.328     3463150.764 9  -7365495.742 7
  21374625.340    21374629.457    -3664708.578 9  -4245361.675 8
  20665020.429    20665025.051     -746478.857 8  -1859117.856 7
  22795103.292    22795109.135    -5201249.351 9  -5349777.716 7
 90  2 28  4 46 59.0800000  0  4G 6G 9G11G13
  20445017.957    20445021.043     3462928.787 9  -7365668.710 8
  21368098.574    21368103.636    -3699003.717 9  -4272085.148 8
  20663915.026    20663921.458     -752276.118 8  -1863635.183 7
  22786190.504    22786199.123    -5248078.418 9  -5386267.808 7
 90  2 28  4 47 14.0800000  0  4G 6G 9G11G13
  20444999.959    20445004.197     3462836.300 9  -7365740.784 7
  21361587.148    21361592.967    -3733218.048 8  -4298745.639 8
  20662837.190    20662844.377     -757942.959 8  -1868050.894 7
  22777294.601    22777301.946    -5294824.055 9  -5422692.877 7
 90  2 28  4 47 29.0800000  0  4G 6G 9G11G13
  20445007.178    20445011.492     3462872.962 8  -7365712.222 8
  21355091.433    21355097.339    -3767351.654 8  -4325343.225 9
  20661784.091    20661790.222     -763479.799 8  -1872365.291 7
  22768416.062    22768423.966    -5341486.153 9  -5459052.870 7
 90  2 28  4 47 44.0800000  0  4G 6G 9G11G13
  20445039.442    20445043.136     3463039.145 9  -7365582.710 7
  21348614.033    21348617.392    -3801404.281 9  -4351877.730 8
  20660754.051    20660759.263     -768886.852 8  -1876578.560 7
  22759552.941    22759559.035    -5388064.439 8  -5495347.538 8
 90  2 28  4 47 59.0800000  0  4G 6G 9G11G13
  20445096.114    20445100.120     3463334.941 8  -7365352.219 7
  21342148.596    21342153.115    -3835375.345 9  -4378348.662 7
  20659751.703    20659756.547     -774164.242 9  -1880690.812 7
  22750704.723    22750711.547    -5434558.673 8  -5531576.727 8
 90  2 28  4 48 14.0800000  0  4G 6G 9G11G13
  20445177.283    20445180.494     3463760.662 9  -7365020.471 7
  21335698.986    21335705.579    -3869264.429 9  -4404755.708 8
  20658769.978    20658776.646     -779311.830 8  -1884701.902 6
  22741872.768    22741878.912    -5480968.680 8  -5567740.287 7
 90  2 28  4 48 29.0800000  0  4G 6G 9G11G13
  20445282.366    20445285.563     3464316.641 8  -7364587.230 7
  21329265.058    21329269.862    -3903071.403 8  -4431098.780 8
  20657817.590    20657821.751     -784329.787 8  -1888611.997 7
  22733057.247    22733064.900    -5527294.146 8  -5603837.978 7
 90  2 28  4 48 44.0800000  0  4G 6G 9G11G13
  20445412.694    20445417.788     3465002.948 8  -7364052.436 7
  21322849.245    21322853.635    -3936795.781 9  -4457377.489 7
  20656886.284    20656891.685     -789218.214 8  -1892421.139 7
  22724258.990    22724265.033    -5573534.853 9  -5639869.618 7
 90  2 28  4 48 59.0800000  0  4G 6G 9G11G13
  20445567.316    20445572.656     3465819.463 8  -7363416.186 8
  21316447.713    21316450.929    -3970437.307 9  -4483591.652 7
  20655979.753    20655984.207     -793977.442 8  -1896129.618 7
  22715475.142    22715482.173    -5619690.996 9  -5675835.369 7
 90  2 28  4 49 14.0800000  0  4G 6G 9G11G13
  20445747.966    20445752.834     3466766.552 8  -7362678.196 8
  21310059.861    21310065.638    -4003995.878 8  -4509741.155 8
  20655100.361    20655104.796     -798607.507 8  -1899737.463 8
  22706709.023    22706714.616    -5665762.139 8  -5711734.876 8
 90  2 28  4 49 29.0800000  0  4G 6G 9G11G13
  20445953.771    20445957.727     3467844.537 9  -7361838.194 7
  21303689.924    21303693.999    -4037470.650 9  -4535825.382 8
  20654243.322    20654248.646     -803108.371 8  -1903244.609 7
  22697957.765    22697964.938    -5711747.778 8  -5747567.767 8
 90  2 28  4 49 44.0800000  0  4G 6G 9G11G13
  20446182.783    20446187.551     3469053.460 8  -7360896.185 8
  21297336.500    21297340.946    -4070861.595 8  -4561844.276 7
  20653410.642    20653415.189     -807480.144 8  -1906651.168 7
  22689223.140    22689229.284    -5757647.812 9  -5783333.933 7
 90  2 28  4 49 59.0800000  0  4G 6G 9G11G13
  20446439.286    20446442.880     3470393.376 9  -7359852.095 7
  21290998.272    21291003.148    -4104168.456 9  -4587797.654 7
  20652602.462    20652608.866     -811723.295 8  -1909957.518 7
  22680502.976    22680511.494    -5803462.448 9  -5819033.560 8
 90  2 28  4 50 14.0800000  0  4G 6G 9G11G13
  20446718.541    20446723.151     3471864.694 8  -7358705.620 8
  21284676.957    21284680.831    -4137390.435 9  -4613684.874 8
  20651821.073    20651824.690     -815837.358 8  -1913163.289 7
  22671803.337    22671810.011    -5849190.874 9  -5854666.028 7
 90  2 28  4 50 29.0800000  0  4G 6G 9G11G13
  20447023.262    20447027.250     3473467.984 8  -7357456.298 8
  21278370.782    21278374.556    -4170527.053 8  -4639505.607 8
  20651062.146    20651068.220     -819822.418 9  -1916268.490 7
  22663118.044    22663124.760    -5894832.898 9  -5890231.182 7
 90  2 28  4 50 44.0800000  0  4G 6G 9G11G13
  20447354.402    20447357.410     3475202.916 9  -7356104.393 7
  21272081.062    21272085.351    -4203578.456 9  -4665259.927 8
  20650328.049    20650333.637     -823678.738 8  -1919273.413 7
  22654448.541    22654455.322    -5940388.695 8  -5925729.142 8
 90  2 28  4 50 59.0800000  0  4G 6G 9G11G13
  20447709.732    20447712.234     3477069.706 9  -7354649.744 7
  21265807.712    21265811.686    -4236543.985 9  -4690947.328 7
  20649619.655    20649624.984     -827406.483 8  -1922178.144 7
  22645794.141    22645802.746    -5985857.783 8  -5961159.499 7
 90  2 28  4 51 14.0800000  0  4G 6G 9G11G13
  20448090.267    20448093.429     3479068.418 8  -7353092.291 7
  21259551.103    21259554.562    -4269423.636 8  -4716567.819 7
  20648935.439    20648940.730     -831005.918 8  -1924982.890 7
  22637158.666    22637166.684    -6031239.844 8  -5996522.053 7
 90  2 28  4 51 29.0800000  0  4G 6G 9G11G13
  20448494.734    20448498.668     3481199.709 8  -7351431.553 8
  21253310.979    21253314.853    -4302216.605 8  -4742120.768 8
  20648274.773    20648278.658     -834476.842 8  -1927687.482 7
  22628539.889    22628548.472    -6076534.613 9  -6031816.596 8
 90  2 28  4 51 44.0800000  0  4G 6G 9G11G13
  20448924.332    20448930.877     3483463.151 8  -7349667.820 8
  21247086.881    21247091.685    -4334922.946 9  -4767606.218 8
  20647636.626    20647643.648     -837819.825 9  -1930292.403 8
  22619936.895    22619944.734    -6121742.314 8  -6067043.313 8
 90  2 28  4 51 59.0800000  0  4G 6G 9G11G13
  20449381.225    20449385.935     3485859.257 8  -7347800.734 7
  21240879.239    21240884.344    -4367542.031 8  -4793023.660 7
  20647025.945    20647031.022     -841034.442 8  -1932797.292 8
  22611350.836    22611358.682    -6166862.361 9  -6102201.713 8
 90  2 28  4 52 14.0800000  0  4G 6G 9G11G13
  20449862.725    20449866.473     3488388.322 8  -7345830.025 8
  21234688.338    21234693.271    -4400073.604 9  -4818372.931 7
  20646438.639    20646443.357     -844121.048 8  -1935202.433 7
  22602781.704    22602789.007    -6211894.522 9  -6137291.651 7
 90  2 28  4 52 29.0800000  0  4G 6G 9G11G13
  20450368.731    20450373.233     3491050.529 9  -7343755.577 7
  21228515.639    21228520.114    -4432516.869 9  -4843653.390 8
  20645875.390    20645880.806     -847079.550 8  -1937507.748 8
  22594228.005    22594237.627    -6256838.351 8  -6172312.757 7
 90  2 28  4 52 44.0800000  0  4G 6G 9G11G13
  20450900.929    20450904.888     3493845.468 8  -7341577.709 7
  21222358.680    21222361.467    -4464872.348 9  -4868865.425 7
  20645336.602    20645340.527     -849910.740 8  -1939713.857 7
  22585690.605    22585702.057    -6301694.355 8  -6207265.399 7
 90  2 28  4 52 59.0800000  0  4G 6G 9G11G13
  20451457.742    20451463.351     3496773.721 9  -7339295.945 8
  21216218.577    21216222.136    -4497139.327 8  -4894008.520 7
  20644822.677    20644826.215     -852614.307 9  -1941820.511 8
  22577173.702    22577181.270    -6346462.060 8  -6242149.253 8
 90  2 28  4 53 14.0800000  0  4G 6G 9G11G13
  20452040.745    20452045.309     3499835.532 9  -7336910.111 7
  21210094.643    21210098.875    -4529317.160 9  -4919082.136 7
  20644331.793    20644336.168     -855190.137 8  -1943827.638 6
  22568672.690    22568679.528    -6391141.022 9  -6276963.946 7
 90  2 28  4 53 29.0800000  0  4G 6G 9G11G13
  20452650.121    20452653.940     3503031.159 9  -7334420.017 7
  21203988.597    21203994.001    -4561405.772 8  -4944086.243 7
  20643866.934    20643871.842     -857638.455 8  -1945735.415 8
  22560188.176    22560194.034    -6435731.088 9  -6311709.394 7
 90  2 28  4 53 44.0800000  0  4G 6G 9G11G13
  20453283.460    20453287.931     3506360.434 9  -7331825.775 7
  21197898.833    21197904.710    -4593404.613 8  -4969020.376 7
  20643425.732    20643428.984     -859959.525 8  -1947544.030 8
  22551718.444    22551725.625    -6480232.145 9  -6346385.490 8
 90  2 28  4 53 59.0800000  0  4G 6G 9G11G13
  20453942.173    20453946.794     3509823.407 9  -7329127.359 7
  21191827.614    21191832.948    -4625313.736 9  -4993884.614 7
  20643006.394    20643012.640     -862153.581 8  -1949253.670 6
  22543265.367    22543274.458    -6524644.093 8  -6380992.131 8
 90  2 28  4 54 14.0800000  0  4G 6G 9G11G13
  20454626.335    20454629.889     3513420.668 9  -7326324.282 7
  21185772.938    21185777.355    -4657132.335 9  -5018678.316 7
  20642612.984    20642617.831     -864220.461 9  -1950864.210 7
  22534832.073    22534839.798    -6568966.558 8  -6415529.053 8
 90  2 28  4 54 29.0800000  0  4G 6G 9G11G13
  20455335.949    20455340.666     3517151.709 8  -7323416.979 8
  21179735.546    21179738.805    -4688860.469 8  -5043401.513 8
  20642245.310    20642248.150     -866160.874 8  -1952376.212 7
  22526415.306    22526422.165    -6613199.737 9  -6449996.401 7
 90  2 28  4 54 44.0800000  0  4G 6G 9G11G13
  20456071.016    20456075.086     3521017.212 8  -7320404.901 7
  21173714.724    21173719.915    -4720497.665 9  -5068053.863 8
  20641898.931    20641903.631     -867974.616 8  -1953789.520 9
  22518014.787    22518022.906    -6657343.112 9  -6484393.775 7
 90  2 28  4 54 59.0800000  0  4G 6G 9G11G13
  20456833.303    20456836.600     3525017.115 8  -7317288.075 8
  21167711.618    21167716.594    -4752043.562 8  -5092635.061 8
  20641577.360    20641582.984     -869661.814 9  -1955104.203 8
  22509631.762    22509639.200    -6701396.483 8  -6518721.016 7
 90  2 28  4 55 14.0800000  0  4G 6G 9G11G13
  20457620.151    20457623.201     3529152.174 8  -7314065.946 7
  21161725.825    21161730.329    -4783497.375 9  -5117144.508 8
  20641281.339    20641287.174     -871222.284 8  -1956320.156 8
  22501265.463    22501271.943    -6745359.280 9  -6552977.682 7
 90  2 28  4 55 29.0800000  0  4G 6G 9G11G13
  20458431.918    20458436.042     3533421.896 9  -7310738.902 7
  21155757.146    21155761.979    -4814859.107 9  -5141582.215 7
  20641008.012    20641012.977     -872656.433 7  -1957437.668 7
  22492916.937    22492922.680    -6789231.612 8  -6587163.857 7
 90  2 28  4 55 44.0800000  0  4G 6G 9G11G13
  20459270.573    20459273.234     3537826.241 8  -7307306.928 8
  21149807.155    21149812.603    -4846128.773 9  -5165948.171 8
  20640758.020    20640764.971     -873964.666 8  -1958457.075 7
  22484586.812    22484593.878    -6833013.721 8  -6621279.729 6
 90  2 28  4 55 59.0800000  0  4G 6G 9G11G13
  20460134.304    20460138.654     3542365.633 8  -7303769.741 8
  21143875.194    21143880.614    -4877305.841 8  -5190241.972 9
  20640533.552    20640540.059     -875146.940 8  -1959378.307 7
  22476271.032    22476278.191    -6876705.354 8  -6655325.111 7
 90  2 28  4 56 14.0800000  0  4G 6G 9G11G13
  20461023.721    20461028.378     3547040.545 8  -7300126.962 7
  21137960.060    21137964.320    -4908389.520 9  -5214463.007 7
  20640332.826    20640339.469     -876203.063 8  -1960201.247 7
  22467974.383    22467982.130    -6920305.692 8  -6689299.355 6
 90  2 28  4 56 29.0800000  0  4G 6G 9G11G13
  20461938.780    20461945.261     3551850.739 8  -7296378.769 8
  21132062.527    21132067.732    -4939379.872 9  -5238611.334 7
  20640154.455    20640160.783     -877133.606 8  -1960926.332 7
  22459694.634    22459701.085    -6963814.854 9  -6723202.542 6
 90  2 28  4 56 44.0800000  0  4G 6G 9G11G13
  20462879.273    20462885.125     3556796.493 8  -7292524.928 7
  21126182.708    21126188.185    -4970276.106 9  -5262686.299 8
  20640002.015    20640008.644     -877938.396 8  -1961553.439 8
  22451432.614    22451439.938    -7007232.430 8  -6757034.377 8
 90  2 28  4 56 59.0800000  0  4G 6G 9G11G13
  20463846.374    20463852.329     3561877.813 8  -7288565.480 7
  21120321.777    21120325.852    -5001078.485 9  -5286688.132 8
  20639872.753    20639878.205     -878617.821 7  -1962082.856 8
  22443187.300    22443194.781    -7050558.514 8  -6790794.886 7
 90  2 28  4 57 14.0800000  0  4G 6G 9G11G13
  20464839.253    20464846.078     3567094.923 8  -7284500.193 7
  21114477.989    21114483.022    -5031786.407 8  -5310616.370 7
  20639768.353    20639773.759     -879171.995 8  -1962514.668 7
  22434961.260    22434966.995    -7093792.603 8  -6824483.739 6
 90  2 28  4 57 29.0800000  0  4G 6G 9G11G13
  20465859.073    20465864.191     3572448.012 8  -7280328.944 8
  21108653.318    21108657.993    -5062399.495 8  -5334470.710 7
  20639686.562    20639691.764     -879601.045 8  -1962848.987 7
  22426750.882    22426758.806    -7136934.777 8  -6858100.975 7
 90  2 28  4 57 44.0800000  0  4G 6G 9G11G13
  20466903.372    20466907.270     3577937.141 8  -7276051.703 7
  21102845.360    21102849.463    -5092917.240 9  -5358250.763 7
  20639628.606    20639634.767     -879905.072 8  -1963085.888 8
  22418557.367    22418566.107    -7179984.760 9  -6891646.352 7
 90  2 28  4 57 59.0800000  0  4G 6G 9G11G13
  20467973.467    20467977.337     3583562.596 9  -7271668.231 7
  21097055.374    21097060.580    -5123339.354 9  -5381956.297 8
  20639593.756    20639600.221     -880084.196 8  -1963225.452 7
  22410384.071    22410392.010    -7222942.471 8  -6925119.854 7
 90  2 28  4 58 14.0800000  0  4G 6G 9G11G13
  20469071.194    20469072.391     3589324.440 8  -7267178.491 8
  21091284.477    21091289.697    -5153665.527 8  -5405587.072 8
  20639583.479    20639590.329     -880138.575 8  -1963267.827 7
  22402226.930    22402234.304    -7265807.706 9  -6958521.279 7
 90  2 28  4 58 29.0800000  0  4G 6G 9G11G13
  20470191.664    20470197.791     3595222.903 9  -7262582.290 6
  21085533.155    21085538.217    -5183895.524 9  -5429142.895 7
  20639596.922    20639604.395     -880068.382 8  -1963213.118 6
  22394088.255    22394094.713    -7308580.168 9  -6991850.405 6
 90  2 28  4 58 44.0800000  0  4G 6G 9G11G13
  20471340.470    20471344.230     3601257.830 8  -7257879.743 7
  21079799.033    21079802.420    -5214029.095 8  -5452623.579 8
  20639635.078    20639640.051     -879873.874 9  -1963061.547 7
  22385967.688    22385972.579    -7351259.692 8  -7025107.136 6
 90  2 28  4 58 59.0800000  0  4G 6G 9G11G13
  20472514.171    20472518.074     3607429.531 9  -7253070.629 7
  21074082.682    21074088.087    -5244065.693 9  -5476028.716 8
  20639694.830    20639702.396     -879555.013 8  -1962813.082 7
  22377864.421    22377869.713    -7393846.059 9  -7058291.264 7
 90  2 28  4 59 14.0800000  0  4G 6G 9G11G13
  20473715.010    20473720.153     3613738.261 9  -7248154.735 8
  21068385.248    21068389.609    -5274004.906 8  -5499357.972 8
  20639779.748    20639785.278     -879111.881 8  -1962467.780 8
  22369775.879    22369782.502    -7436338.946 8  -7091402.555 6
 90  2 28  4 59 29.0800000  0  4G 6G 9G11G13
  20474942.603    20474947.499     3620184.172 8  -7243131.947 8
  21062707.333    21062710.291    -5303846.278 8  -5522610.967 7
  20639888.229    20639894.186     -878544.620 7  -1962025.744 7
  22361705.501    22361714.485    -7478738.167 7  -7124440.848 7
 90  2 28  4 59 44.0800000  0  4G 6G 9G11G13
  20476195.841    20476199.407     3626767.180 9  -7238002.336 8
  21057047.617    21057051.835    -5333589.711 8  -5545787.662 7
  20640020.350    20640024.214     -877853.587 7  -1961487.276 6
  22353656.409    22353663.396    -7521043.632 7  -7157406.090 6
 90  2 28  4 59 59.0800000  0  4G 6G 9G11G13
  20477473.824    20477478.176     3633487.454 9  -7232765.772 7
  21051405.903    21051410.851    -5363234.962 9  -5568887.854 8
  20640174.453    20640179.461     -877038.960 7  -1960852.488 8
  22345625.168    22345632.649    -7563255.453 8  -7190298.363 7
 90  2 28  5  0 14.0800000  0  4G 6G 9G11G13
  20478779.033    20478783.890     3640345.334 9  -7227421.971 7
  21045783.593    21045787.697    -5392781.212 8  -5591910.888 7
  20640353.218    20640358.201     -876100.686 8  -1960121.357 7
  22337609.981    22337616.762    -7605373.081 8  -7223117.244 7
 90  2 28  5  0 29.0800000  0  4G 6G 9G11G13
  20480110.296    20480115.490     3647340.668 9  -7221971.049 7
  21040180.142    21040183.773    -5422228.458 8  -5614856.787 8
  20640554.527    20640560.497     -875039.131 8  -1959294.175 7
  22329613.639    22329621.679    -7647396.499 8  -7255862.719 8
 90  2 28  5  0 44.0800000  0  4G 6G 9G11G13
  20481467.960    20481472.055     3654473.885 7  -7216412.702 8
  21034593.948    21034599.940    -5451576.237 8  -5637725.168 8
  20640780.569    20640785.527     -873854.232 8  -1958370.887 8
  22321632.945    22321641.321    -7689325.668 8  -7288534.758 7
 90  2 28  5  0 59.0800000  0  4G 6G 9G11G13
  20482850.925    20482853.833     3661744.715 9  -7210747.122 7
  21029028.531    21029034.623    -5480824.301 9  -5660515.859 7
  20641028.905    20641035.230     -872546.352 8  -1957351.743 7
  22313671.110    22313680.116    -7731160.251 8  -7321133.088 8
 90  2 28  5  1 14.0800000  0  4G 6G 9G11G13
  20484261.443    20484264.182     3669153.547 8  -7204974.019 7
  21023481.859    21023484.273    -5509972.216 8  -5683228.503 7
  20641300.783    20641307.487     -871115.582 8  -1956236.847 8
  22305729.466    22305736.997    -7772899.765 8  -7353657.317 7
 90  2 28  5  1 29.0800000  0  4G 6G 9G11G13
  20485696.791    20485702.786     3676700.295 8  -7199093.427 7
  21017955.248    21017959.409    -5539019.764 9  -5705862.957 8
  20641597.119    20641601.227     -869562.102 8  -1955026.335 8
  22297806.616    22297812.109    -7814544.328 7  -7386107.575 7
 90  2 28  5  1 44.0800000  0  4G 6G 9G11G13
  20487160.117    20487164.852     3684385.152 8  -7193105.228 7
  21012446.410    21012452.244    -5567966.393 9  -5728418.766 7
  20641915.456    20641920.081     -867886.124 7  -1953720.375 7
  22289901.138    22289905.815    -7856093.753 8  -7418483.715 7
 90  2 28  5  1 59.0800000  0  4G 6G 9G11G13
  20488648.109    20488654.167     3692208.474 8  -7187009.146 7
  21006956.660    21006962.737    -5596812.008 8  -5750895.853 7
  20642258.698    20642263.374     -866087.669 8  -1952318.966 7
  22282010.706    22282019.383    -7897548.051 9  -7450785.712 8
 90  2 28  5  2 14.0800000  0  4G 6G 9G11G13
  20490163.155    20490168.352     3700170.412 8  -7180805.052 8
  21001487.229    21001492.118    -5625555.889 8  -5773293.665 7
  20642624.144    20642628.240     -864166.740 9  -1950822.143 7
  22274140.951    22274148.833    -7938906.408 9  -7483012.966 7
 90  2 28  5  2 29.0800000  0  4G 6G 9G11G13
  20491704.044    20491709.062     3708270.888 8  -7174492.987 8
  20996037.659    20996041.046    -5654197.812 8  -5795612.045 7
  20643012.403    20643018.566     -862123.644 9  -1949230.112 8
  22266287.036    22266294.074    -7980168.917 9  -7515165.494 7
 90  2 28  5  2 44.0800000  0  4G 6G 9G11G13
  20493273.301    20493278.044     3716509.798 9  -7168073.070 7
  20990604.515    20990610.765    -5682737.578 9  -5817850.812 6
  20643423.542    20643430.224     -859958.700 8  -1947543.149 7
  22258454.557    22258462.274    -8021335.699 9  -7547243.466 7
 90  2 28  5  2 59.0800000  0  4G 6G 9G11G13
  20494867.735    20494872.327     3724887.390 8  -7161545.080 7
  20985194.754    20985199.358    -5711175.134 9  -5840009.930 8
  20643859.832    20643866.153     -857672.270 8  -1945761.520 7
  22250639.284    22250645.227    -8062406.423 9  -7579246.578 7
 90  2 28  5  3 14.0800000  0  4G 6G 9G11G13
  20496486.960    20496491.266     3733403.740 9  -7154908.969 7
  20979803.909    20979808.183    -5739509.828 9  -5862088.911 6
  20644317.276    20644323.851     -855264.249 8  -1943885.111 7
  22242842.999    22242848.184    -8103380.862 9  -7611174.678 6
 90  2 28  5  3 29.0800000  0  4G 6G 9G11G13
  20498134.546    20498138.827     3742059.375 9  -7148164.303 8
  20974430.607    20974435.325    -5767740.913 9  -5884087.169 7
  20644799.653    20644804.980     -852734.485 9  -1941913.868 8
  22235063.964    22235068.477    -8144258.529 8  -7643027.383 8
 90  2 28  5  3 44.0800000  0  4G 6G 9G11G13
  20499807.380    20499812.147     3750853.909 8  -7141311.428 6
  20969077.739    20969081.870    -5795868.568 8  -5906004.818 8
  20645304.070    20645309.582     -850083.615 7  -1939848.255 8
  22227302.451    22227309.224    -8185040.066 9  -7674805.168 8
 90  2 28  5  3 59.0800000  0  4G 6G 9G11G13
  20501506.904    20501513.839     3759787.470 9  -7134350.233 7
  20963744.674    20963749.578    -5823892.439 8  -5927841.574 8
  20645830.241    20645835.721     -847311.901 8  -1937688.476 7
  22219560.062    22219566.434    -8225725.019 9  -7706507.693 8
 90  2 28  5  4 14.0800000  0  4G 6G 9G11G13
  20503235.701    20503239.503     3768860.568 8  -7127280.290 7
  20958432.014    20958437.119    -5851811.752 9  -5949596.870 7
  20646380.730    20646386.457     -844419.112 8  -1935434.348 8
  22211835.080    22211843.184    -8266312.689 8  -7738134.397 7
 90  2 28  5  4 29.0800000  0  4G 6G 9G11G13
  20504987.754    20504992.178     3778073.091 9  -7120101.699 8
  20953139.674    20953144.593    -5879626.436 9  -5971270.650 8
  20646953.477    20646960.678     -841405.558 8  -1933086.114 7
  22204131.169    22204137.598    -8306803.220 9  -7769685.403 7
 90  2 28  5  4 44.0800000  0  4G 6G 9G11G13
  20506766.594    20506771.649     3787424.805 8  -7112814.667 8
  20947866.422    20947871.326    -5907336.397 9  -5992862.800 8
  20647550.946    20647556.448     -838271.622 8  -1930644.084 7
  22196445.988    22196451.702    -8347196.692 8  -7801160.769 7
 90  2 28  5  4 59.0800000  0  4G 6G 9G11G13
  20508572.121    20508578.492     3796916.237 8  -7105418.737 8
  20942612.916    20942616.519    -5934940.916 9  -6014372.798 8
  20648170.553    20648176.505     -835017.280 9  -1928108.236 7
  22188778.057    22188783.799    -8387492.417 9  -7832560.015 8
 90  2 28  5  5 14.0800000  0  4G 6G 9G11G13
  20510405.676    20510411.163     3806547.329 8  -7097914.012 8
  20937380.503    20937385.107    -5962439.974 9  -6035800.630 8
  20648811.751    20648818.909     -831642.757 7  -1925478.743 8
  22181128.012    22181132.488    -8427690.911 9  -7863883.478 7
 90  2 28  5  5 29.0800000  0  4G 6G 9G11G13
  20512264.544    20512270.950     3816318.045 8  -7090300.452 8
  20932167.263    20932171.738    -5989833.067 8  -6057145.885 7
  20649477.632    20649482.970     -828148.242 7  -1922755.734 8
  22173496.211    22173502.391    -8467791.887 8  -7895130.964 6
 90  2 28  5  5 44.0800000  0  4G 6G 9G11G13
  20514150.535    20514156.133     3826228.785 9  -7082577.804 8
  20926975.573    20926978.360    -6017119.777 9  -6078408.241 7
  20650165.018    20650171.654     -824533.772 8  -1919939.272 7
  22165882.526    22165890.408    -8507794.967 8  -7926302.140 7
 90  2 28  5  5 59.0800000  0  4G 6G 9G11G13
  20516062.980    20516069.597     3836279.492 8  -7074746.081 7
  20921801.456    20921807.691    -6044299.808 8  -6099587.479 7
  20650875.988    20650880.921     -820799.721 9  -1917029.610 7
  22158288.938    22158297.357    -8547699.879 8  -7957396.839 7
 90  2 28  5  6 14.0800000  0  4G 6G 9G11G13
  20518003.096    20518009.391     3846470.403 7  -7066805.128 8
  20916651.635    20916654.851    -6071372.619 9  -6120683.159 7
  20651610.468    20651613.283     -816946.015 8  -1914026.721 7
  22150715.713    22150721.298    -8587506.477 8  -7988414.920 7
 90  2 28  5  6 29.0800000  0  4G 6G 9G11G13
  20519968.349    20519973.836     3856801.521 8  -7058754.917 7
  20911520.044    20911524.748    -6098338.129 8  -6141695.239 8
  20652365.940    20652371.617     -812973.056 9  -1910930.909 7
  22143160.473    22143165.236    -8627214.499 9  -8019356.217 7
 90  2 28  5  6 44.0800000  0  4G 6G 9G11G13
  20521961.995    20521967.521     3867272.788 9  -7050595.487 8
  20906409.573    20906412.417    -6125195.998 8  -6162623.439 7
  20653144.392    20653150.009     -808881.091 8  -1907742.356 7
  22135622.091    22135630.338    -8666824.003 9  -8050220.716 8
 90  2 28  5  6 59.0800000  0  4G 6G 9G11G13
  20523980.292    20523986.004     3877884.243 8  -7042326.826 7
  20901319.221    20901322.652    -6151945.902 9  -6183467.517 7
  20653945.328    20653951.406     -804670.354 9  -1904461.268 7
  22128102.081    22128109.526    -8706334.721 8  -8081008.251 7
 90  2 28  5  7 14.0800000  0  4G 6G 9G11G13
  20526026.868    20526033.668     3888636.103 9  -7033948.754 8
  20896249.531    20896252.332    -6178587.522 8  -6204227.213 7
  20654769.441    20654774.739     -800340.696 9  -1901087.503 7
  22120602.233    22120609.886    -8745746.623 8  -8111718.786 7
 90  2 28  5  7 29.0800000  0  4G 6G 9G11G13
  20528098.528    20528106.008     3899528.505 9  -7025461.185 8
  20891199.990    20891204.164    -6205120.338 9  -6224902.139 7
  20655617.264    20655620.573     -795892.432 8  -1897621.327 8
  22113120.478    22113129.698    -8785059.546 8  -8142352.192 7
 90  2 28  5  7 44.0800000  0  4G 6G 9G11G13
  20530199.289    20530203.524     3910561.472 8  -7016864.073 7
  20886170.738    20886177.059    -6231544.068 8  -6245492.044 7
  20656485.567    20656489.624     -791325.878 9  -1894062.976 7
  22105658.142    22105667.276    -8824273.320 8  -8172908.335 8
 90  2 28  5  7 59.0800000  0  4G 6G 9G11G13
  20532325.135    20532330.349     3921735.018 8  -7008157.406 8
  20881164.066    20881169.300    -6257858.463 8  -6265996.769 7
  20657376.336    20657380.961     -786641.147 8  -1890412.538 8
  22098216.861    22098223.191    -8863387.663 7  -8203387.028 7
 90  2 28  5  8 14.0800000  0  4G 6G 9G11G13
  20534478.840    20534484.577     3933049.296 7  -6999341.075 7
  20876178.142    20876181.143    -6284063.120 9  -6286415.968 8
  20658290.790    20658295.759     -781838.485 7  -1886670.208 8
  22090792.458    22090799.045    -8902402.470 8  -8233788.142 7
 90  2 28  5  8 29.0800000  0  4G 6G 9G11G13
  20536659.285    20536663.298     3944504.411 8  -6990415.022 7
  20871210.907    20871215.496    -6310157.767 9  -6306749.445 7
  20659227.327    20659232.167     -776917.987 8  -1882836.048 7
  22083387.494    22083393.058    -8941317.489 9  -8264111.477 7
 90  2 28  5  8 44.0800000  0  4G 6G 9G11G13
  20538864.793    20538870.008     3956100.483 8  -6981379.132 7
  20866267.396    20866271.556    -6336141.992 8  -6326996.874 7
  20660185.038    20660191.348     -771879.859 9  -1878910.233 7
  22075998.742    22076007.741    -8980132.669 9  -8294357.045 7
 90  2 28  5  8 59.0800000  0  4G 6G 9G11G13
  20541098.086    20541104.163     3967837.311 8  -6972233.553 8
  20861343.488    20861347.377    -6362015.726 9  -6347158.217 7
  20661166.416    20661172.687     -766724.431 8  -1874893.015 8
  22068631.025    22068640.160    -9018848.116 7  -8324524.874 7
 90  2 28  5  9 14.0800000  0  4G 6G 9G11G13
  20543359.640    20543362.758     3979715.170 8  -6962978.096 8
  20856439.871    20856443.988    -6387778.469 8  -6367233.083 8
  20662169.794    20662174.366     -761451.859 9  -1870784.520 9
  22061283.999    22061291.982    -9057463.544 8  -8354614.788 6
 90  2 28  5  9 29.0800000  0  4G 6G 9G11G13
  20545645.566    20545649.800     3991734.239 8  -6953612.601 8
  20851559.006    20851564.354    -6413429.589 8  -6387220.957 7
  20663195.162    20663201.161     -756062.220 8  -1866584.786 8
  22053955.124    22053962.985    -9095978.617 8  -8384626.520 7
 90  2 28  5  9 44.0800000  0  4G 6G 9G11G13
  20547959.147    20547965.539     4003894.465 8  -6944137.112 7
  20846699.633    20846702.219    -6438969.057 8  -6407121.824 7
  20664242.134    20664248.158     -750555.757 8  -1862294.031 7
  22046645.016    22046653.835    -9134393.303 8  -8414559.997 7
 90  2 28  5  9 59.0800000  0  4G 6G 9G11G13
  20550300.851    20550305.353     4016196.065 8  -6934551.437 9
  20841861.237    20841865.684    -6464396.258 8  -6426935.224 7
  20665313.385    20665318.332     -744932.576 8  -1857912.335 8
  22039354.962    22039362.157    -9172707.327 8  -8444415.041 7
 90  2 28  5 10 14.0800000  0  4G 6G 9G11G13
  20552668.460    20552673.650     4028638.949 8  -6924855.675 7
  20837043.246    20837047.378    -6489711.184 8  -6446661.122 8
  20666405.451    20666409.648     -739193.091 8  -1853440.009 7
  22032081.757    22032089.997    -9210920.717 8  -8474191.677 7
 90  2 28  5 10 29.0800000  0  4G 6G 9G11G13
  20555062.993    20555067.967     4041223.018 9  -6915049.910 8
  20832247.778    20832252.797    -6514913.499 9  -6466299.303 8
  20667518.997    20667525.360     -733337.539 9  -1848877.238 7
  22024830.381    22024837.147    -9249033.597 8  -8503889.971 7
 90  2 28  5 10 44.0800000  0  4G 6G 9G11G13
  20557485.006    20557490.707     4053948.505 8  -6905133.945 7
  20827472.687    20827478.721    -6540002.883 9  -6485849.451 7
  20668654.907    20668662.930     -727365.973 7  -1844224.067 7
  22017596.089    22017604.180    -9287045.613 8  -8533509.678 8
 90  2 28  5 10 59.0800000  0  4G 6G 9G11G13
  20559933.527    20559937.608     4066815.523 8  -6895107.700 7
  20822721.090    20822725.236    -6564978.723 9  -6505311.134 7
  20669811.805    20669819.196     -721278.633 8  -1839480.686 7
  22010383.427    22010389.578    -9324956.586 8  -8563050.684 7
 90  2 28  5 11 14.0800000  0  4G 6G 9G11G13
  20562409.086    20562414.057     4079824.165 8  -6884971.094 7
  20817989.985    20817993.616    -6589840.801 9  -6524684.175 6
  20670994.806    20671000.867     -715075.636 9  -1834647.177 7
  22003187.621    22003194.751    -9362766.242 9  -8592512.734 6
 90  2 28  5 11 29.0800000  0  4G 6G 9G11G13
  20564910.204    20564915.783     4092974.529 9  -6874724.073 8
  20813279.885    20813283.760    -6614588.836 8  -6543968.370 7
  20672197.119    20672202.520     -708757.135 8  -1829723.658 7
  21996012.169    21996019.228    -9400474.426 9  -8621895.704 7
 90  2 28  5 11 44.0800000  0  4G 6G 9G11G13
  20567439.607    20567446.450     4106266.709 9  -6864366.537 7
  20808592.881    20808596.383    -6639222.333 9  -6563163.283 7
  20673421.514    20673427.166     -702323.331 8  -1824710.309 7
  21988855.755    21988862.493    -9438080.798 9  -8651199.327 7
 90  2 28  5 11 59.0800000  0  4G 6G 9G11G13
  20569996.338    20570001.667     4119700.519 8  -6853898.643 7
  20803927.912    20803929.969    -6663741.198 8  -6582268.892 6
  20674667.104    20674672.420     -695774.606 8  -1819607.394 7
  21981718.324    21981726.005    -9475585.725 9  -8680423.897 7
 90  2 28  5 12 14.0800000  0  4G 6G 9G11G13
  20572580.210    20572585.142     4133276.146 8  -6843320.225 7
  20799282.576    20799286.379    -6688144.993 9  -6601284.835 7
  20675934.948    20675941.266     -689111.009 8  -1814414.977 8
  21974600.766    21974608.570    -9512988.667 8  -8709569.013 8
 90  2 28  5 12 29.0800000  0  4G 6G 9G11G13
  20575190.832    20575194.956     4146993.534 8  -6832631.356 8
  20794661.280    20794666.041    -6712433.520 8  -6620210.959 8
  20677225.387    20677231.261     -682332.885 8  -1809133.309 8
  21967503.021    21967509.730    -9550289.783 8  -8738634.781 7
 90  2 28  5 12 44.0800000  0  4G 6G 9G11G13
  20577828.195    20577832.327     4160852.840 9  -6821831.893 6
  20790060.731    20790064.520    -6736606.308 8  -6639046.889 8
  20678536.499    20678541.554     -675440.494 8  -1803762.614 8
  21960424.314    21960431.351    -9587488.898 9  -8767621.083 7
 90  2 28  5 12 59.0800000  0  4G 6G 9G11G13
  20580492.804    20580495.146     4174854.171 8  -6810921.764 8
  20785482.992    20785487.482    -6760663.092 9  -6657792.428 7
  20679870.170    20679875.285     -668433.979 8  -1798302.989 7
  21953364.867    21953371.497    -9624585.684 8  -8796527.652 8
 90  2 28  5 13 14.0800000  0  4G 6G 9G11G13
  20583183.869    20583188.472     4188997.522 9  -6799900.995 8
  20780926.430    20780932.494    -6784603.427 8  -6676447.239 7
  20681225.350    20681230.423     -661313.316 8  -1792754.428 7
  21946325.381    21946330.831    -9661580.055 9  -8825354.390 8
 90  2 28  5 13 29.0800000  0  4G 6G 9G11G13
  20585901.828    20585906.424     4203282.774 9  -6788769.641 7
  20776393.221    20776399.098    -6808427.166 8  -6695011.182 8
  20682601.740    20682607.590     -654079.126 8  -1787117.391 7
  21939305.055    21939311.428    -9698472.035 8  -8854101.362 9
 90  2 28  5 13 44.0800000  0  4G 6G 9G11G13
  20588647.845    20588652.956     4217710.174 8  -6777527.519 7
  20771882.706    20771887.882    -6832133.852 9  -6713483.923 7
  20684000.697    20684006.538     -646731.335 9  -1781391.850 7
  21932305.406    21932310.084    -9735261.378 8  -8882768.334 7
 90  2 28  5 13 59.0800000  0  4G 6G 9G11G13
  20591420.641    20591424.682     4232279.498 8  -6766174.809 8
  20767393.970    20767398.130    -6855723.456 9  -6731865.423 8
  20685420.373    20685425.291     -639270.276 8  -1775578.039 8
  21925323.780    21925329.143    -9771948.177 9  -8911355.431 7
 90  2 28  5 14 14.0800000  0  4G 6G 9G11G13
  20594220.417    20594224.157     4246991.325 9  -6754711.065 7
  20762926.840    20762932.546    -6879195.066 8  -6750154.975 8
  20686861.620    20686865.322     -631695.662 8  -1769675.756 7
  21918360.998    21918367.843    -9808531.569 8  -8939861.938 6
 90  2 28  5 14 29.0800000  0  4G 6G 9G11G13
  20597047.319    20597052.620     4261845.624 9  -6743136.301 8
  20758483.035    20758487.382    -6902548.548 9  -6768352.485 8
  20688324.334    20688327.139     -624007.987 8  -1763685.347 7
  21911418.408    21911425.102    -9845011.920 7  -8968288.145 7
 90  2 28  5 14 44.0800000  0  4G 6G 9G11G13
  20599901.753    20599904.918     4276842.178 9  -6731450.669 8
  20754061.924    20754065.584    -6925783.719 8  -6786457.784 7
  20689808.523    20689813.188     -616207.628 9  -1757607.147 7
  21904495.241    21904503.374    -9881389.211 8  -8996634.066 7
 90  2 28  5 14 59.0800000  0  4G 6G 9G11G13
  20602782.619    20602786.732     4291980.969 9  -6719654.214 7
  20749663.536    20749666.237    -6948900.309 9  -6804470.712 7
  20691314.090    20691319.728     -608294.827 9  -1751441.318 7
  21897593.081    21897600.791    -9917663.313 8  -9024899.561 8
 90  2 28  5 15 14.0800000  0  4G 6G 9G11G13
  20605690.140    20605694.117     4307261.937 9  -6707746.988 8
  20745285.667    20745291.559    -6971898.106 9  -6822391.060 7
  20692841.592    20692844.526     -600269.913 8  -1745188.136 7
  21890711.196    21890717.419    -9953834.345 8  -9053084.744 8
 90  2 28  5 15 29.0800000  0  4G 6G 9G11G13
  20608624.447    20608628.714     4322685.243 8  -6695728.832 7
  20740932.382    20740937.300    -6994776.708 9  -6840218.532 8
  20694389.046    20694395.317     -592133.016 8  -1738847.689 7
  21883847.850    21883854.215    -9989901.862 9  -9081189.264 6
 90  2 28  5 15 44.0800000  0  4G 6G 9G11G13
  20611585.481    20611590.742     4338251.075 8  -6683599.624 8
  20736602.249    20736605.908    -7017535.589 9  -6857952.727 7
  20695960.596    20695965.200     -583884.139 8  -1732420.003 8
  21877003.885    21877009.062   -10025865.508 9  -9109212.868 7
 90  2 28  5 15 59.0800000  0  4G 6G 9G11G13
  20614575.515    20614579.685     4353959.464 9  -6671359.325 8
  20732293.637    20732299.629    -7040174.472 9  -6875593.403 6
  20697550.075    20697554.829     -575523.673 8  -1725905.346 7
  21870178.922    21870186.397   -10061725.410 8  -9137155.612 7
 90  2 28  5 16 14.0800000  0  4G 6G 9G11G13
  20617592.043    20617595.387     4369810.303 9  -6659008.036 7
  20728008.863    20728012.866    -7062693.117 9  -6893140.385 8
  20699162.835    20699168.101     -567051.832 8  -1719303.906 8
  21863374.966    21863382.118   -10097481.468 7  -9165017.444 7
 90  2 28  5 16 29.0800000  0  4G 6G 9G11G13
  20620634.818    20620640.040     4385803.429 9  -6646545.860 8
  20723745.955    20723751.017    -7085091.510 9  -6910593.667 7
  20700795.404    20700800.837     -558469.073 8  -1712616.051 8
  21856590.198    21856597.451   -10133133.746 9  -9192798.387 7
 90  2 28  5 16 44.0800000  0  4G 6G 9G11G13
  20623706.136    20623711.129     4401938.947 9  -6633972.742 7
  20719507.887    20719511.332    -7107369.022 8  -6927952.772 7
  20702450.301    20702454.637     -549775.528 8  -1705841.863 8
  21849826.901    21849832.287   -10168682.169 8  -9220498.431 7
 90  2 28  5 16 59.0800000  0  4G 6G 9G11G13
  20626804.276    20626807.792     4418217.130 9  -6621288.445 8
  20715291.254    20715297.046    -7129525.420 9  -6945217.492 7
  20704125.131    20704132.354     -540971.277 9  -1698981.406 7
  21843082.772    21843088.629   -10204126.611 8  -9248117.459 7
 90  2 28  5 17 14.0800000  0  4G 6G 9G11G13
  20629928.184    20629932.802     4434637.889 8  -6608493.065 6
  20711097.630    20711102.420    -7151560.220 9  -6962387.464 8
  20705823.303    20705827.407     -532056.492 8  -1692034.823 7
  21836357.308    21836363.623   -10239466.659 9  -9275655.143 8
 90  2 28  5 17 29.0800000  0  4G 6G 9G11G13
  20633079.923    20633084.165     4451201.250 8  -6595586.553 7
  20706927.789    20706931.921    -7173473.298 9  -6979462.576 8
  20707540.442    20707543.912     -523031.573 8  -1685002.395 7
  21829649.982    21829657.105   -10274702.457 8  -9303111.565 6
 90  2 28  5 17 44.0800000  0  4G 6G 9G11G13
  20636258.692    20636262.863     4467907.034 8  -6582569.062 7
  20702782.044    20702786.004    -7195264.410 8  -6996442.660 7
  20709277.675    20709282.289     -513896.632 9  -1677884.266 6
  21822964.985    21822971.150   -10309833.735 9  -9330486.565 7
 90  2 28  5 17 59.0800000  0  4G 6G 9G11G13
  20639465.172    20639469.696     4484755.504 9  -6569440.382 8
  20698658.135    20698662.267    -7216933.031 9  -7013327.280 7
  20711037.806    20711042.399     -504651.792 8  -1670680.488 8
  21816299.856    21816306.959   -10344860.365 9  -9357779.997 8
 90  2 28  5 18 14.0800000  0  4G 6G 9G11G13
  20642697.986    20642702.858     4501746.704 8  -6556200.486 7
  20694557.407    20694562.712    -7238478.762 9  -7030116.155 7
  20712817.021    20712821.833     -495297.292 8  -1663391.272 7
  21809654.588    21809661.598   -10379782.154 8  -9384991.737 7
 90  2 28  5 18 29.0800000  0  4G 6G 9G11G13
  20645958.644    20645963.998     4518880.897 8  -6542849.184 7
  20690480.947    20690486.653    -7259901.208 9  -7046808.984 7
  20714618.098    20714623.897     -485833.136 9  -1656016.602 8
  21803030.578    21803035.576   -10414598.699 8  -9412121.488 7
 90  2 28  5 18 44.0800000  0  4G 6G 9G11G13
  20649246.378    20649251.557     4536157.808 8  -6529386.663 8
  20686428.756    20686432.802    -7281200.165 9  -7063405.551 8
  20716439.408    20716445.711     -476259.811 7  -1648556.864 7
  21796425.869    21796430.825   -10449310.141 8  -9439169.336 8
 90  2 28  5 18 59.0800000  0  4G 6G 9G11G13
  20652560.433    20652565.290     4553577.452 8  -6515812.916 8
  20682399.144    20682404.335    -7302375.344 9  -7079905.683 7
  20718281.470    20718287.097     -466577.451 7  -1641012.164 7
  21789838.525    21789845.649   -10483916.614 8  -9466135.420 7
 90  2 28  5 19 14.0800000  0  4G 6G 9G11G13
  20655902.398    20655907.095     4571139.876 9  -6502127.925 8
  20678392.885    20678398.376    -7323426.666 8  -7096309.316 7
  20720143.604    20720149.839     -456786.337 8  -1633382.726 7
  21783273.969    21783279.977   -10518417.729 9  -9493019.383 7
 90  2 28  5 19 29.0800000  0  4G 6G 9G11G13
  20659271.409    20659277.922     4588845.085 9  -6488331.686 8
  20674410.150    20674413.152    -7344353.480 8  -7112615.920 7
  20722029.043    20722035.239     -446886.623 8  -1625668.676 8
  21776728.930    21776734.129   -10552813.293 9  -9519821.085 7
 90  2 28  5 19 44.0800000  0  4G 6G 9G11G13
  20662668.819    20662674.413     4606693.051 9  -6474424.186 8
  20670452.657    20670456.617    -7365155.769 9  -7128825.489 7
  20723932.896    20723939.328     -436878.676 9  -1617870.283 8
  21770204.010    21770209.846   -10587103.582 9  -9546540.751 6
 90  2 28  5 19 59.0800000  0  4G 6G 9G11G13
  20666093.584    20666097.139     4624683.777 9  -6460405.450 7
  20666517.057    20666521.990    -7385833.103 8  -7144937.691 6
  20725859.171    20725863.918     -426762.681 8  -1609987.683 8
  21763698.923    21763704.015   -10621288.205 9  -9573178.105 7
 90  2 28  5 20 14.0800000  0  4G 6G 9G11G13
  20669543.842    20669547.669     4642817.274 8  -6446275.451 8
  20662604.667    20662610.773    -7406385.273 8  -7160952.351 9
  20727803.422    20727809.814     -416538.889 9  -1602021.103 7
  21757212.988    21757218.874   -10655367.358 8  -9599733.259 7
 90  2 28  5 20 29.0800000  0  4G 6G 9G11G13
  20673021.655    20673025.081     4661093.312 8  -6432034.387 8
  20658718.176    20658725.055    -7426812.098 9  -7176869.349 7
  20729769.988    20729777.032     -406207.720 8  -1593970.850 7
  21750748.424    21750754.081   -10689341.055 9  -9626206.248 6
 90  2 28  5 20 44.0800000  0  4G 6G 9G11G13
  20676526.323    20676530.319     4679512.069 8  -6417682.109 7
  20654856.039    20654859.770    -7447113.046 9  -7192688.259 8
  20731755.803    20731761.945     -395769.295 7  -1585837.005 7
  21744303.571    21744308.956   -10723208.799 9  -9652596.697 8
 90  2 28  5 20 59.0800000  0  4G 6G 9G11G13
  20680057.889    20680063.212     4698073.781 9  -6403218.447 8
  20651016.968    20651021.458    -7467287.737 8  -7208408.803 8
  20733762.589    20733768.806     -385223.629 8  -1577619.597 7
  21737878.644    21737885.574   -10756970.544 8  -9678904.523 7
 90  2 28  5 21 14.0800000  0  4G 6G 9G11G13
  20683618.128    20683621.743     4716778.450 9  -6388643.377 7
  20647203.197    20647205.511    -7487335.731 7  -7224030.591 7
  20735790.251    20735795.689     -374570.932 9  -1569318.795 8
  21731474.493    21731480.229   -10790626.193 8  -9705129.667 7
 90  2 28  5 21 29.0800000  0  4G 6G 9G11G13
  20687203.725    20687209.333     4735625.837 8  -6373957.115 7
  20643411.089    20643416.838    -7507256.966 8  -7239553.646 7
  20737837.203    20737841.764     -363811.633 8  -1560934.922 8
  21725090.104    21725096.727   -10824175.402 8  -9731271.874 7
 90  2 28  5 21 44.0800000  0  4G 6G 9G11G13
  20690817.490    20690821.836     4754616.142 8  -6359159.497 6
  20639643.593    20639648.555    -7527051.116 9  -7254977.644 8
  20739904.452    20739911.359     -352945.724 8  -1552467.989 8
  21718726.906    21718732.049   -10857618.363 9  -9757331.297 8
 90  2 28  5 21 59.0800000  0  4G 6G 9G11G13
  20694458.793    20694463.332     4773749.106 9  -6344250.705 8
  20635900.938    20635906.916    -7546717.930 9  -7270302.430 7
  20741994.506    20741999.254     -341973.657 8  -1543918.338 7
  21712380.959    21712389.184   -10890955.217 9  -9783308.053 7
 90  2 28  5 22 14.0800000  0  4G 6G 9G11G13
  20698126.940    20698131.515     4793024.897 9  -6329230.631 8
  20632183.782    20632187.856    -7566256.996 8  -7285527.660 8
  20744101.356    20744105.860     -330895.690 8  -1535286.136 9
  21706057.219    21706065.158   -10924185.786 8  -9809201.976 6
 90  2 28  5 22 29.0800000  0  4G 6G 9G11G13
  20701821.510    20701828.177     4812443.389 8  -6314099.336 8
  20628489.120    20628494.926    -7585668.108 9  -7300653.210 7
  20746230.367    20746235.150     -319712.094 8  -1526571.630 8
  21699755.465    21699758.840   -10957309.845 9  -9835012.892 7
 90  2 28  5 22 44.0800000  0  4G 6G 9G11G13
  20705543.027    20705549.629     4832004.821 8  -6298856.675 7
  20624820.472    20624825.291    -7604950.653 9  -7315678.552 8
  20748378.359    20748382.316     -308422.945 8  -1517774.903 7
  21693471.461    21693478.385   -10990327.275 9  -9860740.732 7
 90  2 28  5 22 59.0800000  0  4G 6G 9G11G13
  20709294.836    20709300.197     4851709.025 8  -6283502.749 8
  20621176.723    20621179.724    -7624104.694 8  -7330603.764 8
  20750547.475    20750552.395     -297028.502 8  -1508896.122 7
  21687209.173    21687217.076   -11023238.034 9  -9886385.465 7
 90  2 28  5 23 14.0800000  0  4G 6G 9G11G13
  20713069.665    20713075.138     4871555.911 8  -6268037.654 8
  20617555.724    20617559.785    -7643129.798 9  -7345428.522 7
  20752735.620    20752739.511     -285529.044 7  -1499935.515 8
  21680966.974    21680973.718   -11056042.009 8  -9911946.974 7
 90  2 28  5 23 29.0800000  0  4G 6G 9G11G13
  20716875.349    20716878.915     4891545.786 8  -6252461.130 7
  20613959.023    20613964.672    -7662025.572 8  -7360152.502 8
  20754943.495    20754948.701     -273924.516 8  -1490893.039 8
  21674745.001    21674751.187   -11088738.898 8  -9937425.043 7
 90  2 28  5 23 44.0800000  0  4G 6G 9G11G13
  20720705.959    20720709.539     4911678.494 9  -6236773.313 7
  20610386.991    20610392.869    -7680791.789 8  -7374775.507 7
  20757170.278    20757176.349     -262215.392 8  -1481769.043 8
  21668541.959    21668549.289   -11121328.688 9  -9962819.657 7
 90  2 28  5 23 59.0800000  0  4G 6G 9G11G13
  20724563.266    20724569.354     4931953.675 9  -6220974.486 8
  20606842.175    20606845.190    -7699428.422 8  -7389297.541 6
  20759419.046    20759425.110     -250402.235 9  -1472563.990 7
  21662360.366    21662369.400   -11153811.537 9  -9988130.940 7
 90  2 28  5 24 14.0800000  0  4G 6G 9G11G13
  20728450.860    20728455.570     4952371.555 8  -6205064.463 7
  20603321.083    20603322.825    -7717934.830 8  -7403718.122 7
  20761687.354    20761691.836     -238485.084 8  -1463277.897 8
  21656199.722    21656206.810   -11186187.282 8 -10013358.753 7
 90  2 28  5 24 29.0800000  0  4G 6G 9G11G13
  20732362.259    20732367.381     4972932.047 9  -6189043.293 7
  20599823.173    20599827.190    -7736310.913 9  -7418037.146 7
  20763973.340    20763978.399     -226464.187 8  -1453910.957 7
  21650060.714    21650066.636   -11218455.961 8 -10038503.152 7
 90  2 28  5 24 44.0800000  0  4G 6G 9G11G13
  20736302.002    20736306.992     4993635.275 7  -6172910.914 8
  20596351.448    20596355.837    -7754556.214 8  -7432254.262 7
  20766280.139    20766286.389     -214339.632 7  -1444463.252 7
  21643940.980    21643945.922   -11250617.059 7 -10063563.723 6
 90  2 28  5 24 59.0800000  0  4G 6G 9G11G13
  20740269.652    20740273.568     5014481.001 8  -6156667.498 8
  20592903.791    20592908.639    -7772670.840 9  -7446369.531 8
  20768606.871    20768613.110     -202112.003 8  -1434935.242 8
  21637840.406    21637846.299   -11282671.054 8 -10088540.835 7
 90  2 28  5 25 14.0800000  0  4G 6G 9G11G13
  20744262.921    20744268.870     5035469.410 9  -6140312.902 8
  20589482.778    20589487.168    -7790654.087 8  -7460382.438 7
  20770953.937    20770961.123     -189781.236 8  -1425326.846 7
  21631760.981    21631769.122   -11314617.392 8 -10113434.071 7
 90  2 28  5 25 29.0800000  0  4G 6G 9G11G13
  20748284.130    20748288.758     5056600.347 9  -6123847.241 8
  20586085.261    20586089.736    -7808505.743 8  -7474292.822 7
  20773319.121    20773325.388     -177347.685 8  -1415638.376 6
  21625701.862    21625710.616   -11346456.213 9 -10138243.515 6
 90  2 28  5 25 44.0800000  0  4G 6G 9G11G13
  20752332.111    20752336.747     5077873.745 8  -6107270.592 7
  20582713.987    20582717.833    -7826225.739 8  -7488100.602 7
  20775705.766    20775711.872     -164811.555 8  -1405869.957 7
  21619662.903    21619669.941   -11378187.418 8 -10162969.073 7
 90  2 28  5 25 59.0800000  0  4G 6G 9G11G13
  20756407.684    20756411.726     5099289.890 8  -6090582.693 8
  20579366.351    20579371.013    -7843813.330 7  -7501805.212 6
  20778110.429    20778117.358     -152172.874 8  -1396021.642 7
  21613645.308    21613652.840   -11409810.559 8 -10187610.456 8
 90  2 28  5 26 14.0800000  0  4G 6G 9G11G13
  20760510.437    20760515.820     5120848.304 9  -6073783.940 7
  20576044.759    20576047.517    -7861268.642 8  -7515406.744 8
  20780534.864    20780541.303     -139432.268 8  -1386093.907 7
  21607649.299    21607656.330   -11441326.092 8 -10212167.985 6
 90  2 28  5 26 29.0800000  0  4G 6G 9G11G13
  20764638.156    20764645.310     5142549.216 8  -6056874.138 8
  20572748.293    20572753.298    -7878591.310 8  -7528904.917 7
  20782979.965    20782984.752     -126589.749 8  -1376086.748 7
  21601673.237    21601678.271   -11472733.651 8 -10236641.377 7
 90  2 28  5 26 44.0800000  0  4G 6G 9G11G13
  20768797.009    20768801.905     5164392.431 8  -6039853.474 8
  20569477.355    20569480.857    -7895780.987 8  -7542299.470 7
  20785442.491    20785448.716     -113645.863 8  -1366000.598 7
  21595714.989    21595723.079   -11504033.346 9 -10261030.725 7
 90  2 28  5 26 59.0800000  0  4G 6G 9G11G13
  20772979.407    20772984.890     5186377.902 9  -6022721.929 7
  20566230.456    20566236.019    -7912837.647 8  -7555590.369 7
  20787923.809    20787931.175     -100600.901 8  -1355835.695 7
  21589779.658    21589786.710   -11535225.393 8 -10285336.178 7
 90  2 28  5 27 14.0800000  0  4G 6G 9G11G13
  20777190.405    20777196.457     5208505.508 8  -6005479.646 8
  20563010.344    20563016.365    -7929760.946 9  -7568777.340 7
  20790425.954    20790432.790      -87454.890 8  -1345592.059 8
  21583865.490    21583873.021   -11566309.501 9 -10309557.546 8
 90  2 28  5 27 29.0800000  0  4G 6G 9G11G13
  20781428.219    20781432.432     5230775.581 9  -5988126.344 8
  20559813.928    20559820.507    -7946550.178 8  -7581859.870 7
  20792947.248    20792953.912      -74207.827 8  -1335269.678 7
  21577971.305    21577977.785   -11597285.263 8 -10333694.481 7
 90  2 28  5 27 44.0800000  0  4G 6G 9G11G13
  20785693.643    20785697.588     5253187.951 9  -5970662.191 7
  20556645.931    20556649.733    -7963205.306 8  -7594837.870 8
  20795488.360    20795494.438      -60860.172 8  -1324868.900 8
  21572097.668    21572102.330   -11628152.531 8 -10357746.857 7
 90  2 28  5 27 59.0800000  0  4G 6G 9G11G13
  20789984.952    20789990.793     5275742.632 9  -5953087.130 8
  20553501.829    20553506.018    -7979726.165 9  -7607711.277 7
  20798046.111    20798053.415      -47412.103 8  -1314389.900 7
  21566243.477    21566250.665   -11658911.373 9 -10381714.759 7
 90  2 28  5 28 14.0800000  0  4G 6G 9G11G13
  20794305.223    20794309.286     5298439.511 8  -5935401.255 8
  20550385.487    20550389.004    -7996112.134 8  -7620479.540 8
  20800624.788    20800630.469      -33863.860 8  -1303832.814 8
  21560411.201    21560416.872   -11689561.771 8 -10405598.160 6
 90  2 28  5 28 29.0800000  0  4G 6G 9G11G13
  20798649.894    20798654.183     5321278.271 9  -5917604.828 7
  20547291.983    20547295.528    -8012363.340 7  -7633142.815 7
  20803222.117    20803227.201      -20215.832 8  -1293197.998 8
  21554598.599    21554605.265   -11720104.013 8 -10429397.267 8
 90  2 28  5 28 44.0800000  0  4G 6G 9G11G13
  20803022.837    20803027.959     5344259.077 9  -5899697.722 8
  20544224.293    20544229.870    -8028479.422 8  -7645700.812 7
  20805838.296    20805842.130       -6468.410 8  -1282485.722 8
  21548808.606    21548814.485   -11750537.923 9 -10453111.981 6
 90  2 28  5 28 59.0800000  0  4G 6G 9G11G13
  20807423.626    20807427.617     5367381.662 9  -5881680.116 8
  20541183.332    20541187.707    -8044460.222 9  -7658153.345 8
  20808472.929    20808477.036        7378.119 8  -1271696.221 8
  21543036.772    21543043.366   -11780863.446 8 -10476742.241 7
 90  2 28  5 29 14.0800000  0  4G 6G 9G11G13
  20811850.550    20811856.487     5390646.095 9  -5863551.997 7
  20538169.358    20538172.417    -8060305.446 9  -7670500.281 7
  20811126.233    20811132.136       21323.693 8  -1260829.543 8
  21537287.017    21537293.912   -11811080.429 8 -10500287.929 7
 90  2 28  5 29 29.0800000  0  4G 6G 9G11G13
  20816304.841    20816309.690     5414052.769 9  -5845313.039 8
  20535180.512    20535186.675    -8076014.366 9  -7682740.992 7
  20813799.476    20813805.071       35368.322 8  -1249885.688 8
  21531557.359    21531564.898   -11841188.604 9 -10523748.832 7
 90  2 28  5 29 44.0800000  0  4G 6G 9G11G13
  20820786.029    20820791.236     5437601.295 9  -5826963.541 7
  20532217.879    20532221.825    -8091586.865 8  -7694875.411 6
  20816490.209    20816495.303       49511.533 8  -1238865.002 7
  21525849.837    21525854.278   -11871188.038 8 -10547124.971 7
 90  2 28  5 29 59.0800000  0  4G 6G 9G11G13
  20825294.791    20825299.262     5461291.747 9  -5808503.477 8
  20529278.399    20529283.690    -8107022.800 8  -7706903.409 7
  20819200.535    20819206.011       63753.223 8  -1227767.576 8
  21520160.838    21520166.231   -11901078.466 9 -10570416.179 7
 90  2 28  5 30 14.0800000  0  4G 6G 9G11G13
  20829828.856    20829833.791     5485123.765 9  -5789933.081 8
  20526367.023    20526370.410    -8122322.037 8  -7718824.880 6
  20821930.288    20821935.289       78092.808 9  -1216593.883 7
  21514494.685    21514499.161   -11930860.267 9 -10593622.747 6
 90  2 28  5 30 29.0800000  0  4G 6G 9G11G13
  20834391.492    20834396.177     5509097.481 9  -5771252.282 7
  20523481.030    20523487.409    -8137484.106 9  -7730639.463 7
  20824676.606    20824681.871       92530.241 8  -1205343.935 8
  21508848.227    21508852.210   -11960533.193 9 -10616744.478 7
 90  2 28  5 30 44.0800000  0  4G 6G 9G11G13
  20838981.108    20838984.974     5533212.954 9  -5752461.025 7
  20520622.512    20520626.643    -8152508.656 8  -7742346.897 8
  20827442.407    20827448.864      107065.332 7  -1194017.881 7
  21503221.867    21503227.588   -11990097.157 9 -10639781.321 6
 90  2 28  5 30 59.0800000  0  4G 6G 9G11G13
  20843596.702    20843600.862     5557469.968 9  -5733559.465 8
  20517790.379    20517796.414    -8167395.657 8  -7753947.160 7
  20830226.991    20830232.890      121697.723 7  -1182616.020 7
  21497616.506    21497622.012   -12019552.076 9 -10662733.192 6
 90  2 28  5 31 14.0800000  0  4G 6G 9G11G13
  20848239.019    20848244.717     5581868.452 8  -5714547.655 7
  20514984.318    20514989.466    -8182144.850 8  -7765440.033 6
  20833029.203    20833036.790      136427.097 8  -1171138.593 8
  21492032.451    21492038.186   -12048897.756 9 -10685599.934 6
 90  2 28  5 31 29.0800000  0  4G 6G 9G11G13
  20852909.869    20852912.980     5606408.450 9  -5695425.606 7
  20512203.069    20512208.116    -8196755.709 8  -7776825.100 7
  20835850.682    20835857.243      151253.248 9  -1159585.758 7
  21486469.302    21486474.980   -12078134.071 8 -10708381.475 7
 90  2 28  5 31 44.0800000  0  4G 6G 9G11G13
  20857606.776    20857611.057     5631089.799 9  -5676193.403 7
  20509448.636    20509455.028    -8211228.140 8  -7788102.294 7
  20838690.631    20838696.981      166176.015 8  -1147957.622 7
  21480925.556    21480931.471   -12107261.232 9 -10731077.925 7
 90  2 28  5 31 59.0800000  0  4G 6G 9G11G13
  20862330.727    20862335.652     5655912.541 9  -5656851.000 8
  20506721.418    20506727.653    -8225561.839 9  -7799271.409 7
  20841548.714    20841555.246      181194.938 9  -1136254.563 8
  21475403.932    21475409.975   -12136279.276 9 -10753689.369 7
 90  2 28  5 32 14.0800000  0  4G 6G 9G11G13
  20867080.405    20867084.890     5680876.684 9  -5637398.415 7
  20504020.615    20504026.493    -8239756.360 8  -7810332.072 7
  20844425.605    20844430.814      196310.052 9  -1124476.538 7
  21469903.236    21469908.578   -12165187.961 9 -10776215.579 7
 90  2 28  5 32 29.0800000  0  4G 6G 9G11G13
  20871857.379    20871863.306     5705981.712 8  -5617836.083 7
  20501345.483    20501350.302    -8253811.954 8  -7821284.486 6
  20847321.031    20847325.821      211520.723 9  -1112624.075 8
  21464421.814    21464429.130   -12193987.503 9 -10798656.764 7
 90  2 28  5 32 44.0800000  0  4G 6G 9G11G13
  20876659.658    20876666.208     5731227.913 8  -5598163.727 7
  20498697.538    20498700.869    -8267728.084 8  -7832128.210 7
  20850231.603    20850238.400      226826.914 9  -1100697.164 8
  21458962.957    21458967.863   -12222677.447 9 -10821012.555 7
 90  2 28  5 32 59.0800000  0  4G 6G 9G11G13
  20881491.011    20881496.712     5756615.068 8  -5578381.540 8
  20496075.865    20496080.813    -8281504.496 8  -7842863.065 7
  20853163.145    20853169.996      242228.308 9  -1088696.080 7
  21453523.253    21453528.002   -12251258.218 9 -10843283.246 7
 90  2 28  5 33 14.0800000  0  4G 6G 9G11G13
  20886348.667    20886355.867     5782143.234 8  -5558489.490 7
  20493480.235    20493486.314    -8295140.805 8  -7853488.741 7
  20856111.766    20856116.455      257724.815 7  -1076620.883 8
  21448105.156    21448112.688   -12279729.403 8 -10865468.570 6
 90  2 28  5 33 29.0800000  0  4G 6G 9G11G13
  20891233.965    20891238.857     5807812.448 8  -5538487.525 8
  20490913.681    20490917.055    -8308636.789 8  -7864005.099 8
  20859078.211    20859084.572      273316.197 7  -1064471.755 8
  21442707.536    21442715.039   -12308091.001 8 -10887568.487 7
 90  2 28  5 33 44.0800000  0  4G 6G 9G11G13
  20896146.206    20896150.445     5833622.383 9  -5518375.891 7
  20488373.142    20488375.256    -8321992.295 8  -7874411.967 6
  20862064.754    20862070.013      289001.947 8  -1052249.092 8
  21437331.873    21437339.626   -12336342.988 9 -10909583.000 7
 90  2 28  5 33 59.0800000  0  4G 6G 9G11G13
  20901084.702    20901088.472     5859573.049 9  -5498154.605 8
  20485857.014    20485860.902    -8335206.946 7  -7884709.097 7
  20865066.694    20865071.409      304781.831 9  -1039953.085 8
  21431977.631    21431984.418   -12364485.259 9 -10931512.010 7
 90  2 28  5 34 14.0800000  0  4G 6G 9G11G13
  20906050.865    20906054.177     5885664.271 8  -5477823.797 7
  20483369.475    20483374.651    -8348280.788 8  -7894896.501 7
  20868086.617    20868093.049      320655.652 8  -1027583.875 7
  21426643.150    21426648.757   -12392517.994 9 -10953355.690 6
 90  2 28  5 34 29.0800000  0  4G 6G 9G11G13
  20911041.121    20911046.579     5911896.063 9  -5457383.439 6
  20480907.407    20480913.957    -8361213.285 8  -7904973.760 7
  20871125.471    20871131.502      336623.131 8  -1015141.694 7
  21421329.503    21421334.409   -12420441.117 9 -10975113.949 7
 90  2 28  5 34 44.0800000  0  4G 6G 9G11G13
  20916059.473    20916063.582     5938268.274 8  -5436833.648 7
  20478473.156    20478478.261    -8374004.299 8  -7914940.789 7
  20874182.465    20874187.330      352684.056 8  -1002626.704 7
  21416036.239    21416043.091   -12448254.435 8 -10996786.656 6
 90  2 28  5 34 59.0800000  0  4G 6G 9G11G13
  20921104.947    20921108.477     5964780.850 9  -5416174.519 7
  20476065.634    20476071.011    -8386653.638 8  -7924797.402 7
  20877255.948    20877263.160      368838.046 8   -990039.169 7
  21410764.146    21410769.116   -12475958.145 9 -11018373.933 6
 90  2 28  5 35 14.0800000  0  4G 6G 9G11G13
  20926176.014    20926180.721     5991433.743 9  -5395406.049 7
  20473687.332    20473691.493    -8399160.955 8  -7934543.363 7
  20880347.288    20880353.219      385084.992 9   -977379.219 7
  21405513.338    21405518.687   -12503551.982 8 -11039875.620 7
 90  2 28  5 35 29.0800000  0  4G 6G 9G11G13
  20931275.643    20931278.782     6018226.664 8  -5374528.455 7
  20471335.073    20471338.962    -8411526.155 8  -7944178.590 8
  20883457.799    20883461.548      401424.428 9   -964647.199 8
  21400283.722    21400289.636   -12531035.955 8 -11061291.676 7
 90  2 28  5 35 44.0800000  0  4G 6G 9G11G13
  20936401.027    20936405.530     6045160.016 8  -5353541.433 7
  20469007.626    20469012.129    -8423748.664 8  -7953702.600 7
  20886584.883    20886588.446      417856.281 8   -951843.155 7
  21395074.668    21395079.352   -12558409.941 8 -11082622.030 6
 90  2 28  5 35 59.0800000  0  4G 6G 9G11G13
  20941551.821    20941557.741     6072233.320 9  -5332445.383 8
  20466708.796    20466712.270    -8435828.453 8  -7963115.418 7
  20889728.491    20889733.724      434380.339 8   -938967.255 7
  21389887.114    21389892.077   -12585674.050 9 -11103866.763 7
 90  2 28  5 36 14.0800000  0  4G 6G 9G11G13
  20946730.973    20946736.237     6099446.701 8  -5311240.171 8
  20464437.957    20464441.516    -8447765.062 9  -7972416.673 7
  20892889.942    20892896.145      450996.281 8   -926019.780 7
  21384718.247    21384723.955   -12612828.202 9 -11125025.828 7
 90  2 28  5 36 29.0800000  0  4G 6G 9G11G13
  20951935.752    20951941.671     6126800.044 8  -5289925.880 7
  20462193.646    20462198.092    -8459558.271 8  -7981606.178 7
  20896070.711    20896075.626      467703.962 8   -913000.810 7
  21379573.098    21379579.120   -12639872.247 8 -11146099.082 7
 90  2 28  5 36 44.0800000  0  4G 6G 9G11G13
  20957167.661    20957174.339     6154292.997 8  -5268502.804 7
  20459977.524    20459980.454    -8471208.057 8  -7990683.928 7
  20899266.698    20899272.307      484502.808 8   -899910.798 7
  21374446.573    21374453.238   -12666806.256 8 -11167086.597 7
 90  2 28  5 36 59.0800000  0  4G 6G 9G11G13
  20962426.239    20962431.036     6181925.679 8  -5246970.868 8
  20457788.160    20457790.976    -8482714.146 7  -7999649.714 7
  20902481.154    20902486.259      501392.659 8   -886749.886 7
  21369342.391    21369349.701   -12693630.137 9 -11187988.320 8
 90  2 28  5 37 14.0800000  0  4G 6G 9G11G13
  20967711.433    20967717.488     6209697.861 8  -5225330.218 7
  20455624.725    20455628.084    -8494076.343 7  -8008503.364 7
  20905712.056    20905717.078      518373.312 8   -873518.195 8
  21364260.059    21364264.121   -12720343.856 9 -11208804.187 8
 90  2 28  5 37 29.0800000  0  4G 6G 9G11G13
  20973023.226    20973027.618     6237609.617 9  -5203580.816 7
  20453491.253    20453493.911    -8505294.247 8  -8017244.580 7
  20908960.836    20908965.916      535444.504 8   -860215.983 9
  21359196.473    21359203.668   -12746947.729 9 -11229534.458 7
 90  2 28  5 37 44.0800000  0  4G 6G 9G11G13
  20978360.773    20978365.956     6265660.525 8  -5181722.980 7
  20451381.277    20451386.911    -8516367.921 8  -8025873.421 8
  20912225.299    20912232.755      552605.843 8   -846843.521 9
  21354154.908    21354162.153   -12773441.660 9 -11250179.077 7
 90  2 28  5 37 59.0800000  0  4G 6G 9G11G13
  20983724.778    20983731.180     6293850.674 8  -5159756.658 7
  20449302.409    20449307.686    -8527296.984 8  -8034389.551 6
  20915509.939    20915514.815      569857.048 8   -833401.036 8
  21349133.848    21349141.222   -12799825.543 8 -11270737.924 8
 90  2 28  5 38 14.0800000  0  4G 6G 9G11G13
  20989115.369    20989120.613     6322179.801 9  -5137682.014 7
  20447249.699    20447255.447    -8538081.293 8  -8042792.912 8
  20918809.613    20918814.464      587197.680 8   -819888.852 7
  21344134.460    21344140.030   -12826099.428 9 -11291211.068 7
 90  2 28  5 38 29.0800000  0  4G 6G 9G11G13
  20994532.254    20994537.017     6350647.856 8  -5115499.123 7
  20445226.092    20445230.682    -8548720.414 8  -8051083.127 7
  20922125.014    20922130.101      604627.732 8   -806307.010 8
  21339157.215    21339161.835   -12852263.030 8 -11311598.256 7
 90  2 28  5 38 44.0800000  0  4G 6G 9G11G13
  20999976.812    20999982.660     6379254.885 9  -5093207.954 7
  20443229.130    20443234.464    -8559214.289 8  -8059260.171 6
  20925460.165    20925464.293      622147.038 8   -792655.605 7
  21334198.700    21334204.257   -12878316.196 8 -11331899.418 6
 90  2 28  5 38 59.0800000  0  4G 6G 9G11G13
  21005446.683    21005451.572     6408000.887 9  -5070808.498 7
  20441259.699    20441264.890    -8569562.463 8  -8067323.683 7
  20928810.126    20928815.055      639755.211 9   -778934.949 8
  21329260.434    21329267.743   -12904259.110 8 -11352114.649 6
 90  2 28  5 39 14.0800000  0  4G 6G 9G11G13
  21010943.584    21010948.202     6436885.470 8  -5048301.018 7
  20439319.058    20439323.204    -8579764.814 7  -8075273.572 7
  20932176.778    20932183.947      657452.074 8   -765145.208 8
  21324346.429    21324351.348   -12930091.667 8 -11372243.895 7
 90  2 28  5 39 29.0800000  0  4G 6G 9G11G13
  21016465.566    21016471.103     6465908.701 9  -5025685.528 7
  20437406.405    20437410.609    -8589821.184 8  -8083109.702 7
  20935561.686    20935568.075      675237.325 9   -751286.580 8
  21319451.847    21319458.020   -12955813.757 9 -11392287.068 6
 90  2 28  5 39 44.0800000  0  4G 6G 9G11G13
  21022015.462    21022020.919     6495070.433 9  -5002962.126 7
  20435520.225    20435523.183    -8599731.420 8  -8090831.950 7
  20938962.680    20938969.541      693110.591 9   -737359.359 7
  21314577.336    21314582.785   -12981425.766 9 -11412244.448 7
 90  2 28  5 39 59.0800000  0  4G 6G 9G11G13
  21027590.963    21027594.704     6524370.339 8  -4980131.029 7
  20433660.516    20433666.623    -8609495.120 8  -8098440.041 7
  20942380.592    20942386.315      711071.556 8   -723363.814 8
  21309724.616    21309731.275   -13006927.464 9 -11432115.892 7
 90  2 28  5 40 14.0800000  0  4G 6G 9G11G13
  21033193.706    21033198.001     6553808.609 9  -4957192.138 6
  20431831.487    20431836.134    -8619112.113 8  -8105933.791 6
  20945815.045    20945822.099      729120.118 9   -709300.008 8
  21304893.211    21304899.740   -13032318.837 9 -11451901.346 7
 90  2 28  5 40 29.0800000  0  4G 6G 9G11G13
  21038821.336    21038827.048     6583384.940 9  -4934145.664 8
  20430030.017    20430034.006    -8628582.167 8  -8113313.022 7
  20949266.207    20949273.455      747256.069 8   -695168.111 8
  21300081.866    21300089.555   -13057599.947 8 -11471600.905 7
 90  2 28  5 40 44.0800000  0  4G 6G 9G11G13
  21044475.141    21044483.347     6613099.220 9  -4910991.680 7
  20428255.792    20428259.294    -8637905.165 8  -8120577.707 7
  20952734.061    20952740.973      765478.879 9   -680968.520 7
  21295290.991    21295297.514   -13082770.787 9 -11491214.533 7
 90  2 28  5 40 59.0800000  0  4G 6G 9G11G13
  21050157.772    21050160.672     6642951.510 9  -4887730.177 7
  20426508.439    20426513.644    -8647080.755 8  -8127727.510 7
  20956218.933    20956223.912      783788.504 8   -666701.288 8
  21290522.711    21290529.140   -13107831.254 8 -11510742.153 8
 90  2 28  5 41 14.0800000  0  4G 6G 9G11G13
  21055863.699    21055868.631     6672941.661 8  -4864361.226 7
  20424789.934    20424796.026    -8656108.796 7  -8134762.326 7
  20959719.523    20959725.723      802184.630 8   -652366.660 8
  21285774.492    21285780.084   -13132781.473 9 -11530183.853 6
 90  2 28  5 41 29.0800000  0  4G 6G 9G11G13
  21061597.349    21061601.791     6703069.357 8  -4840885.112 8
  20423101.135    20423104.995    -8664988.993 8  -8141681.968 8
  20963236.873    20963242.557      820666.876 9   -637964.914 8
  21281049.160    21281054.882   -13157621.353 9 -11549539.581 7
 90  2 28  5 41 44.0800000  0  4G 6G 9G11G13
  21067356.048    21067360.054     6733334.442 9  -4817301.946 7
  20421439.380    20421442.910    -8673721.225 7  -8148486.305 7
  20966770.575    20966776.044      839235.164 9   -623496.128 8
  21276342.488    21276347.916   -13182350.682 9 -11568809.171 6
 90  2 28  5 41 59.0800000  0  4G 6G 9G11G13
  21073142.374    21073145.825     6763736.764 9  -4793611.841 7
  20419805.728    20419810.189    -8682305.510 8  -8155175.344 7
  20970319.948    20970325.615      857888.917 9   -608960.724 7
  21271657.744    21271663.437   -13206969.712 9 -11587992.821 6
 90  2 28  5 42 14.0800000  0  4G 6G 9G11G13
  21078952.232    21078958.427     6794276.334 8  -4769814.804 7
  20418200.151    20418206.057    -8690741.386 8  -8161748.748 7
  20973885.942    20973892.013      876628.032 8   -594358.829 7
  21266994.407    21266999.398   -13231478.432 9 -11607090.504 6
 90  2 28  5 42 29.0800000  0  4G 6G 9G11G13
  21084790.468    21084795.650     6824953.169 9  -4745910.809 7
  20416624.319    20416627.446    -8699028.504 8  -8168206.246 7
  20977468.005    20977473.210      895452.431 9   -579690.476 8
  21262350.909    21262357.232   -13255876.623 9 -11626102.067 7
 90  2 28  5 42 44.0800000  0  4G 6G 9G11G13
  21090653.781    21090659.662     6855766.750 9  -4721900.223 8
  20415076.522    20415078.672    -8707166.855 8  -8174547.820 7
  20981066.166    20981072.730      914361.677 9   -564956.006 8
  21257728.855    21257735.263   -13280164.601 9 -11645027.755 8
 90  2 28  5 42 59.0800000  0  4G 6G 9G11G13
  21096543.928    21096548.982     6886717.082 8  -4697783.104 8
  20413554.972    20413559.580    -8715156.242 8  -8180773.304 8
  20984679.866    20984685.916      933355.202 8   -550155.864 7
  21253129.193    21253134.364   -13304342.280 9 -11663867.476 7
 90  2 28  5 43 14.0800000  0  4G 6G 9G11G13
  21102459.806    21102466.230     6917804.258 8  -4673559.327 7
  20412062.875    20412068.254    -8722996.623 7  -8186882.692 7
  20988309.765    20988315.957      952432.904 9   -535290.137 8
  21248549.522    21248554.900   -13328409.704 9 -11682621.295 6
 90  2 28  5 43 29.0800000  0  4G 6G 9G11G13
  21108400.846    21108407.410     6949027.951 8  -4649229.186 8
  20410599.963    20410602.528    -8730687.550 8  -8192875.620 8
  20991956.434    20991963.113      971594.612 8   -520358.953 8
  21243990.456    21243995.748   -13352366.866 9 -11701289.196 6
 90  2 28  5 43 44.0800000  0  4G 6G 9G11G13
  21114367.955    21114373.607     6980387.966 9  -4624792.842 7
  20409163.339    20409168.382    -8738228.737 7  -8198751.874 7
  20995619.044    20995624.363      990840.007 8   -505362.551 7
  21239452.303    21239457.574   -13376213.651 9 -11719871.092 7
 90  2 28  5 43 59.0800000  0  4G 6G 9G11G13
  21120361.411    21120365.631     7011883.979 8  -4600250.534 7
  20407758.197    20407763.284    -8745620.042 8  -8204511.321 7
  20999297.021    20999302.870     1010168.653 8   -490301.278 7
  21234933.997    21234939.411   -13399950.142 9 -11738367.038 7
 90  2 28  5 44 14.0800000  0  4G 6G 9G11G13
  21126381.620    21126387.075     7043516.331 8  -4575601.967 8
  20406380.301    20406383.943    -8752861.439 7  -8210153.970 7
  21002990.939    21002997.389     1029580.421 8   -475175.230 8
  21230439.007    21230444.800   -13423576.162 9 -11756776.918 7
 90  2 28  5 44 29.0800000  0  4G 6G 9G11G13
  21132426.070    21132431.557     7075284.776 9  -4550847.358 7
  20405030.715    20405033.144    -8759952.646 7  -8215679.582 7
  21006700.683    21006706.876     1049075.253 9   -459984.475 7
  21225962.784    21225970.374   -13447091.921 9 -11775100.866 7
 90  2 28  5 44 44.0800000  0  4G 6G 9G11G13
  21138497.875    21138501.344     7107188.963 8  -4525986.950 7
  20403708.510    20403712.874    -8766893.612 7  -8221088.115 7
  21010427.112    21010432.660     1068652.699 9   -444729.321 7
  21221510.630    21221515.872   -13470497.418 9 -11793338.902 6
 90  2 28  5 44 59.0800000  0  4G 6G 9G11G13
  21144594.067    21144600.083     7139228.763 8  -4501020.899 7
  20402416.404    20402419.814    -8773683.791 7  -8226379.167 7
  21014167.477    21014173.741     1088312.577 9   -429409.935 8
  21217076.855    21217083.464   -13493792.343 9 -11811490.774 7
 90  2 28  5 45 14.0800000  0  4G 6G 9G11G13
  21150718.151    21150724.067     7171404.268 9  -4475949.093 8
  20401153.339    20401157.771    -8780323.001 7  -8231552.588 6
  21017924.585    21017930.105     1108054.635 9   -414026.528 7
  21212665.245    21212671.439   -13516976.845 9 -11829556.600 5
 90  2 28  5 45 29.0800000  0  4G 6G 9G11G13
  21156866.443    21156872.480     7203715.199 8  -4450771.775 7
  20399919.651    20399924.770    -8786811.394 8  -8236608.475 7
  21021697.203    21021702.852     1127878.440 9   -398579.414 8
  21208273.561    21208280.513   -13540050.954 9 -11847536.398 7
 90  2 28  5 45 44.0800000  0  4G 6G 9G11G13
  21163041.009    21163047.022     7236161.338 9  -4425489.076 8
  20398714.023    20398719.464    -8793148.617 8  -8241546.576 7
  21025483.616    21025491.397     1147783.700 8   -383068.847 7
  21203903.727    21203909.677   -13563014.936 8 -11865430.401 7
 90  2 28  5 45 59.0800000  0  4G 6G 9G11G13
  21169241.186    21169246.583     7268742.551 9  -4400101.130 8
  20397536.859    20397541.628    -8799334.375 8  -8246366.644 7
  21029288.373    21029293.578     1167770.137 9   -367494.993 7
  21199555.679    21199561.951   -13585868.750 9 -11883238.544 7
 90  2 28  5 46 14.0800000  0  4G 6G 9G11G13
  21175468.210    21175472.784     7301458.542 8  -4374608.176 8
  20396388.150    20396392.897    -8805368.711 8  -8251068.733 7
  21033106.981    21033111.557     1187837.470 8   -351858.121 8
  21195226.440    21195233.778   -13608612.440 8 -11900960.891 7
 90  2 28  5 46 29.0800000  0  4G 6G 9G11G13
  21181719.009    21181722.139     7334309.139 9  -4349010.310 7
  20395267.980    20395272.763    -8811251.415 8  -8255652.648 7
  21036940.128    21036947.007     1207985.390 9   -336158.459 7
  21190919.709    21190926.461   -13631245.856 9 -11918597.312 7
 90  2 28  5 46 44.0800000  0  4G 6G 9G11G13
  21187995.973    21188000.347     7367294.504 9  -4323307.426 7
  20394179.000    20394182.821    -8816982.185 7  -8260118.184 7
  21040790.617    21040796.166     1228213.773 9   -320396.082 8
  21186634.021    21186640.715   -13653768.879 9 -11936147.697 7
 90  2 28  5 46 59.0800000  0  4G 6G 9G11G13
  21194298.163    21194303.528     7400414.720 9  -4297499.468 7
  20393116.926    20393119.261    -8822560.707 8  -8264465.070 6
  21044655.215    21044660.392     1248522.677 9   -304570.966 8
  21182369.710    21182375.080   -13676181.454 9 -11953612.024 7
 90  2 28  5 47 14.0800000  0  4G 6G 9G11G13
  21200626.167    21200631.951     7433669.113 9  -4271586.992 6
  20392084.675    20392086.689    -8827986.933 8  -8268693.307 7
  21048534.895    21048539.456     1268911.240 9   -288683.772 7
  21178125.582    21178130.831   -13698483.952 9 -11970990.578 7
 90  2 28  5 47 29.0800000  0  4G 6G 9G11G13
  21206979.753    21206984.395     7467057.472 9  -4245570.090 7
  20391080.280    20391083.193    -8833260.880 8  -8272802.878 7
  21052429.972    21052435.806     1289379.289 9   -272734.655 7
  21173900.657    21173908.696   -13720676.320 8 -11988283.324 7
 90  2 28  5 47 44.0800000  0  4G 6G 9G11G13
  21213359.588    21213364.041     7500579.682 9  -4219448.891 7
  20390106.769    20390110.361    -8838382.115 9  -8276793.468 7
  21056339.815    21056345.407     1309926.733 9   -256723.658 7
  21169698.991    21169705.364   -13742758.464 9 -12005490.150 8
 90  2 28  5 47 59.0800000  0  4G 6G 9G11G13
  21219761.589    21219768.728     7534235.792 8  -4193223.367 7
  20389160.942    20389163.869    -8843350.553 8  -8280664.958 7
  21060265.028    21060270.948     1330553.110 9   -240651.162 7
  21165518.790    21165524.576   -13764730.362 9 -12022611.079 7
 90  2 28  5 48 14.0800000  0  4G 6G 9G11G13
  21226192.555    21226196.160     7568025.467 8  -4166893.794 7
  20388244.127    20388247.858    -8848166.312 8  -8284417.499 7
  21064205.464    21064210.798     1351257.946 9   -224517.538 7
  21161358.350    21161364.000   -13786592.528 9 -12039646.500 7
 90  2 28  5 48 29.0800000  0  4G 6G 9G11G13
  21232647.825    21232652.811     7601948.468 8  -4140460.295 7
  20387357.898    20387361.300    -8852828.892 8  -8288050.693 7
  21068158.893    21068165.701     1372041.233 8   -208322.758 7
  21157219.294    21157226.389   -13808344.729 9 -12056596.243 7
 90  2 28  5 48 44.0800000  0  4G 6G 9G11G13
  21239128.440    21239133.677     7636004.525 9  -4113923.111 8
  20386497.730    20386502.470    -8857338.442 7  -8291564.617 7
  21072129.981    21072135.386     1392902.635 9   -192067.123 7
  21153100.622    21153105.320   -13829986.986 9 -12073460.299 7
 90  2 28  5 48 59.0800000  0  4G 6G 9G11G13
  21245635.242    21245639.344     7670193.834 9  -4087282.117 7
  20385669.611    20385673.456    -8861694.336 7  -8294958.839 7
  21076114.118    21076119.738     1413841.923 9   -175750.805 7
  21149003.464    21149009.593   -13851519.041 9 -12090238.506 6
 90  2 28  5 49 14.0800000  0  4G 6G 9G11G13
  21252166.444    21252170.653     7704516.135 9  -4060537.486 7
  20384870.786    20384874.900    -8865896.591 8  -8298233.303 8
  21080113.737    21080119.787     1434858.969 9   -159373.887 8
  21144925.652    21144933.327   -13872941.153 9 -12106931.031 6
 90  2 28  5 49 29.0800000  0  4G 6G 9G11G13
  21258723.380    21258726.917     7738971.395 9  -4033689.239 7
  20384099.248    20384102.618    -8869945.081 8  -8301387.972 7
  21084127.924    21084133.873     1455953.372 9   -142936.709 8
  21140870.913    21140877.408   -13894253.220 9 -12123537.807 7
 90  2 28  5 49 44.0800000  0  4G 6G 9G11G13
  21265305.988    21265310.677     7773559.490 9  -4006737.499 6
  20383359.045    20383362.797    -8873839.239 8  -8304422.369 6
  21088157.249    21088163.370     1477125.062 9   -126439.302 8
  21136836.781    21136844.455   -13915454.971 9 -12140058.618 7
 90  2 28  5 49 59.0800000  0  4G 6G 9G11G13
  21271912.914    21271916.548     7808279.610 9  -3979682.880 8
  20382647.237    20382650.994    -8877579.566 8  -8307336.906 7
  21092200.340    21092204.930     1498373.288 9   -109882.244 8
  21132824.268    21132829.481   -13936547.010 9 -12156493.946 7
 90  2 28  5 50 14.0800000  0  4G 6G 9G11G13
  21278543.987    21278549.542     7843131.970 8  -3952525.206 7
  20381965.548    20381969.132    -8881165.555 8  -8310131.186 7
  21096258.226    21096263.188     1519697.958 9    -93265.638 8
  21128830.437    21128835.221   -13957529.408 9 -12172843.852 7
 90  2 28  5 50 29.0800000  0  4G 6G 9G11G13
  21285202.222    21285207.208     7878116.655 9  -3925264.419 7
  20381310.938    20381315.607    -8884597.130 8  -8312805.143 7
  21100331.052    21100336.586     1541098.879 9    -76589.597 8
  21124857.883    21124863.598   -13978401.979 8 -12189108.155 7
 90  2 28  5 50 44.0800000  0  4G 6G 9G11G13
  21291883.882    21291889.955     7913232.954 9  -3897901.071 8
  20380688.860    20380690.388    -8887874.058 8  -8315358.599 6
  21104417.271    21104424.308     1562575.750 9    -59854.377 7
  21120907.308    21120911.892   -13999164.754 9 -12205286.932 6
 90  2 28  5 50 59.0800000  0  4G 6G 9G11G13
  21298591.799    21298597.264     7948481.040 9  -3870435.093 7
  20380094.246    20380097.544    -8890996.111 7  -8317791.365 7
  21108519.058    21108524.077     1584128.376 9    -43060.135 7
  21116976.380    21116982.710   -14019817.504 9 -12221379.971 6
 90  2 28  5 51 14.0800000  0  4G 6G 9G11G13
  21305324.489    21305329.543     7983860.805 9  -3842866.471 8
  20379530.489    20379533.551    -8893963.247 8  -8320103.424 7
  21112633.638    21112639.930     1605756.389 9    -26207.142 7
  21113067.960    21113072.251   -14040360.395 9 -12237387.407 7
 90  2 28  5 51 29.0800000  0  4G 6G 9G11G13
  21312081.847    21312085.173     8019371.784 8  -3815195.605 7
  20378993.948    20378998.083    -8896775.493 8  -8322294.773 7
  21116764.129    21116770.221     1627459.298 8     -9295.779 7
  21109179.867    21109184.222   -14060793.560 9 -12253309.319 7
 90  2 28  5 51 44.0800000  0  4G 6G 9G11G13
  21318864.379    21318869.412     8055013.970 8  -3787422.497 7
  20378489.438    20378493.509    -8899432.541 7  -8324365.199 7
  21120907.757    21120913.791     1649236.984 9      7673.833 7
  21105313.230    21105317.320   -14081117.075 9 -12269145.822 7
 90  2 28  5 51 59.0800000  0  4G 6G 9G11G13
  21325671.062    21325677.758     8090787.043 9  -3759547.414 7
  20378013.647    20378017.496    -8901934.242 8  -8326314.569 6
  21125068.011    21125072.429     1671089.437 9     24701.716 8
  21101465.939    21101471.245   -14101330.925 9 -12284896.858 8
 90  2 28  5 52 14.0800000  0  4G 6G 9G11G13
  21332504.335    21332508.966     8126691.002 8  -3731570.316 7
  20377566.309    20377570.158    -8904280.324 8  -8328142.689 7
  21129238.740    21129244.904     1693016.232 8     41787.510 8
  21097640.255    21097644.538   -14121434.962 9 -12300562.339 8
 90  2 28  5 52 29.0800000  0  4G 6G 9G11G13
  21339362.491    21339366.418     8162725.655 9  -3703491.366 7
  20377149.103    20377154.050    -8906470.620 9  -8329849.407 7
  21133424.722    21133431.501     1715017.111 9     58931.062 7
  21093835.949    21093842.529   -14141429.547 8 -12316142.535 7
 90  2 28  5 52 44.0800000  0  4G 6G 9G11G13
  21346243.591    21346247.869     8198890.604 9  -3675310.934 7
  20376761.160    20376766.075    -8908505.239 7  -8331434.816 7
  21137626.102    21137631.979     1737091.553 9     76131.932 8
  21090051.804    21090054.785   -14161314.879 9 -12331637.582 6
 90  2 28  5 52 59.0800000  0  4G 6G 9G11G13
  21353149.548    21353155.975     8235185.559 8  -3647029.164 7
  20376404.965    20376407.215    -8910384.017 8  -8332898.794 7
  21141841.904    21141847.754     1759239.286 9     93389.898 7
  21086286.891    21086292.691   -14181090.686 9 -12347047.315 7
 90  2 28  5 53 14.0800000  0  4G 6G 9G11G13
  21360080.416    21360086.049     8271610.636 9  -3618646.000 7
  20376076.472    20376080.042    -8912106.764 7  -8334241.210 7
  21146069.842    21146075.777     1781460.172 9    110704.862 7
  21082544.372    21082550.072   -14200757.020 9 -12362371.723 7
 90  2 28  5 53 29.0800000  0  4G 6G 9G11G13
  21367036.759    21367042.442     8308165.305 8  -3590161.878 7
  20375778.340    20375782.339    -8913673.471 8  -8335462.022 7
  21150312.488    21150318.123     1803753.739 8    128076.461 7
  21078823.210    21078828.480   -14220314.212 9 -12377611.075 7
 90  2 28  5 53 44.0800000  0  4G 6G 9G11G13
  21374018.671    21374023.478     8344849.546 8  -3561576.779 7
  20375510.258    20375515.041    -8915083.850 8  -8336561.019 7
  21154569.302    21154573.419     1826119.828 8    145504.587 8
  21075123.718    21075129.325   -14239762.044 9 -12392765.236 6
 90  2 28  5 53 59.0800000  0  4G 6G 9G11G13
  21381024.348    21381029.920     8381663.370 9  -3532890.704 8
  20375270.951    20375277.454    -8916337.668 7  -8337538.016 7
  21158839.422    21158843.597     1848558.341 8    162989.124 7
  21071443.294    21071448.192   -14259100.368 9 -12407834.049 6
 90  2 28  5 54 14.0800000  0  4G 6G 9G11G13
  21388054.715    21388057.898     8418606.337 9  -3504104.021 7
  20375063.417    20375066.050    -8917434.689 7  -8338392.829 7
  21163121.934    21163126.982     1871068.952 9    180529.858 8
  21067783.997    21067788.917   -14278329.423 9 -12422817.731 6
 90  2 28  5 54 29.0800000  0  4G 6G 9G11G13
  21395108.199    21395113.804     8455678.597 9  -3475216.563 7
  20374883.830    20374887.998    -8918374.925 8  -8339125.467 7
  21167419.042    21167424.777     1893651.529 9    198126.674 8
  21064146.278    21064150.941   -14297449.225 9 -12437716.272 7
 90  2 28  5 54 44.0800000  0  4G 6G 9G11G13
  21402187.264    21402193.534     8492879.712 9  -3446228.712 7
  20374734.142    20374739.965    -8919157.949 8  -8339735.610 7
  21171730.287    21171736.594     1916305.731 9    215779.287 8
  21060528.392    21060533.362   -14316459.864 9 -12452529.763 7
 90  2 28  5 54 59.0800000  0  4G 6G 9G11G13
  21409290.401    21409296.006     8530209.333 9  -3417140.737 7
  20374615.715    20374619.278    -8919784.208 7  -8340223.612 7
  21176053.066    21176061.089     1939030.971 8    233487.264 7
  21056931.734    21056937.191   -14335361.559 9 -12467258.340 7
 90  2 28  5 55 14.0800000  0  4G 6G 9G11G13
  21416418.335    21416423.389     8567667.413 8  -3387952.638 8
  20374526.347    20374530.490    -8920253.311 8  -8340589.142 6
  21180392.128    21180399.093     1961827.096 9    251250.469 8
  21053354.393    21053361.868   -14354154.230 9 -12481901.970 6
 90  2 28  5 55 29.0800000  0  4G 6G 9G11G13
  21423571.053    21423575.775     8605253.824 9  -3358664.541 8
  20374467.519    20374469.937    -8920564.998 8  -8340832.029 8
  21184743.868    21184749.474     1984694.042 8    269068.862 8
  21049800.283    21049804.495   -14372837.871 9 -12496460.626 7
 90  2 28  5 55 44.0800000  0  4G 6G 9G11G13
  21430747.808    21430755.340     8642968.362 8  -3329276.639 7
  20374439.280    20374441.329    -8920719.288 7  -8340952.246 7
  21189108.143    21189115.237     2007631.355 8    286942.087 8
  21046266.750    21046269.452   -14391412.460 9 -12510934.333 6
 90  2 28  5 55 59.0800000  0  4G 6G 9G11G13
  21437949.803    21437955.758     8680810.532 8  -3299789.263 8
  20374439.949    20374441.305    -8920716.193 8  -8340949.848 7
  21193485.926    21193493.335     2030638.533 8    304869.769 8
  21042752.620    21042755.944   -14409878.377 9 -12525323.341 6
 90  2 28  5 56 14.0800000  0  4G 6G 9G11G13
  21445174.332    21445181.604     8718780.019 8  -3270202.668 8
  20374469.905    20374472.820    -8920555.559 8  -8340824.667 8
  21197877.274    21197882.823     2053715.393 9    322851.733 7
  21039257.814    21039263.221   -14428235.668 9 -12539627.733 7
 90  2 28  5 56 29.0800000  0  4G 6G 9G11G13
  21452424.359    21452428.687     8756876.881 9  -3240516.836 8
  20374528.856    20374533.932    -8920237.346 8  -8340576.695 7
  21202282.588    21202288.265     2076861.915 9    340887.969 8
  21035785.310    21035791.425   -14446483.971 9 -12553847.190 7
 90  2 28  5 56 44.0800000  0  4G 6G 9G11G13
  21459698.981    21459703.509     8795100.987 8  -3210731.873 7
  20374620.381    20374624.001    -8919761.182 8  -8340205.671 7
  21206701.152    21206706.185     2100077.712 9    358978.191 7
  21032333.231    21032339.254   -14464623.543 9 -12567981.920 7
 90  2 28  5 56 59.0800000  0  4G 6G 9G11G13
  21466996.877    21467001.862     8833451.934 9  -3180848.055 8
  20374742.478    20374744.259    -8919126.912 7  -8339711.433 6
  21211132.480    21211137.756     2123362.327 9    377122.040 8
  21028901.945    21028908.210   -14482654.504 9 -12582032.007 7
 90  2 28  5 57 14.0800000  0  3G 6G11G13
  21474319.420    21474324.656     8871929.601 9  -3150865.485 7
  21215576.210    21215581.892     2146715.550 7    395319.348 6
  21025491.284    21025498.179   -14500576.889 8 -12595997.494 7
 90  2 28  5 57 29.0800000  0  3G 6G11G13
  21481663.534    21481670.777     8910533.750 8  -3120784.351 7
  21220031.488    21220037.931     2170137.201 8    413569.980 7
  21022101.809    21022107.773   -14518390.684 8 -12609878.363 7
 90  2 28  5 57 44.0800000  0  4G 6G12G11G13
  21489034.661    21489039.951     8949264.387 9  -3090604.651 8
                  20374857.890   -35363222.998 1
  21224503.680    21224508.441     2193627.258 9    431873.909 8
  21018733.425    21018738.202   -14536095.834 8 -12623674.586 7
 90  2 28  5 57 59.0800000  0  4G 6G12G11G13
  21496427.698    21496434.584     8988121.376 8  -3060326.501 8
                  20374998.747   -35452721.525 1
  21228984.775    21228989.522     2217185.382 9    450230.880 9
  21015384.301    21015390.409   -14553692.440 9 -12637386.223 7
 90  2 28  5 58 14.0800000  0  4G 6G12G11G13
  21503847.015    21503853.714     9027104.140 8  -3029950.387 8
                  20374080.068   -35539114.136 1
  21233481.449    21233486.361     2240811.098 8    468640.552 8
  21012055.210    21012060.689   -14571180.835 8 -12651013.548 7
 90  2 28  5 58 29.0800000  0  4G 6G12G11G13
  21511288.302    21511293.278     9066212.612 9  -2999476.265 7
                  20392398.592   -35538876.543 1
  21237991.134    21237996.121     2264504.148 9    487102.666 7
  21008749.616    21008753.963   -14588560.850 9 -12664556.410 7
 90  2 28  5 58 44.0800000  0  4G 6G12G11G13
  21518755.501    21518757.807     9105446.251 9  -2968904.628 7
                  20412824.227   -35538502.450 1
  21242511.380    21242518.141     2288264.059 9    505616.882 8
  21005462.651    21005468.158   -14605832.737 8 -12678015.022 6
 90  2 28  5 58 59.0800000  0  4G 6G12G11G13
  21526245.032    21526251.034     9144805.174 8  -2938235.370 7
                  20432601.055   -35537991.857 1
  21247046.635    21247050.528     2312090.598 9    524183.024 8
  21002196.006    21002201.355   -14622996.680 9 -12691389.500 8
 90  2 28  5 59 14.0800000  0  4G 6G12G11G13
  21533758.206    21533764.361     9184289.060 9  -2907468.744 7
                  20454133.839   -35537344.763 1
  21251593.152    21251598.053     2335983.561 9    542800.924 7
  20998950.023    20998955.801   -14640052.762 9 -12704679.941 6
 90  2 28  5 59 29.0800000  0  4G 6G12G11G13
  21541296.822    21541302.312     9223897.739 8  -2876604.846 7
                  20474519.709   -35536561.170 1
  21256151.997    21256155.623     2359942.732 9    561470.422 8
  20995725.790    20995730.810   -14657000.855 9 -12717886.237 7
 90  2 28  5 59 44.0800000  0  4G 6G12G11G13
  21548856.861    21548861.965     9263630.790 9  -2845644.066 8
                  20494668.092   -35535641.076 1
  21260722.911    21260728.978     2383967.744 9    580191.214 7
  20992519.901    20992526.567   -14673841.023 9 -12731008.437 6
 90  2 28  5 59 59.0800000  0  4G 6G12G11G13
  21556440.437    21556446.553     9303488.143 8  -2814586.399 8
                  20515399.257   -35534584.482 1
  21265307.705    21265312.419     2408058.309 9    598963.080 7
  20989335.991    20989343.101   -14690573.543 8 -12744046.764 8
 90  2 28  6  0 14.0800000  0  4G 6G12G11G13
  21564050.286    21564055.902     9343469.494 9  -2783432.134 7
                  20535687.084   -35533391.387 1
  21269904.239    21269909.834     2432214.212 8    617785.855 8
  20986173.145    20986178.509   -14707198.208 9 -12757001.048 6
 90  2 28  6  0 29.0800000  0  4G 6G12G11G13
  21571681.762    21571686.479     9383574.501 8  -2752181.508 7
                  20555796.486   -35532061.793 1
  21274513.559    21274519.369     2456435.080 9    636659.251 7
  20983028.815    20983034.893   -14723715.381 8 -12769871.567 7
 90  2 28  6  0 44.0800000  0  4G 6G12G11G13
  21579336.010    21579339.969     9423803.531 8  -2720834.239 8
                  20575813.851   -35530595.699 1
  21279133.976    21279139.735     2480720.986 9    655583.334 8
  20979905.690    20979912.614   -14740124.428 9 -12782657.813 7
 90  2 28  6  0 59.0800000  0  4G 6G12G11G13
  21587016.229    21587020.600     9464155.854 9  -2689390.883 7
                  20596531.941   -35528993.104 1
  21283768.530    21283774.068     2505071.228 9    674557.517 7
  20976803.915    20976811.526   -14756425.764 8 -12795360.153 7
 90  2 28  6  1 14.0800000  0  4G 6G12G11G13
  21594718.127    21594723.535     9504631.333 9  -2657851.590 8
                  20617158.348   -35527254.010 1
  21288414.389    21288419.776     2529485.719 9    693581.780 8
  20973722.316    20973727.923   -14772619.581 8 -12807978.695 7
 90  2 28  6  1 29.0800000  0  4G 6G12G11G13
  21602443.134    21602449.318     9545229.696 9  -2626216.539 8
                  20636872.991   -35525378.415 1
  21293073.533    21293078.141     2553964.248 9    712655.990 8
  20970661.895    20970667.802   -14788705.981 8 -12820513.534 6
 90  2 28  6  1 44.0800000  0  4G 6G12G11G13
  21610193.644    21610198.085     9585950.566 9  -2594486.021 7
                  20657024.147   -35523366.320 1
  21297743.374    21297748.719     2578506.357 9    731779.707 8
  20967621.278    20967627.572   -14804685.350 8 -12832964.988 7
 90  2 28  6  1 59.0800000  0  4G 6G12G11G13
  21617965.199    21617970.145     9626793.813 9  -2562660.120 7
                  20677991.833   -35521217.725 1
  21302425.356    21302431.523     2603111.853 9    750952.832 8
  20964600.979    20964606.858   -14820557.394 8 -12845332.787 6
 90  2 28  6  2 14.0800000  0  4G 6G12G11G13
  21625760.979    21625766.535     9667759.331 6  -2530738.972 6
                  21410887.661   -36957479.815 7
  21307119.150    21307125.454     2627780.434 7    770175.088 7
  20961601.391    20961606.588   -14836322.264 6 -12857617.096 5
 90  2 28  6  2 29.0800000  0  4G 6G12G11G13
  21633578.674    21633583.676     9708846.551 9  -2498722.987 7
                  22002801.751   -36997834.527 9
  21311826.273    21311832.277     2652511.794 9    789446.272 7
  20958621.970    20958627.088   -14851980.163 8 -12869818.041 8
 90  2 28  6  2 44.0800000  0  4G 6G12G11G13
  21641422.032    21641424.694     9750055.594 8  -2466612.065 8
                  21995167.720   -37038110.389 9
  21316543.614    21316549.431     2677305.788 9    808766.264 8
  20955661.956    20955667.647   -14867530.933 8 -12881935.513 6
 90  2 28  6  2 59.0800000  0  4G 6G12G11G13
  21649285.048    21649290.339     9791386.164 9  -2434406.460 7
  21987517.032    21987524.430   -37078307.634 9  47057131.217 7
  21321273.832    21321280.622     2702162.160 9    828134.858 8
  20952721.950    20952728.142   -14882974.934 8 -12893969.773 7
 90  2 28  6  3 14.0800000  0  4G 6G12G11G13
  21657173.753    21657180.307     9832837.952 8  -2402106.417 8
  21979884.323    21979889.596   -37118425.599 9  47025870.520 7
  21326014.982    21326020.299     2727080.635 8    847551.837 8
  20949803.712    20949810.688   -14898312.134 8 -12905920.853 7
 90  2 28  6  3 29.0800000  0  4G 6G12G11G13
  21665085.112    21665090.693     9874410.957 8  -2369711.905 8
  21972264.950    21972271.031   -37158463.837 9  46994671.907 8
  21330768.553    21330775.458     2752061.061 9    867017.094 7
  20946905.361    20946912.128   -14913542.493 8 -12917788.644 7
 90  2 28  6  3 44.0800000  0  4G 6G12G11G13
  21673018.779    21673025.573     9916104.663 8  -2337223.329 8
  21964660.773    21964666.268   -37198422.185 9  46963535.538 9
  21335534.058    21335540.104     2777102.894 9    886530.198 7
  20944028.648    20944034.206   -14928666.238 8 -12929573.344 7
 90  2 28  6  3 59.0800000  0  4G 6G12G11G13
  21680974.629    21680981.795     9957918.761 8  -2304640.925 7
  21957072.387    21957076.651   -37238300.398 8  46932461.624 8
  21340312.613    21340317.157     2802205.860 9    906090.940 7
  20941171.771    20941175.409   -14943683.516 8 -12941275.103 7
 90  2 28  6  4 14.0800000  0  4G 6G12G11G13
  21688954.654    21688960.057     9999852.900 9  -2271965.003 8
  21949498.510    21949504.448   -37278098.092 9  46901450.447 7
  21345100.697    21345105.613     2827369.707 9    925699.145 7
  20938333.976    20938339.015   -14958594.260 8 -12952893.847 7
 90  2 28  6  4 29.0800000  0  4G 6G12G11G13
  21696958.083    21696964.251    10041907.168 8  -2239195.468 8
  21941941.303    21941947.127   -37317814.659 9  46870502.502 8
  21349899.714    21349906.405     2852594.269 9    945354.627 7
  20935516.839    20935523.027   -14973398.532 8 -12964429.644 6
 90  2 28  6  4 44.0800000  0  4G 6G12G11G13
  21704984.002    21704990.069    10084080.999 9  -2206332.781 7
  21934398.663    21934404.387   -37357449.983 9  46839617.845 7
  21354710.493    21354717.284     2877879.175 8    965057.136 9
  20932719.868    20932725.140   -14988096.536 8 -12975882.606 6
 90  2 28  6  4 59.0800000  0  4G 6G12G11G13
  21713032.160    21713038.067    10126374.268 9  -2173377.027 7
  21926871.871    21926878.732   -37397003.726 8  46808796.781 7
  21359533.149    21359541.485     2903224.012 9    984806.352 9
  20929942.368    20929948.756   -15002688.532 8 -12987252.975 6
 90  2 28  6  5 14.0800000  0  4G 6G12G11G13
  21721102.888    21721106.934    10168786.889 8  -2140328.239 8
  21919360.024    21919366.292   -37436475.390 9  46778039.644 8
  21364367.796    21364375.302     2928628.714 9   1004602.208 8
  20927185.663    20927191.722   -15017174.406 8 -12998540.653 8
 90  2 28  6  5 29.0800000  0  4G 6G12G11G13
  21729195.963    21729201.920    10211318.289 9  -2107186.917 8
  21911864.019    21911870.200   -37475864.809 9  46747346.603 8
  21369213.003    21369219.379     2954092.839 8   1024444.374 8
  20924449.123    20924456.344   -15031554.107 8 -13009745.583 7
 90  2 28  6  5 44.0800000  0  4G 6G12G11G13
  21737311.643    21737319.525    10253968.415 9  -2073953.092 7
  21904385.548    21904391.551   -37515171.439 9  46716718.063 8
  21374070.888    21374077.020     2979616.249 9   1044332.732 7
  20921734.204    20921739.713   -15045827.958 8 -13020868.044 8
 90  2 28  6  5 59.0800000  0  4G 6G12G11G13
  21745450.855    21745456.010    10296736.949 9  -2040626.977 8
  21896921.158    21896927.504   -37554394.936 9  46686154.285 8
  21378939.018    21378944.535     3005198.590 9   1064267.008 8
  20919037.419    20919042.108   -15059996.110 9 -13031908.145 7
 90  2 28  6  6 14.0800000  0  4G 6G12G11G13
  21753612.722    21753617.662    10339623.819 9  -2007208.646 6
  21889473.853    21889479.005   -37593534.728 9  46655655.773 8
  21383818.739    21383825.758     3030839.792 8   1084247.151 8
  20916360.663    20916367.784   -15074058.471 8 -13042865.811 8
 90  2 28  6  6 29.0800000  0  4G 6G12G11G13
  21761794.793    21761801.222    10382628.800 9  -1973698.300 8
  21882042.346    21882047.611   -37632590.616 9  46625222.639 7
  21388709.649    21388714.322     3056539.476 9   1104272.859 8
  20913706.000    20913709.956   -15088015.104 8 -13053741.084 6
 90  2 28  6  6 44.0800000  0  4G 6G12G11G13
  21770001.473    21770007.415    10425751.273 9  -1940096.430 7
  21874625.813    21874631.536   -37671562.528 9  46594854.929 8
  21393609.575    21393617.124     3082297.149 8   1124343.764 7
  20911069.907    20911075.022   -15101866.219 8 -13064534.146 7
 90  2 28  6  6 59.0800000  0  4G 6G12G11G13
  21778229.816    21778236.367    10468991.304 9  -1906402.940 8
  21867226.451    21867230.808   -37710449.666 9  46564553.261 8
  21398522.665    21398527.867     3108112.968 9   1144459.984 8
  20908453.586    20908458.901   -15115611.767 8 -13075244.952 8
 90  2 28  6  7 14.0800000  0  4G 6G12G11G13
  21786480.275    21786486.303    10512348.721 9  -1872617.977 7
  21859841.677    21859846.263   -37749251.646 9  46534317.974 9
  21403446.057    21403453.091     3133986.540 9   1164621.197 8
  20905858.631    20905862.694   -15129251.900 9 -13085873.619 7
 90  2 28  6  7 29.0800000  0  4G 6G12G11G13
  21794753.134    21794758.544    10555822.509 9  -1838742.330 8
  21852474.110    21852479.197   -37787968.748 9  46504148.809 8
  21408381.813    21408388.331     3159916.887 8   1184826.659 8
  20903282.004    20903288.546   -15142787.141 9 -13096420.559 8
 90  2 28  6  7 44.0800000  0  4G 6G12G11G13
  21803048.570    21803054.205    10599412.836 9  -1804775.863 7
  21845122.906    21845128.250   -37826600.236 9  46474046.360 7
  21413326.468    21413331.899     3185904.219 9   1205076.517 8
  20900725.978    20900732.652   -15156217.461 9 -13106885.717 7
 90  2 28  6  7 59.0800000  0  4G 6G12G11G13
  21811365.266    21811371.219    10643119.417 9  -1770718.845 8
  21837787.792    21837793.087   -37865145.659 9  46444010.972 7
  21418282.629    21418288.861     3211948.221 9   1225370.513 9
  20898192.006    20898196.871   -15169543.054 9 -13117269.269 8
 90  2 28  6  8 14.0800000  0  4G 6G12G11G13
  21819705.046    21819711.389    10686942.136 9  -1736571.306 8
  21830470.186    21830475.881   -37903604.567 9  46414042.989 9
  21423249.178    21423256.040     3238048.846 9   1245708.645 7
  20895675.656    20895681.175   -15182763.643 9 -13127571.015 7
 90  2 28  6  8 29.0800000  0  4G 6G12G11G13
  21828065.242    21828071.055    10730880.802 9  -1702333.440 8
  21823167.540    21823172.433   -37941976.648 9  46384142.671 8
  21428227.060    21428234.065     3264205.898 9   1266090.758 8
  20893180.308    20893184.343   -15195879.404 9 -13137791.089 7
 90  2 28  6  8 44.0800000  0  4G 6G12G11G13
  21836449.108    21836455.337    10774935.009 9  -1668005.505 7
  21815882.301    21815887.152   -37980261.656 9  46354310.205 8
  21433215.616    21433220.990     3290418.954 9   1286516.508 8
  20890704.121    20890709.321   -15208890.420 9 -13147929.535 8
 90  2 28  6  8 59.0800000  0  4G 6G12G11G13
  21844855.391    21844860.664    10819104.637 9  -1633587.660 8
  21808612.029    21808618.011   -38018458.954 9  46324546.091 7
  21438214.017    21438220.164     3316687.965 9   1306985.848 8
  20888247.533    20888253.281   -15221796.485 9 -13157986.183 7
 90  2 28  6  9 14.0800000  0  4G 6G12G11G13
  21853282.102    21853287.526    10863389.613 9  -1599079.923 8
  21801360.388    21801365.296   -38056568.074 9  46294850.682 8
  21443222.721    21443229.655     3343012.849 8   1327498.762 7
  20885811.454    20885817.087   -15234597.680 9 -13167961.124 7
 90  2 28  6  9 29.0800000  0  4G 6G12G11G13
  21861729.527    21861735.913    10907789.286 9  -1564482.815 8
  21794125.511    21794132.773   -38094588.985 9  46265224.009 7
  21448242.844    21448249.420     3369392.781 9   1348054.523 8
  20883394.793    20883400.576   -15247294.457 9 -13177854.702 7
 90  2 28  6  9 44.0800000  0  4G 6G12G11G13
  21870201.549    21870206.708    10952303.461 9  -1529796.461 6
  21786906.838    21786913.098   -38132521.301 9  46235666.344 7
  21453272.525    21453280.217     3395827.513 9   1368653.000 8
  20880999.298    20881005.468   -15259886.772 8 -13187666.896 8
 90  2 28  6  9 59.0800000  0  4G 6G12G11G13
  21878693.307    21878700.197    10996931.777 9  -1495021.167 8
  21779705.623    21779712.198   -38170364.655 9  46206178.024 8
  21458314.226    21458320.358     3422316.805 9   1389294.008 7
  20878622.677    20878628.153   -15272375.159 9 -13197398.107 8
 90  2 28  6 10 14.0800000  0  4G 6G12G11G13
  21887206.146    21887213.651    11041673.963 8  -1460157.184 7
  21772521.356    21772527.982   -38208118.810 9  46176759.203 8
  21463366.115    21463371.173     3448860.292 8   1409977.218 7
  20876266.497    20876270.510   -15284759.797 9 -13207048.466 7
 90  2 28  6 10 29.0800000  0  4G 6G12G11G13
  21895744.444    21895749.277    11086529.304 9  -1425205.017 7
  21765354.741    21765360.700   -38245783.694 9  46147409.941 9
  21468426.875    21468433.065     3475457.543 9   1430702.332 7
  20873929.269    20873934.112   -15297040.980 9 -13216618.233 6
 90  2 28  6 10 44.0800000  0  4G 6G12G11G13
  21904300.594    21904307.345    11131497.827 9  -1390164.658 7
  21758203.343    21758209.810   -38283358.778 9  46118130.661 8
  21473498.253    21473503.470     3502108.476 9   1451469.279 8
  20871612.379    20871617.235   -15309218.538 9 -13226107.241 8
 90  2 28  6 10 59.0800000  0  4G 6G12G11G13
  21912879.964    21912886.063    11176579.525 8  -1355036.079 7
  21751071.269    21751076.921   -38320843.320 9  46088921.948 8
  21478580.191    21478585.894     3528813.042 9   1472278.025 8
  20869314.165    20869319.204   -15321292.193 8 -13235515.274 7
 90  2 28  6 11 14.0800000  0  4G 6G12G11G13
  21921480.975    21921486.578    11221774.157 9  -1319819.528 7
  21743955.587    21743959.958   -38358236.883 9  46059784.101 8
  21483673.405    21483678.092     3555571.052 8   1493128.416 7
  20867035.877    20867041.346   -15333262.205 9 -13244842.549 7
 90  2 28  6 11 29.0800000  0  4G 6G12G11G13
  21930102.003    21930107.881    11267081.242 9  -1284515.362 7
  21736856.589    21736862.456   -38395539.284 9  46030717.306 8
  21488775.119    21488779.377     3582382.123 8   1514020.149 7
  20864778.251    20864783.277   -15345128.752 9 -13254089.222 8
 90  2 28  6 11 44.0800000  0  4G 6G12G11G13
  21938744.390    21938750.243    11312500.583 9  -1249123.699 8
  21729775.664    21729780.637   -38432750.232 9  46001721.771 8
  21493886.047    21493892.953     3609245.885 8   1534952.927 8
  20862540.068    20862545.466   -15356892.035 9 -13263255.412 7
 90  2 28  6 11 59.0800000  0  4G 6G12G11G13
  21947409.994    21947414.770    11358032.030 9  -1213644.690 8
  21722711.982    21722718.771   -38469869.387 9  45972797.773 8
  21499007.279    21499013.096     3636162.088 9   1555926.588 7
  20860320.609    20860326.299   -15368552.062 9 -13272341.152 7
 90  2 28  6 12 14.0800000  0  4G 6G12G11G13
  21956095.448    21956098.919    11403675.021 8  -1178078.749 7
  21715666.143    21715670.865   -38506896.501 9  45943945.491 8
  21504139.242    21504144.244     3663130.387 8   1576940.844 6
  20858121.204    20858126.869   -15380108.957 8 -13281346.510 7
 90  2 28  6 12 29.0800000  0  4G 6G12G11G13
  21964801.537    21964806.134    11449429.379 8  -1142426.032 9
  21708637.804    21708644.958   -38543831.110 9  45915165.287 8
  21509281.737    21509288.098     3690150.649 8   1597995.568 8
  20855942.540    20855949.429   -15391562.770 9 -13290271.553 7
 90  2 28  6 12 44.0800000  0  4G 6G12G11G13
  21973528.230    21973535.886    11495295.144 8  -1106686.534 8
  21701625.820    21701632.853   -38580672.481 9  45886457.717 8
  21514433.504    21514438.807     3717222.913 9   1619090.820 7
  20853782.639    20853786.762   -15402913.326 8 -13299116.134 7
 90  2 28  6 12 59.0800000  0  4G 6G12G11G13
  21982277.979    21982285.513    11541271.771 8  -1070860.656 8
  21694634.785    21694640.344   -38617420.587 9  45857822.845 8
  21519595.345    21519601.320     3744346.633 8   1640226.171 8
  20851642.266    20851647.925   -15414161.159 8 -13307880.670 7
 90  2 28  6 13 14.0800000  0  4G 6G12G11G13
  21991047.954    21991054.201    11587358.851 9  -1034948.694 8
  21687658.682    21687665.114   -38654075.150 9  45829260.835 7
  21524766.687    21524772.819     3771521.561 8   1661401.419 7
  20849522.356    20849526.076   -15425306.409 9 -13316565.258 8
 90  2 28  6 13 29.0800000  0  4G 6G12G11G13
  21999839.386    21999846.745    11633556.221 9   -998950.790 8
  21680701.617    21680708.106   -38690635.788 9  45800772.032 7
  21529947.473    21529952.761     3798747.206 8   1682616.202 8
  20847419.874    20847424.875   -15436349.124 9 -13325169.944 7
 90  2 28  6 13 44.0800000  0  4G 6G12G11G13
  22008651.649    22008658.328    11679863.420 8   -962867.292 8
  21673762.153    21673767.111   -38727102.250 9  45772356.623 8
  21535136.816    21535143.077     3826023.160 8   1703870.163 7
  20845337.247    20845342.894   -15447289.598 9 -13333694.967 8
 90  2 28  6 13 59.0800000  0  4G 6G12G11G13
  22017483.840    22017491.231    11726280.102 8   -926698.505 8
  21666841.011    21666846.585   -38763474.181 9  45744014.878 7
  21540336.204    21540343.882     3853349.308 9   1725163.239 7
  20843275.703    20843281.462   -15458127.737 9 -13342140.256 7
 90  2 28  6 14 14.0800000  0  4G 6G12G11G13
  22026338.139    22026345.330    11772806.185 9   -890444.440 8
  21659937.484    21659943.680   -38799750.942 9  45715747.300 7
  21545547.097    21545553.930     3880725.587 9   1746495.398 7
  20841233.324    20841238.102   -15468863.538 9 -13350505.804 7
 90  2 28  6 14 29.0800000  0  4G 6G12G11G13
  22035214.893    22035219.816    11819441.436 9   -854105.307 8
  21653053.239    21653058.090   -38835932.155 9  45687554.152 7
  21550766.919    21550771.777     3908151.800 8   1767866.457 7
  20839209.017    20839214.661   -15479497.220 9 -13358791.781 8
 90  2 28  6 14 44.0800000  0  4G 6G12G11G13
  22044108.293    22044114.890    11866185.482 8   -817681.447 8
  21646186.315    21646190.908   -38872017.578 9  45659435.642 8
  21555995.526    21556000.556     3935627.584 9   1789276.179 7
  20837205.197    20837209.782   -15490029.036 9 -13366998.378 8
 90  2 28  6 14 59.0800000  0  4G 6G12G11G13
  22053023.653    22053029.545    11913037.969 9   -781173.064 8
  21639338.129    21639343.795   -38908006.856 9  45631392.057 8
  21561231.889    21561238.823     3963152.545 8   1810724.186 8
  20835219.790    20835224.690   -15500459.173 9 -13375125.745 7
 90  2 28  6 15 14.0800000  0  4G 6G12G11G13
  22061960.537    22061966.698    11959998.605 9   -744580.410 8
  21632506.963    21632513.281   -38943899.754 9  45603423.568 7
  21566481.560    21566485.889     3990726.435 8   1832210.315 8
  20833254.830    20833259.090   -15510787.812 9 -13383174.036 7
 90  2 28  6 15 29.0800000  0  4G 6G12G11G13
  22070917.981    22070924.034    12007067.101 8   -707903.686 9
  21625695.452    21625701.619   -38979695.742 9  45575530.610 8
  21571736.066    21571742.357     4018349.117 9   1853734.456 8
  20831308.114    20831314.327   -15521015.011 8 -13391143.281 8
 90  2 28  6 15 44.0800000  0  4G 6G12G11G13
  22079893.776    22079901.310    12054243.230 8   -671143.106 8
  21618902.950    21618908.216   -39015394.352 9  45547713.513 8
  21577002.107    21577006.994     4046020.457 9   1875296.535 8
  20829381.725    20829386.146   -15531140.769 9 -13399033.474 6
 90  2 28  6 15 59.0800000  0  4G 6G12G11G13
  22088891.864    22088898.873    12101526.802 9   -634298.809 8
  21612128.013    21612133.114   -39050995.271 9  45519972.551 8
  21582276.962    21582282.808     4073739.989 9   1896896.142 7
  20827473.491    20827479.267   -15541165.264 9 -13406844.777 8
 90  2 28  6 16 14.0800000  0  4G 6G12G11G13
  22097911.245    22097916.619    12148917.522 8   -597370.991 8
  21605371.820    21605377.301   -39086498.119 9  45492308.002 7
  21587559.858    21587566.248     4101507.537 9   1918533.169 7
  20825585.944    20825591.566   -15551088.685 9 -13414577.314 7
 90  2 28  6 16 29.0800000  0  4G 6G12G11G13
  22106950.373    22106955.485    12196415.056 9   -560359.961 8
  21598634.809    21598638.601   -39121902.520 9  45464720.168 8
  21592853.859    21592858.904     4129322.749 9   1940207.334 7
  20823716.730    20823721.663   -15560910.854 9 -13422230.947 7
 90  2 28  6 16 44.0800000  0  4G 6G12G11G13
  22116007.487    22116013.963    12244019.131 9   -523265.923 8
  21591915.878    21591920.901   -39157208.169 9  45437209.280 8
  21598155.987    21598161.747     4157185.552 9   1961918.610 9
  20821865.987    20821872.224   -15570631.991 9 -13429805.840 7
 90  2 28  6 16 59.0800000  0  4G 6G12G11G13
  22125085.757    22125092.061    12291729.231 9   -486089.263 7
  21585214.962    21585221.495   -39192414.906 9  45409775.461 8
  21603467.416    21603472.361     4185095.406 9   1983666.538 8
  20820035.165    20820041.621   -15580252.540 9 -13437302.359 8
 90  2 28  6 17 14.0800000  0  4G 6G12G11G13
  22134185.316    22134191.427    12339545.068 9   -448830.215 8
  21578533.678    21578540.389   -39227522.217 8  45382419.130 7
  21608787.030    21608792.991     4213052.115 9   2005450.985 8
  20818223.017    20818229.323   -15589772.455 9 -13444720.478 7
 90  2 28  6 17 29.0800000  0  4G 6G12G11G13
  22143304.604    22143310.901    12387466.283 8   -411489.052 7
  21571873.501    21571878.066   -39262530.036 9  45355140.326 8
  21614116.031    21614121.376     4241055.400 9   2027271.719 8
  20816431.950    20816437.136   -15599192.085 9 -13452060.427 7
 90  2 28  6 17 44.0800000  0  4G 6G12G11G13
  22152442.458    22152450.997    12435492.923 9   -374065.742 8
  21565230.937    21565235.895   -39297437.733 9  45327939.521 7
  21619453.903    21619459.392     4269105.153 9   2049128.657 8
  20814657.950    20814663.018   -15608511.251 8 -13459322.114 8
 90  2 28  6 17 59.0800000  0  4G 6G12G11G13
  22161603.739    22161610.339    12483624.598 9   -336560.597 8
  21558607.513    21558612.564   -39332244.994 9  45300816.987 9
  21624799.617    21624805.306     4297201.148 8   2071021.627 8
  20812903.339    20812909.112   -15617730.131 9 -13466505.646 7
 90  2 28  6 18 14.0800000  0  4G 6G12G11G13
  22170784.173    22170788.753    12531860.588 9   -298974.138 8
  21552001.446    21552008.650   -39366951.770 9  45273772.755 7
  21630155.920    21630160.879     4325342.897 9   2092950.230 7
  20811167.176    20811174.165   -15626849.147 9 -13473611.362 6
 90  2 28  6 18 29.0800000  0  4G 6G12G11G13
  22179981.124    22179986.895    12580200.960 9   -261306.342 8
  21545417.872    21545424.776   -39401557.319 9  45246807.417 8
  21635519.263    21635525.152     4353530.338 9   2114914.464 8
  20809451.976    20809458.049   -15635868.001 9 -13480639.021 7
 90  2 28  6 18 44.0800000  0  4G 6G12G11G13
  22189200.115    22189206.787    12628645.369 9   -223557.507 7
  21538851.470    21538858.009   -39436061.356 9  45219921.180 7
  21640891.563    21640896.479     4381763.141 9   2136914.042 8
  20807754.537    20807760.740   -15644787.247 9 -13487589.069 7
 90  2 28  6 18 59.0800000  0  4G 6G12G11G13
  22198438.004    22198444.222    12677193.487 9   -185727.842 9
  21532305.787    21532311.232   -39470463.488 9  45193114.331 7
  21646273.765    21646279.254     4410041.037 9   2158948.748 8
  20806077.039    20806081.810   -15653606.857 9 -13494461.490 7
 90  2 28  6 19 14.0800000  0  4G 6G12G11G13
  22207695.690    22207703.467    12725845.098 9   -147817.541 8
  21525777.912    21525784.044   -39504763.312 9  45166387.211 7
  21651663.008    21651668.740     4438363.928 8   2181018.529 8
  20804417.652    20804422.294   -15662326.828 9 -13501256.267 7
 90  2 28  6 19 29.0800000  0  4G 6G12G11G13
  22216974.865    22216979.895    12774599.678 9   -109826.986 7
  21519270.371    21519276.881   -39538960.666 9  45139739.946 8
  21657061.751    21657066.825     4466731.243 9   2203122.901 8
  20802777.081    20802780.629   -15670947.639 8 -13507973.776 8
 90  2 28  6 19 44.0800000  0  4G 6G12G11G13
  22226270.739    22226277.575    12823457.094 8    -71756.305 7
  21512783.256    21512788.836   -39573055.071 9  45113172.887 8
  21662467.078    21662472.852     4495143.059 9   2225261.954 7
  20801153.911    20801160.363   -15679469.049 9 -13514613.828 7
 90  2 28  6 19 59.0800000  0  4G 6G12G11G13
  22235587.626    22235594.537    12872417.019 9    -33605.759 7
  21506313.963    21506321.375   -39607046.238 9  45086686.285 7
  21667881.790    21667886.950     4523599.018 9   2247435.412 8
  20799551.929    20799557.358   -15687891.258 9 -13521176.592 6
 90  2 28  6 20 14.0800000  0  4G 6G12G11G13
  22244925.128    22244930.226    12921478.971 9      4624.298 8
  21499865.447    21499871.249   -39640933.955 9  45060280.285 8
  21673306.062    21673311.264     4552098.699 8   2269642.945 8
  20797967.662    20797974.275   -15696214.473 8 -13527662.185 7
 90  2 28  6 20 29.0800000  0  4G 6G12G11G13
  22254280.503    22254286.585    12970642.650 9     42933.640 7
  21493437.128    21493442.751   -39674717.863 9  45033955.175 8
  21678736.915    21678742.032     4580641.687 8   2291884.214 8
  20796402.529    20796408.668   -15704439.022 8 -13534070.909 7
 90  2 28  6 20 44.0800000  0  4G 6G12G11G13
  22263654.641    22263661.431    13019907.644 9     81321.908 7
  21487028.949    21487033.485   -39708397.722 9  45007711.147 8
  21684176.497    21684182.902     4609227.806 8   2314159.090 8
  20794857.155    20794862.581   -15712565.238 9 -13540403.015 7
 90  2 28  6 20 59.0800000  0  4G 6G12G11G13
  22273048.812    22273054.010    13069273.698 8    119788.922 8
  21480639.838    21480644.803   -39741973.149 9  44981548.474 8
  21689625.123    21689629.767     4637856.804 8   2336467.368 7
  20793330.246    20793334.119   -15720592.970 8 -13546658.372 7
 90  2 28  6 21 14.0800000  0  4G 6G12G11G13
  22282462.715    22282467.763    13118740.565 9    158334.499 7
  21474269.307    21474276.047   -39775443.755 9  44955467.478 8
  21695079.930    21695086.320     4666528.554 9   2358808.966 8
  20791820.308    20791826.163   -15728522.496 9 -13552837.224 7
 90  2 28  6 21 29.0800000  0  4G 6G12G11G13
  22291895.063    22291899.710    13168308.056 9    196958.484 8
  21467919.796    21467926.765   -39808809.016 9  44929468.600 9
  21700545.698    21700551.588     4695242.772 9   2381183.679 7
  20790330.103    20790336.269   -15736353.861 8 -13558939.580 7
 90  2 28  6 21 44.0800000  0  4G 6G12G11G13
  22301347.304    22301352.462    13217975.929 9    235660.678 7
  21461591.019    21461597.458   -39842068.516 9  44903552.110 8
  21706016.131    21706023.523     4723999.463 8   2403591.454 7
  20788858.527    20788864.722   -15744087.028 8 -13564965.442 7
 90  2 28  6 21 59.0800000  0  4G 6G12G11G13
  22310817.324    22310822.193    13267743.877 9    274440.864 8
  21455282.526    21455287.706   -39875221.849 9  44877718.355 8
  21711497.353    21711502.126     4752798.324 8   2426032.090 7
  20787404.820    20787411.252   -15751722.034 9 -13570914.796 7
 90  2 28  6 22 14.0800000  0  4G 6G12G11G13
  22320306.029    22320311.262    13317611.415 9    313298.666 8
  21448994.265    21449000.189   -39908268.922 9  44851967.397 8
  21716986.302    21716991.190     4781638.909 9   2448505.249 8
  20785970.882    20785977.167   -15759259.200 8 -13576787.910 7
 90  2 28  6 22 29.0800000  0  4G 6G12G11G13
  22329814.028    22329819.681    13367578.392 9    352233.949 7
  21442725.724    21442730.832   -39941209.072 9  44826299.746 8
  21722482.577    21722488.667     4810521.090 8   2471010.821 8
  20784555.038    20784559.723   -15766698.454 8 -13582584.732 7
 90  2 28  6 22 44.0800000  0  4G 6G12G11G13
  22339342.531    22339347.582    13417644.251 8    391246.268 8
  21436477.214    21436483.317   -39974042.283 9  44800715.439 8
  21727987.066    21727993.141     4839444.496 8   2493548.529 7
  20783157.964    20783163.922   -15774040.205 9 -13588305.556 6
 90  2 28  6 22 59.0800000  0  4G 6G12G11G13
  22348887.452    22348892.325    13467808.673 9    430335.392 8
  21430250.197    21430256.736   -40006768.173 9  44775214.756 8
  21733497.851    21733502.495     4868408.769 8   2516118.080 8
  20781780.607    20781783.633   -15781284.813 9 -13593950.696 6
 90  2 28  6 23 14.0800000  0  4G 6G12G11G13
  22358451.330    22358458.778    13518071.308 9    469501.040 8
  21424042.784    21424048.608   -40039386.491 9  44749797.899 8
  21739017.021    21739022.738     4897413.641 9   2538719.258 8
  20780420.712    20780423.619   -15788432.522 9 -13599520.337 7
 90  2 28  6 23 29.0800000  0  4G 6G12G11G13
  22368035.852    22368041.712    13568431.845 9    508742.977 8
  21417857.585    21417862.436   -40071896.948 9  44724465.075 7
  21744543.545    21744549.993     4926459.059 9   2561352.042 8
  20779079.053    20779083.112   -15795483.353 9 -13605014.477 7
 90  2 28  6 23 44.0800000  0  4G 6G12G11G13
  22377637.535    22377643.663    13618890.065 8    548061.035 8
  21411691.332    21411695.267   -40104299.031 9  44699216.719 7
  21750079.085    21750084.387     4955544.662 8   2584016.112 8
  20777755.350    20777760.296   -15802437.485 9 -13610433.275 6
 90  2 28  6 23 59.0800000  0  4G 6G12G11G13
  22387258.699    22387264.892    13669445.670 9    587454.967 9
  21405544.583    21405550.364   -40136592.252 9  44674053.186 8
  21755621.035    21755627.525     4984670.278 9   2606711.386 8
  20776450.469    20776455.308   -15809294.731 8 -13615776.561 8
 90  2 28  6 24 14.0800000  0  4G 6G12G11G13
  22396897.683    22396903.808    13720098.171 9    626924.401 8
  21399421.186    21399426.172   -40168776.427 9  44648974.590 7
  21761171.141    21761176.988     5013835.451 9   2629437.492 7
  20775164.198    20775168.064   -15816055.551 9 -13621044.734 7
 90  2 28  6 24 29.0800000  0  4G 6G12G11G13
  22406554.996    22406561.085    13770847.344 9    666469.177 8
  21393317.042    21393321.807   -40200851.160 9  44623981.306 7
  21766728.059    21766734.335     5043040.159 8   2652194.400 8
  20773895.381    20773900.552   -15822719.910 9 -13626237.736 7
 90  2 28  6 24 44.0800000  0  4G 6G12G11G13
  22416230.546    22416236.750    13821692.899 9    706089.044 8
  21387234.426    21387239.706   -40232816.008 9  44599073.636 7
  21772293.161    21772300.325     5072284.133 9   2674981.909 6
  20772644.822    20772651.882   -15829288.044 9 -13631355.773 8
 90  2 28  6 24 59.0800000  0  4G 6G12G11G13
  22425921.740    22425929.918    13872634.168 8    745783.497 7
  21381173.167    21381178.469   -40264671.044 9  44574251.529 8
  21777865.447    21777872.424     5101566.733 9   2697799.506 8
  20771412.714    20771418.662   -15835760.547 9 -13636399.265 8
 90  2 28  6 25 14.0800000  0  4G 6G12G11G13
  22435636.680    22435642.633    13923671.494 9    785552.803 7
  21375131.640    21375136.956   -40296415.325 9  44549515.723 6
  21783447.263    21783451.721     5130888.411 8   2720647.545 8
  20770200.060    20770207.507   -15842136.672 9 -13641367.680 6
 90  2 28  6 25 29.0800000  0  4G 6G12G11G13
  22445365.629    22445372.226    13974804.206 8    825396.441 8
  21369111.791    21369118.374   -40328048.568 9  44524866.429 7
  21789032.999    21789039.360     5160248.777 9   2743525.746 8
  20769005.719    20769010.590   -15848417.210 8 -13646261.601 7
 90  2 28  6 25 44.0800000  0  4G 6G12G11G13
  22455114.017    22455120.799    14026031.946 9    865314.116 7
  21363113.149    21363120.161   -40359570.696 9  44500303.749 8
  21794627.149    21794633.611     5189647.411 9   2766433.767 8
  20767827.260    20767832.575   -15854602.321 9 -13651081.177 7
 90  2 28  6 25 59.0800000  0  4G 6G12G11G13
  22464880.687    22464886.662    14077354.305 9    905305.528 8
  21357135.921    21357143.411   -40390981.402 9  44475827.886 8
  21800228.397    21800235.102     5219083.797 9   2789371.184 7
  20766668.706    20766674.940   -15860691.926 8 -13655826.315 7
 90  2 28  6 26 14.0800000  0  4G 6G12G11G13
  22474665.052    22474672.171    14128770.964 8    945370.421 8
  21351180.406    21351185.758   -40422280.305 8  44451439.145 8
  21805837.085    21805844.219     5248557.951 8   2812338.037 8
  20765528.220    20765534.719   -15866686.292 8 -13660497.242 8
 90  2 28  6 26 29.0800000  0  4G 6G12G11G13
  22484467.629    22484473.678    14180281.783 9    985508.680 8
  21345245.290    21345251.450   -40453467.111 9  44427137.732 7
  21811453.786    21811458.573     5278069.644 8   2835334.127 8
  20764406.355    20764409.952   -15872585.575 9 -13665094.085 7
 90  2 28  6 26 44.0800000  0  4G 6G12G11G13
  22494287.219    22494294.342    14231886.373 9   1025719.993 7
  21339331.966    21339338.162   -40484541.394 8  44402924.000 7
  21817077.328    21817081.557     5307618.637 9   2858359.311 8
  20763301.313    20763304.689   -15878389.983 9 -13669617.000 7
 90  2 28  6 26 59.0800000  0  4G 6G12G11G13
  22504125.243    22504132.215    14283584.286 9   1066004.051 8
  21333440.493    21333446.388   -40515503.010 9  44378798.068 8
  21822706.650    21822711.938     5337204.492 9   2881413.199 7
  20762214.036    20762220.242   -15884099.513 8 -13674065.965 6
 90  2 28  6 27 14.0800000  0  4G 6G12G11G13
  22513980.034    22513986.115    14335375.280 8   1106360.607 7
  21327569.917    21327575.484   -40546351.434 8  44354760.351 8
  21828344.357    21828349.287     5366827.161 8   2904495.787 8
  20761146.481    20761152.021   -15889714.269 8 -13678441.088 7
 90  2 28  6 27 29.0800000  0  4G 6G12G11G13
  22523853.462    22523860.077    14387258.992 9   1146789.419 8
  21321720.749    21321727.675   -40577086.408 9  44330811.022 7
  21833987.931    21833992.618     5396486.392 9   2927606.852 8
  20760096.340    20760101.165   -15895234.502 9 -13682742.566 7
 90  2 28  6 27 44.0800000  0  4G 6G12G11G13
  22533743.418    22533750.512    14439235.183 9   1187290.303 8
  21315894.439    21315900.735   -40607707.543 9  44306950.394 8
  21839638.259    21839645.006     5426182.007 8   2950746.278 7
  20759064.182    20759068.607   -15900660.539 8 -13686970.630 7
 90  2 28  6 27 59.0800000  0  4G 6G12G11G13
  22543653.897    22543659.728    14491303.415 9   1227862.910 8
  21310089.115    21310095.246   -40638214.596 9  44283178.677 7
  21845296.457    21845301.774     5455913.521 8   2973913.651 8
  20758049.568    20758054.128   -15905992.618 8 -13691125.513 7
 90  2 28  6 28 14.0800000  0  4G 6G12G11G13
  22553579.822    22553583.238    14543463.195 9   1268506.872 6
  21304306.091    21304312.250   -40668607.279 9  44259496.063 7
  21850961.437    21850965.853     5485680.720 9   2997108.891 8
  20757051.774    20757056.627   -15911231.002 9 -13695207.366 7
 90  2 28  6 28 29.0800000  0  4G 6G12G11G13
  22563523.312    22563526.524    14595714.171 9   1309221.894 7
  21298543.972    21298550.955   -40698885.470 9  44235902.669 8
  21856631.741    21856637.945     5515483.141 9   3020331.538 8
  20756073.104    20756078.647   -15916375.841 9 -13699216.318 8
 90  2 28  6 28 44.0800000  0  4G 6G12G11G13
  22573481.429    22573488.033    14648056.084 9   1350007.746 7
  21292804.319    21292809.821   -40729048.533 9  44212398.978 8
  21862309.457    21862317.321     5545320.859 8   3043581.663 7
  20755111.744    20755115.761   -15921427.016 8 -13703152.298 7
 90  2 28  6 28 59.0800000  0  4G 6G12G11G13
  22583460.356    22583464.413    14700488.764 9   1390864.341 8
  21287087.074    21287091.667   -40759096.055 9  44188985.327 7
  21867995.100    21868000.903     5575193.750 8   3066859.238 8
  20754168.829    20754174.144   -15926384.666 8 -13707015.404 7
 90  2 28  6 29 14.0800000  0  4G 6G12G11G13
  22593455.749    22593460.925    14753011.939 8   1431791.445 8
  21281391.386    21281396.587   -40789027.675 9  44165662.003 7
  21873686.466    21873691.211     5605101.529 8   3090163.998 9
  20753243.039    20753247.935   -15931248.852 8 -13710805.673 7
 90  2 28  6 29 29.0800000  0  4G 6G12G11G13
  22603466.570    22603471.812    14805625.021 9   1472788.621 7
  21275717.562    21275723.408   -40818843.224 9  44142429.112 8
  21879383.958    21879388.459     5635043.779 9   3113495.626 8
  20752334.226    20752341.348   -15936020.021 8 -13714523.483 7
 90  2 28  6 29 44.0800000  0  4G 6G12G11G13
  22613495.704    22613501.500    14858327.665 9   1513855.568 7
  21270065.195    21270071.098   -40848542.447 9  44119286.861 7
  21885087.974    21885093.620     5665020.390 8   3136854.010 7
  20751443.951    20751449.488   -15940698.314 9 -13718168.908 7
 90  2 28  6 29 59.0800000  0  4G 6G12G11G13
  22623540.818    22623547.014    14911119.532 8   1554992.025 8
  21264436.360    21264440.230   -40878125.037 9  44096235.508 8
  21890798.658    21890804.661     5695030.851 8   3160238.805 8
  20750572.210    20750576.452   -15945283.865 9 -13721742.067 6
 90  2 28  6 30 14.0800000  0  4G 6G12G11G13
  22633604.544    22633610.390    14964000.117 9   1596197.636 8
  21258828.959    21258834.290   -40907590.640 9  44073275.305 8
  21896515.638    21896521.485     5725075.116 8   3183649.916 7
  20749717.662    20749723.338   -15949776.959 8 -13725243.179 7
 90  2 28  6 30 29.0800000  0  4G 6G12G11G13
  22643685.253    22643690.354    15016969.484 9   1637472.427 8
  21253244.204    21253249.784   -40936938.822 9  44050406.624 7
  21902239.859    21902245.863     5755152.986 8   3207087.224 8
  20748879.740    20748884.376   -15954177.613 7 -13728672.274 8
 90  2 28  6 30 44.0800000  0  4G 6G12G11G13
  22653780.377    22653785.518    15070027.353 9   1678816.177 8
  21247681.319    21247688.388   -40966168.931 8  44027629.922 8
  21907969.632    21907975.793     5785264.453 9   3230550.675 7
  20748060.787    20748066.313   -15958485.907 8 -13732029.376 8
 90  2 28  6 30 59.0800000  0  4G 6G12G11G13
  22663893.656    22663900.135    15123173.252 8   1720228.508 7
  21242141.430    21242147.748   -40995280.868 9  44004945.300 8
  21913705.127    21913712.219     5815409.229 9   3254040.104 8
  20747258.470    20747263.367   -15962701.991 8 -13735314.615 7
 90  2 28  6 31 14.0800000  0  4G 6G12G11G13
  22674022.583    22674029.594    15176406.739 8   1761709.085 7
  21236623.555    21236630.001   -41024274.377 9  43982352.972 8
  21919447.979    21919455.027     5845586.933 9   3277555.197 8
  20746473.593    20746477.978   -15966826.103 8 -13738528.216 6
 90  2 28  6 31 29.0800000  0  4G 6G12G11G13
  22684169.910    22684176.275    15229727.507 9   1803257.702 7
  21231130.707    21231136.022   -41053149.137 8  43959853.180 8
  21925197.498    21925204.618     5875797.235 9   3301095.677 7
  20745705.089    20745711.402   -15970858.495 9 -13741670.356 7
 90  2 28  6 31 44.0800000  0  4G 6G12G11G13
  22694334.406    22694340.005    15283135.132 8   1844874.006 8
  21225657.827    21225664.653   -41081904.969 9  43937446.041 8
  21930951.768    21930959.060     5906039.775 9   3324661.280 7
  20744954.926    20744960.252   -15974799.488 8 -13744741.249 8
 90  2 28  6 31 59.0800000  0  4G 6G12G11G13
  22704513.600    22704519.335    15336629.392 9   1886557.787 8
  21220209.345    21220212.479   -41110541.478 9  43915131.889 8
  21936713.965    21936720.627     5936314.545 8   3348251.984 8
  20744221.491    20744229.356   -15978649.106 8 -13747740.959 7
 90  2 28  6 32 14.0800000  0  4G 6G12G11G13
  22714708.886    22714715.529    15390209.971 9   1928308.842 7
  21214783.106    21214787.370   -41139058.159 9  43892911.085 8
  21942481.114    21942486.702     5966621.389 9   3371867.721 7
  20743507.437    20743514.129   -15982407.382 8 -13750669.471 8
 90  2 28  6 32 29.0800000  0  4G 6G12G11G13
  22724921.807    22724928.700    15443876.228 9   1970126.648 8
  21209378.553    21209385.807   -41167454.904 9  43870783.761 7
  21948253.957    21948258.801     5996959.904 9   3395508.133 8
  20742810.519    20742814.238   -15986074.806 9 -13753527.214 7
 90  2 28  6 32 44.0800000  0  4G 6G12G11G13
  22735150.883    22735157.541    15497627.966 9   2012011.078 8
  21203997.946    21204003.483   -41195731.422 9  43848750.117 7
  21954033.497    21954040.359     6027329.828 9   3419173.003 8
  20742129.534    20742134.484   -15989651.406 8 -13756314.176 8
 90  2 28  6 32 59.0800000  0  4G 6G12G11G13
  22745394.709    22745402.032    15551464.830 8   2053961.816 8
  21198639.797    21198645.542   -41223887.285 9  43826810.475 8
  21959818.160    21959823.233     6057730.922 8   3442862.160 8
  20741465.523    20741469.729   -15993137.372 9 -13759030.513 7
 90  2 28  6 33 14.0800000  0  4G 6G12G11G13
  22755656.664    22755663.958    15605386.447 9   2095978.611 8
  21193304.715    21193311.505   -41251922.249 9  43804965.067 8
  21965609.032    21965616.009     6088163.056 8   3466575.505 8
  20740819.220    20740823.576   -15996532.796 8 -13761676.291 7
 90  2 28  6 33 29.0800000  0  4G 6G12G11G13
  22765933.318    22765940.695    15659392.656 8   2138061.319 9
  21187993.515    21187999.504   -41279835.926 9  43783214.152 8
  21971407.031    21971413.035     6118625.948 9   3490312.782 8
  20740190.520    20740195.731   -15999838.074 8 -13764251.839 8
 90  2 28  6 33 44.0800000  0  4G 6G12G11G13
  22776228.017    22776233.605    15713483.018 9   2180209.600 8
  21182705.053    21182710.097   -41307627.984 9  43761558.003 8
  21977209.523    21977216.328     6149119.387 9   3514073.903 7
  20739579.825    20739584.103   -16003053.093 9 -13766757.068 7
 90  2 28  6 33 59.0800000  0  4G 6G12G11G13
  22786535.804    22786542.105    15767657.057 8   2222423.090 8
  21177440.007    21177445.029   -41335298.264 9  43739996.737 8
  21983017.023    21983024.043     6179642.973 8   3537858.507 7
  20738984.853    20738991.849   -16006178.072 9 -13769192.098 8
 90  2 28  6 34 14.0800000  0  4G 6G12G11G13
  22796859.948    22796867.063    15821914.488 9   2264701.554 8
  21172196.175    21172201.720   -41362846.404 9  43718530.664 7
  21988831.249    21988838.025     6210196.630 8   3561666.548 8
  20738407.502    20738412.592   -16009213.220 9 -13771557.151 8
 90  2 28  6 34 29.0800000  0  4G 6G12G11G13
  22807202.717    22807208.663    15876254.945 8   2307044.703 9
  21166977.540    21166983.228   -41390272.084 9  43697160.016 7
  21994650.597    21994657.845     6240780.185 8   3585497.863 7
  20737846.431    20737852.233   -16012158.807 9 -13773852.443 7
 90  2 28  6 34 44.0800000  0  4G 6G12G11G13
  22817556.946    22817564.411    15930678.151 8   2349452.320 8
  21161782.210    21161786.194   -41417574.964 9  43675885.049 8
  22000476.556    22000483.318     6271393.303 8   3609352.236 7
  20737302.836    20737308.180   -16015015.241 9 -13776078.233 9
 90  2 28  6 34 59.0800000  0  4G 6G12G11G13
  22827929.428    22827937.442    15985183.739 8   2391924.155 8
  21156609.837    21156614.266   -41444754.601 9  43654706.123 7
  22006307.695    22006313.398     6302035.786 8   3633229.467 8
  20736775.342    20736781.856   -16017782.343 9 -13778234.415 8
 90  2 28  6 35 14.0800000  0  4G 6G12G11G13
  22838318.725    22838325.172    16039771.438 8   2434459.970 8
  21151461.197    21151467.707   -41471810.589 8  43633623.535 8
  22012146.847    22012150.991     6332707.603 9   3657129.577 8
  20736267.058    20736271.750   -16020460.294 9 -13780321.141 7
 90  2 28  6 35 29.0800000  0  4G 6G12G11G13
  22848722.341    22848728.119    16094440.795 9   2477059.428 8
  21146336.338    21146342.613   -41498742.819 9  43612637.385 7
  22017987.201    22017992.360     6363408.326 9   3681052.210 9
  20735773.888    20735780.491   -16023049.350 9 -13782338.592 8
 90  2 28  6 35 44.0800000  0  4G 6G12G11G13
  22859139.594    22859146.384    16149191.474 8   2519722.255 7
  21141236.091    21141240.370   -41525550.983 9  43591747.917 8
  22023833.765    22023841.386     6394137.720 8   3704997.182 8
  20735297.929    20735304.070   -16025549.682 8 -13784286.902 7
 90  2 28  6 35 59.0800000  0  4G 6G12G11G13
  22869573.106    22869581.202    16204023.044 8   2562448.098 8
  21136157.444    21136162.495   -41552234.911 9  43570955.251 8
  22029687.828    22029694.117     6424895.516 8   3728964.278 8
  20734838.314    20734844.359   -16027961.582 9 -13786166.329 7
 90  2 28  6 36 14.0800000  0  4G 6G12G11G13
  22880022.268    22880030.017    16258935.385 8   2605236.894 8
  21131102.894    21131108.346   -41578793.884 9  43550259.945 8
  22035545.353    22035551.986     6455681.847 8   3752953.608 8
  20734397.569    20734403.049   -16030285.095 9 -13787976.855 7
 90  2 28  6 36 29.0800000  0  4G 6G12G11G13
  22890487.472    22890495.320    16313927.978 8   2648088.197 8
  21126073.478    21126077.806   -41605227.863 9  43529662.049 7
  22041409.260    22041416.623     6486496.151 8   3776964.721 8
  20733971.667    20733976.589   -16032520.407 9 -13789718.659 8
 90  2 28  6 36 44.0800000  0  4G 6G12G11G13
  22900968.669    22900972.829    16369000.433 8   2691001.754 8
  21121066.298    21121071.485   -41631536.570 9  43509161.758 8
  22047278.976    22047285.295     6517338.243 9   3800997.522 7
  20733562.549    20733569.106   -16034667.757 9 -13791391.925 7
 90  2 28  6 36 59.0800000  0  4G 6G12G11G13
  22911462.976    22911469.881    16424152.452 9   2733977.288 9
  21116083.508    21116089.103   -41657719.649 9  43488759.365 8
  22053153.043    22053159.232     6548207.999 9   3825051.886 8
  20733170.635    20733175.975   -16036727.150 9 -13792996.654 7
 90  2 28  6 37 14.0800000  0  4G 6G12G11G13
  22921973.350    22921980.140    16479383.675 8   2777014.549 7
  21111125.287    21111129.809   -41683776.741 9  43468455.139 7
  22059033.005    22059038.292     6579105.065 8   3849127.502 8
  20732796.235    20732802.695   -16038698.966 9 -13794533.130 8
 90  2 28  6 37 29.0800000  0  4G 6G12G11G13
  22932499.392    22932506.350    16534693.638 9   2820113.177 9
  21106191.442    21106195.900   -41709707.524 9  43448249.328 8
  22064917.774    22064923.935     6610029.170 9   3873224.204 8
  20732437.969    20732443.527   -16040583.632 9 -13796001.701 8
 90  2 28  6 37 44.0800000  0  4G 6G12G11G13
  22943039.299    22943045.639    16590082.104 8   2863272.971 8
  21101280.992    21101285.722   -41735511.783 9  43428142.108 7
  22070807.094    22070814.243     6640980.205 9   3897341.852 8
  20732094.988    20732099.978   -16042381.035 9 -13797402.272 7
 90  2 28  6 37 59.0800000  0  4G 6G12G11G13
  22953594.758    22953601.026    16645548.562 9   2906493.532 7
  21096393.588    21096400.141   -41761189.169 9  43408133.752 8
  22076702.195    22076708.370     6671957.834 9   3921480.247 8
  20731769.511    20731774.200   -16044091.323 8 -13798734.969 7
 90  2 28  6 38 14.0800000  0  4G 6G12G11G13
  22964163.993    22964169.731    16701092.831 8   2949774.724 8
  21091532.061    21091538.472   -41786739.440 9  43388224.466 8
  22082601.732    22082607.865     6702961.907 8   3945639.267 8
  20731461.560    20731465.816   -16045714.905 9 -13800000.095 7
 90  2 28  6 38 29.0800000  0  4G 6G12G11G13
  22974747.722    22974753.976    16756714.464 8   2993116.203 7
  21086694.674    21086700.019   -41812162.140 9  43368414.579 7
  22088507.365    22088512.810     6733992.264 8   3969818.750 8
  20731168.046    20731174.534   -16047251.673 8 -13801197.595 7
 90  2 28  6 38 44.0800000  0  4G 6G12G11G13
  22985347.567    22985353.367    16812413.122 9   3036517.677 8
  21081881.033    21081887.050   -41837457.260 9  43348704.090 8
  22094416.890    22094421.906     6765048.680 8   3994018.551 8
  20730893.979    20730898.546   -16048701.695 9 -13802327.497 7
 90  2 28  6 38 59.0800000  0  4G 6G12G11G13
  22995961.661    22995967.267    16868188.432 9   3079978.911 8
  21077091.940    21077097.263   -41862624.386 9  43329093.364 8
  22100332.138    22100337.555     6796130.976 8   4018238.533 8
  20730633.190    20730638.988   -16050065.759 8 -13803390.409 7
 90  2 28  6 39 14.0800000  0  4G 6G12G11G13
  23006588.894    23006596.532    16924040.003 8   3123499.560 8
  21072327.201    21072333.669   -41887663.128 8  43309582.662 8
  22106250.964    22106256.595     6827238.812 8   4042478.419 8
  20730389.658    20730394.930   -16051343.651 9 -13804386.171 7
 90  2 28  6 39 29.0800000  0  4G 6G12G11G13
  23017231.600    23017240.017    16979967.646 8   3167079.448 8
  21067586.974    21067593.456   -41912573.154 9  43290172.261 7
  22112173.796    22112181.245     6858372.132 8   4066738.149 7
  20730163.716    20730168.616   -16052535.543 9 -13805314.922 8
 90  2 28  6 39 44.0800000  0  4G 6G12G11G13
  23027888.886    23027896.127    17035970.912 8   3210718.312 8
  21062870.206    21062876.130   -41937354.230 9  43270862.330 8
  22118104.813    22118111.618     6889530.643 9   4091017.486 8
  20729952.455    20729957.985   -16053641.615 9 -13806176.806 7
 90  2 28  6 39 59.0800000  0  4G 6G12G11G13
  23038560.921    23038567.300    17092049.280 8   3254415.701 8
  21058179.760    21058185.720   -41962006.229 9  43251652.994 8
  22124039.665    22124045.511     6920713.885 8   4115316.121 8
  20729757.901    20729764.320   -16054662.393 9 -13806972.218 7
 90  2 28  6 40 14.0800000  0  4G 6G12G11G13
  23049245.884    23049252.381    17148202.463 9   3298171.376 8
  21053513.754    21053518.841   -41986528.712 9  43232544.555 7
  22129977.407    22129983.167     6951921.768 9   4139633.934 7
  20729580.198    20729586.053   -16055597.951 9 -13807701.226 8
 90  2 28  6 40 29.0800000  0  4G 6G12G11G13
  23059945.186    23059953.994    17204430.113 8   3341985.072 7
  21048872.375    21048877.176   -42010921.444 9  43213537.227 7
  22135920.988    22135928.680     6983154.073 8   4163970.796 8
  20729418.487    20729424.191   -16056448.166 9 -13808363.741 7
 90  2 28  6 40 44.0800000  0  4G 6G12G11G13
  23070658.174    23070665.723    17260731.912 9   3385856.534 8
  21044254.419    21044261.145   -42035184.151 9  43194631.228 8
  22141867.659    22141874.750     7014410.761 9   4188326.648 8
  20729272.565    20729279.293   -16057213.237 9 -13808959.900 8
 90  2 28  6 40 59.0800000  0  4G 6G12G11G13
  23081388.119    23081393.678    17317107.530 9   3429785.560 8
  21039661.970    21039668.238   -42059316.332 9  43175826.930 7
  22147820.941    22147827.002     7045691.586 9   4212701.277 7
  20729143.797    20729150.260   -16057893.463 9 -13809489.959 7
 90  2 28  6 41 14.0800000  0  4G 6G12G11G13
  23092129.589    23092136.519    17373556.513 8   3473771.718 7
  21035094.440    21035100.658   -42083317.798 9  43157124.484 7
  22153777.743    22153782.917     7076996.157 8   4237094.461 7
  20729030.479    20729035.937   -16058489.108 9 -13809954.101 7
 90  2 28  6 41 29.0800000  0  4G 6G12G11G13
  23102884.593    23102892.796    17430078.637 8   3517814.870 8
  21030552.381    21030558.849   -42107188.130 9  43138524.225 7
  22159739.983    22159745.815     7108324.418 9   4261506.050 8
  20728932.865    20728938.176   -16059000.262 8 -13810352.398 7
 90  2 28  6 41 44.0800000  0  4G 6G12G11G13
  23113655.723    23113661.816    17486673.615 8   3561914.799 7
  21026035.248    21026040.378   -42130927.107 8  43120026.313 8
  22165706.601    22165712.090     7139676.278 9   4285936.064 7
  20728852.537    20728856.521   -16059427.357 9 -13810685.214 6
 90  2 28  6 41 59.0800000  0  4G 6G12G11G13
  23124439.531    23124445.552    17543340.739 8   3606070.962 8
  21021542.663    21021549.702   -42154534.641 9  43101630.847 7
  22171676.368    22171683.244     7171051.212 8   4310384.068 8
  20728786.278    20728790.970   -16059770.585 9 -13810952.674 8
 90  2 28  6 42 14.0800000  0  4G 6G12G11G13
  23135236.242    23135243.815    17600079.903 9   3650283.222 7
  21017076.134    21017082.151   -42178010.321 8  43083338.108 8
  22177651.286    22177657.389     7202449.177 9   4334850.011 7
  20728737.495    20728741.951   -16060030.009 9 -13811154.824 6
 90  2 28  6 42 29.0800000  0  4G 6G12G11G13
  23146046.329    23146054.078    17656890.591 8   3694551.231 8
  21012633.488    21012639.097   -42201353.950 9  43065148.270 8
  22183631.011    22183637.501     7233869.897 8   4359333.687 7
  20728703.396    20728708.657   -16060205.766 9 -13811291.771 8
 90  2 28  6 42 44.0800000  0  4G 6G12G11G13
  23156871.025    23156878.556    17713772.389 9   3738874.658 8
  21008216.820    21008223.130   -42224565.223 9  43047061.580 7
  22189613.742    22189620.304     7265313.032 8   4383834.811 7
  20728685.989    20728692.212   -16060298.079 9 -13811363.710 7
 90  2 28  6 42 59.0800000  0  4G 6G12G11G13
  23167708.854    23167715.569    17770725.155 9   3783253.370 7
  21003824.263    21003831.167   -42247643.820 9  43029078.239 8
  22195600.393    22195607.384     7296778.635 9   4408353.448 8
  20728683.760    20728690.019   -16060306.984 9 -13811370.657 6
 90  2 28  6 43 14.0800000  0  4G 6G12G11G13
  23178558.184    23178566.219    17827748.441 8   3827687.049 7
  20999458.478    20999464.588   -42270589.533 8  43011198.481 7
  22201593.169    22201600.016     7328266.459 8   4432889.433 8
  20728698.967    20728703.012   -16060232.871 8 -13811312.914 8
 90  2 28  6 43 29.0800000  0  4G 6G12G11G13
  23189423.332    23189431.221    17884841.805 8   3872175.328 8
  20995118.257    20995124.031   -42293402.049 9  42993422.486 7
  22207590.151    22207595.553     7359776.188 8   4457442.453 7
  20728727.035    20728733.645   -16060075.971 9 -13811190.643 8
 90  2 28  6 43 44.0800000  0  4G 6G12G11G13
  23200301.867    23200308.571    17942004.805 9   3916717.872 8
  20990802.140    20990807.427   -42316081.222 9  42975750.418 7
  22213590.081    22213595.441     7391307.599 9   4482012.387 8
  20728773.060    20728778.014   -16059836.527 8 -13811004.065 7
 90  2 28  6 43 59.0800000  0  4G 6G12G11G13
  23211192.174    23211198.653    17999237.132 8   3961314.426 8
  20986512.423    20986516.544   -42338626.661 9  42958182.549 8
  22219595.420    22219600.251     7422860.508 9   4506599.063 8
  20728834.894    20728840.939   -16059514.514 9 -13810753.169 8
 90  2 28  6 44 14.0800000  0  4G 6G12G11G13
  23222097.965    23222105.188    18056538.433 9   4005964.718 8
  20982247.482    20982252.283   -42361038.107 9  42940719.077 7
  22225602.305    22225608.409     7454434.742 9   4531202.370 8
  20728912.725    20728917.522   -16059110.373 9 -13810438.255 7
 90  2 28  6 44 29.0800000  0  4G 6G12G11G13
  23233014.694    23233021.699    18113908.264 9   4050668.413 8
  20978008.756    20978012.935   -42383315.312 8  42923360.207 8
  22231615.256    22231621.317     7486029.973 9   4555822.021 8
  20729005.030    20729010.356   -16058624.260 9 -13810059.468 8
 90  2 28  6 44 44.0800000  0  4G 6G12G11G13
  23243943.615    23243952.069    18171346.316 9   4095425.290 8
  20973792.925    20973799.328   -42405458.050 9  42906106.130 8
  22237631.270    22237637.889     7517645.979 8   4580457.841 8
  20729112.915    20729118.051   -16058056.434 9 -13809617.019 7
 90  2 28  6 44 59.0800000  0  4G 6G12G11G13
  23254887.697    23254894.595    18228852.154 8   4140234.976 8
  20969605.762    20969611.278   -42427465.986 8  42888957.100 7
  22243651.319    22243658.596     7549282.607 9   4605109.747 8
  20729234.940    20729241.382   -16057407.016 9 -13809110.973 8
 90  2 28  6 45 14.0800000  0  4G 6G12G11G13
  23265843.337    23265851.633    18286425.580 8   4185097.312 7
  20965443.275    20965448.555   -42449338.676 9  42871913.446 8
  22249675.116    22249681.664     7580939.888 9   4629777.788 8
  20729374.580    20729381.168   -16056676.013 8 -13808541.372 7
 90  2 28  6 45 29.0800000  0  4G 6G12G11G13
  23276811.955    23276818.992    18344066.152 8   4230011.972 8
  20961307.976    20961313.063   -42471076.007 9  42854975.267 8
  22255705.039    22255709.740     7612617.388 9   4654461.542 7
  20729528.729    20729534.527   -16055863.602 9 -13807908.315 6
 90  2 28  6 45 44.0800000  0  4G 6G12G11G13
  23287794.851    23287801.770    18401773.600 8   4274978.748 7
  20957196.934    20957202.468   -42492677.575 8  42838142.867 7
  22261736.707    22261741.723     7644315.119 8   4679161.080 8
  20729700.365    20729703.587   -16054970.061 9 -13807212.051 7
 90  2 28  6 45 59.0800000  0  4G 6G12G11G13
  23298786.428    23298795.014    18459547.422 7   4319997.228 8
  20953111.914    20953117.656   -42514143.194 9  42821416.415 8
  22267771.380    22267776.940     7676032.667 9   4703876.031 7
  20729885.332    20729890.683   -16053995.737 8 -13806452.831 8
 90  2 28  6 46 14.0800000  0  4G 6G12G11G13
  23309794.640    23309801.974    18517387.144 8   4365067.064 6
  20949053.240    20949059.104   -42535472.692 9  42804796.028 8
  22273809.573    22273816.034     7707769.777 9   4728606.258 8
  20730086.090    20730091.938   -16052940.849 9 -13805630.859 7
 90  2 28  6 46 29.0800000  0  4G 6G12G11G13
  23320813.118    23320821.855    18575292.556 8   4410188.116 8
  20945019.590    20945026.724   -42556665.651 8  42788282.042 8
  22279853.117    22279860.208     7739526.383 9   4753351.652 9
  20730303.064    20730307.657   -16051805.414 9 -13804746.116 7
 90  2 28  6 46 44.0800000  0  4G 6G12G11G13
  23331843.817    23331852.467    18633263.285 8   4455360.057 7
  20941013.106    20941019.116   -42577721.785 8  42771874.673 8
  22285900.439    22285906.300     7771302.325 8   4778112.098 8
  20730534.018    20730537.991   -16050589.712 9 -13803798.820 7
 90  2 28  6 46 59.0800000  0  4G 6G12G11G13
  23342888.675    23342897.432    18691298.926 7   4500582.579 9
  20937032.843    20937039.536   -42598640.841 8  42755574.112 8
  22291951.167    22291957.357     7803097.297 8   4802887.400 7
  20730780.433    20730785.394   -16049294.200 9 -13802789.336 7
 90  2 28  6 47 14.0800000  0  4G 6G12G11G13
  23353943.578    23353952.257    18749399.095 9   4545855.364 7
  20933077.729    20933084.697   -42619422.596 9  42739380.550 9
  22298004.242    22298011.447     7834911.095 9   4827677.364 8
  20731042.631    20731047.117   -16047918.650 9 -13801717.469 7
 90  2 28  6 47 29.0800000  0  4G 6G12G11G13
  23365012.009    23365020.517    18807563.470 8   4591178.200 8
  20929149.008    20929155.372   -42640066.723 8  42723294.213 7
  22304063.269    22304068.113     7866743.617 8   4852481.947 7
  20731318.133    20731325.044   -16046463.369 8 -13800583.485 7
 90  2 28  6 47 44.0800000  0  4G 6G12G11G13
  23376094.007    23376100.232    18865791.636 9   4636550.731 9
  20925247.303    20925254.221   -42660573.027 9  42707315.278 7
  22310123.154    22310129.072     7898594.482 8   4877300.785 8
  20731609.479    20731616.533   -16044928.339 8 -13799387.363 6
 90  2 28  6 47 59.0800000  0  4G 6G12G11G13
  23387185.477    23387193.176    18924083.194 9   4681972.659 8
  20921370.757    20921376.230   -42680941.330 9  42691443.872 8
  22316187.934    22316194.252     7930463.567 8   4902133.789 8
  20731917.006    20731923.705   -16043314.256 9 -13798129.631 7
 90  2 28  6 48 14.0800000  0  4G 6G12G11G13
  23398289.410    23398297.960    18982437.725 9   4727443.654 7
  20917521.516    20917526.750   -42701171.385 9  42675680.193 8
  22322255.461    22322261.722     7962350.703 8   4926980.924 7
  20732239.485    20732247.465   -16041621.235 9 -13796810.390 7
 90  2 28  6 48 29.0800000  0  4G 6G12G11G13
  23409408.203    23409414.543    19040855.000 8   4772963.553 8
  20913698.300    20913703.577   -42721262.835 9  42660024.519 8
  22328325.534    22328334.529     7994255.777 9   4951842.019 8
  20732577.986    20732583.044   -16039849.313 9 -13795429.680 8
 90  2 28  6 48 44.0800000  0  4G 6G12G11G13
  23420533.987    23420543.023    19099334.543 8   4818531.952 8
  20909901.299    20909907.130   -42741215.515 8  42644476.985 7
  22334400.445    22334408.051     8026178.542 8   4976716.877 7
  20732929.642    20732934.478   -16037998.812 9 -13793987.737 8
 90  2 28  6 48 59.0800000  0  4G 6G12G11G13
  23431675.474    23431683.001    19157875.792 9   4864148.445 6
  20906130.723    20906136.608   -42761029.252 9  42629037.698 8
  22340480.649    22340486.352     8058118.719 9   5001605.302 7
  20733297.274    20733302.185   -16036069.877 8 -13792484.669 7
 90  2 28  6 49 14.0800000  0  4G 6G12G11G13
  23442826.685    23442834.305    19216478.651 9   4909812.955 7
  20902386.805    20902392.955   -42780703.775 9  42613706.909 8
  22346561.999    22346568.117     8090076.033 8   5026507.087 7
  20733677.487    20733683.181   -16034062.756 9 -13790920.685 6
 90  2 28  6 49 29.0800000  0  4G 6G12G11G13
  23453990.817    23453998.108    19275142.610 8   4955525.093 7
  20898669.653    20898674.782   -42800238.681 9  42598484.918 7
  22352645.523    22352652.471     8122050.468 8   5051422.210 8
  20734074.521    20734079.435   -16031977.634 9 -13789295.919 7
 90  2 28  6 49 44.0800000  0  4G 6G12G11G13
  23465165.609    23465173.737    19333867.565 8   5001284.743 8
  20894978.829    20894983.609   -42819633.614 9  42583371.990 8
  22358733.255    22358739.258     8154042.036 8   5076350.735 8
  20734486.003    20734491.407   -16029814.639 9 -13787610.472 7
 90  2 28  6 49 59.0800000  0  4G 6G12G11G13
  23476352.063    23476359.827    19392652.939 8   5047091.458 8
  20891315.183    20891320.159   -42838888.431 9  42568368.251 8
  22364824.621    22364831.497     8186050.166 8   5101292.157 8
  20734911.644    20734918.118   -16027574.012 9 -13785864.529 8
 90  2 28  6 50 14.0800000  0  4G 6G12G11G13
  23487551.632    23487558.637    19451498.220 9   5092944.852 7
  20887677.181    20887684.121   -42858002.983 9  42553473.798 8
  22370918.791    22370924.508     8218074.627 8   5126246.243 8
  20735355.179    20735359.306   -16025255.990 9 -13784058.285 7
 90  2 28  6 50 29.0800000  0  4G 6G12G11G13
  23498759.457    23498767.335    19510403.162 8   5138844.740 8
  20884067.620    20884072.392   -42876976.955 8  42538688.880 8
  22377016.338    22377021.441     8250115.295 7   5151212.955 8
  20735810.584    20735816.145   -16022860.779 9 -13782191.890 7
 90  2 28  6 50 44.0800000  0  4G 6G12G11G13
  23509980.418    23509987.473    19569367.312 9   5184790.776 8
  20880483.926    20880488.147   -42895810.141 9  42524013.662 7
  22383115.574    22383122.279     8282172.119 8   5176192.261 8
  20736281.570    20736285.930   -16020388.460 9 -13780265.422 7
 90  2 28  6 50 59.0800000  0  4G 6G12G11G13
  23521211.123    23521219.874    19628390.338 9   5230782.671 8
  20876925.591    20876931.340   -42914502.337 9  42509448.303 7
  22389220.477    22389226.266     8314244.898 8   5201184.053 7
  20736766.391    20736772.898   -16017839.276 9 -13778279.052 8
 90  2 28  6 51 14.0800000  0  4G 6G12G11G13
  23532454.757    23532463.172    19687471.938 8   5276820.229 8
  20873395.599    20873401.119   -42933053.250 9  42494993.062 7
  22395326.581    22395331.454     8346333.336 9   5226188.022 7
  20737265.195    20737270.242   -16015213.426 8 -13776232.933 8
 90  2 28  6 51 29.0800000  0  4G 6G12G11G13
  23543708.951    23543717.065    19746611.623 8   5322903.033 7
  20869893.514    20869898.622   -42951462.652 9  42480648.072 8
  22401434.975    22401440.278     8378437.334 8   5251204.105 8
  20737778.946    20737784.282   -16012511.269 9 -13774127.374 8
 90  2 28  6 51 44.0800000  0  4G 6G12G11G13
  23554974.579    23554981.469    19805809.159 9   5369030.924 8
  20866415.836    20866422.032   -42969730.276 8  42466413.556 8
  22407546.918    22407552.706     8410556.651 9   5276232.109 8
  20738306.987    20738313.325   -16009732.888 9 -13771962.403 7
 90  2 28  6 51 59.0800000  0  4G 6G12G11G13
  23566249.177    23566257.127    19865064.051 9   5415203.510 7
  20862966.195    20862973.843   -42987855.999 9  42452289.614 8
  22413660.806    22413669.299     8442691.050 8   5301271.864 8
  20738850.772    20738856.130   -16006878.481 8 -13769738.187 7
 90  2 28  6 52 14.0800000  0  4G 6G12G11G13
  23577537.427    23577543.738    19924375.896 9   5461420.476 8
  20859545.661    20859551.875   -43005839.518 8  42438276.491 7
  22419779.503    22419785.778     8474840.388 8   5326323.284 9
  20739409.356    20739414.489   -16003948.394 9 -13767455.001 7
 90  2 28  6 52 29.0800000  0  4G 6G12G11G13
  23588834.005    23588841.940    19983744.395 9   5507681.600 7
  20856150.973    20856156.153   -43023680.384 8  42424374.519 8
  22425899.801    22425907.465     8507004.484 8   5351386.163 8
  20739981.774    20739984.882   -16000942.522 9 -13765112.780 8
 90  2 28  6 52 44.0800000  0  4G 6G12G11G13
  23600141.866    23600149.736    20043169.275 9   5553986.650 8
  20852782.232    20852788.378   -43041378.463 9  42410583.815 8
  22432023.191    22432030.340     8539183.304 8   5376460.570 8
  20740568.337    20740571.831   -15997861.184 9 -13762711.756 7
 90  2 28  6 52 59.0800000  0  4G 6G12G11G13
  23611460.694    23611468.257    20102650.084 8   5600335.270 7
  20849441.343    20849447.771   -43058933.596 9  42396904.483 7
  22438149.243    22438156.033     8571376.650 9   5401546.314 8
  20741168.310    20741172.545   -15994704.706 9 -13760252.159 7
 90  2 28  6 53 14.0800000  0  4G 6G12G11G13
  23622790.383    23622797.596    20162186.322 8   5646727.077 8
  20846128.712    20846134.632   -43076345.637 9  42383336.662 8
  22444278.127    22444284.246     8603583.994 9   5426642.893 8
  20741782.844    20741787.536   -15991473.235 9 -13757734.136 8
 90  2 28  6 53 29.0800000  0  4G 6G12G11G13
  23634130.719    23634138.847    20221777.680 7   5693161.832 8
  20842841.579    20842847.600   -43093614.323 9  42369880.536 7
  22450410.160    22450416.793     8635805.530 8   5451750.600 8
  20742411.640    20742417.234   -15988167.165 8 -13755157.998 7
 90  2 28  6 53 44.0800000  0  4G 6G12G11G13
  23645479.855    23645488.941    20281423.694 7   5739639.159 8
  20839582.929    20839589.658   -43110739.447 9  42356536.302 8
  22456543.252    22456551.201     8668040.844 9   5476869.009 8
  20743054.945    20743061.144   -15984786.675 8 -13752523.857 8
 90  2 28  6 53 59.0800000  0  4G 6G12G11G13
  23656840.559    23656848.938    20341124.090 8   5786158.882 7
  20836351.724    20836356.435   -43127720.725 9  42343304.133 7
  22462680.750    22462688.213     8700289.822 8   5501998.045 8
  20743712.124    20743716.823   -15981331.694 8 -13749831.662 7
 90  2 28  6 54 14.0800000  0  4G 6G12G11G13
  23668211.644    23668220.631    20400878.398 8   5832720.624 8
  20833148.872    20833154.038   -43144558.056 9  42330184.126 8
  22468820.367    22468827.945     8732552.229 9   5527137.542 8
  20744383.343    20744390.697   -15977802.700 9 -13747081.802 6
 90  2 28  6 54 29.0800000  0  4G 6G12G11G13
  23679592.776    23679601.676    20460686.227 8   5879324.066 8
  20829972.393    20829977.369   -43161251.188 9  42317176.480 8
  22474961.099    22474968.634     8764827.979 9   5552287.510 8
  20745070.445    20745075.084   -15974199.708 9 -13744274.276 7
 90  2 28  6 54 44.0800000  0  4G 6G12G11G13
  23690983.959    23690993.460    20520547.364 7   5925969.025 7
  20826822.729    20826828.306   -43177799.753 8  42304281.504 7
  22481106.125    22481113.717     8797116.812 9   5577447.663 9
  20745769.303    20745776.728   -15970522.823 9 -13741409.190 7
 90  2 28  6 54 59.0800000  0  4G 6G12G11G13
  23702385.902    23702394.524    20580461.246 8   5972655.108 8
  20823701.218    20823706.011   -43194203.557 9  42291499.316 7
  22487251.952    22487259.700     8829418.588 9   5602617.886 8
  20746483.396    20746489.387   -15966772.438 9 -13738486.824 7
 90  2 28  6 55 14.0800000  0  4G 6G12G11G13
  23713797.004    23713805.110    20640427.693 8   6019382.158 7
  20820607.660    20820611.902   -43210462.282 9  42278830.162 7
  22493402.922    22493409.599     8861733.274 9   5627798.172 8
  20747211.072    20747217.438   -15962948.747 9 -13735507.330 7
 90  2 28  6 55 29.0800000  0  4G 6G12G11G13
  23725218.544    23725226.250    20700446.228 9   6066149.798 8
  20817540.885    20817546.401   -43226575.708 9  42266274.243 8
  22499554.305    22499560.723     8894060.370 9   5652988.104 8
  20747952.875    20747958.072   -15959052.004 8 -13732470.911 8
 90  2 28  6 55 44.0800000  0  4G 6G12G11G13
  23736649.220    23736657.978    20760516.410 8   6112957.666 7
  20814502.643    20814507.773   -43242543.650 9  42253831.694 8
  22505708.187    22505714.276     8926399.754 9   5678187.622 8
  20748708.150    20748712.295   -15955082.345 8 -13729377.672 8
 90  2 28  6 55 59.0800000  0  4G 6G12G11G13
  23748090.593    23748097.612    20820637.860 8   6159805.490 8
  20811491.188    20811496.905   -43258366.102 8  42241502.514 9
  22511864.416    22511871.819     8958751.372 8   5703396.669 8
  20749477.323    20749482.470   -15951039.942 9 -13726227.765 7
 90  2 28  6 56 14.0800000  0  4G 6G12G11G13
  23759541.159    23759547.627    20880810.126 8   6206692.903 8
  20808507.063    20808512.651   -43274042.756 9  42229286.930 8
  22518022.274    22518030.073     8991115.089 9   5728615.187 8
  20750259.942    20750265.354   -15946925.007 9 -13723021.322 7
 90  2 28  6 56 29.0800000  0  4G 6G12G11G13
  23771000.568    23771008.560    20941032.932 8   6253619.694 8
  20805551.671    20805557.645   -43289573.447 9  42217185.095 8
  22524184.860    22524190.807     9023490.490 8   5753842.789 8
  20751056.017    20751062.261   -15942737.981 9 -13719758.712 8
 90  2 28  6 56 44.0800000  0  4G 6G12G11G13
  23782470.373    23782479.510    21001305.983 8   6300585.660 9
  20802625.155    20802631.358   -43304957.757 9  42205197.327 7
  22530347.776    22530354.022     9055877.574 8   5779079.432 7
  20751867.720    20751873.332   -15938478.916 9 -13716439.983 7
 90  2 28  6 56 59.0800000  0  4G 6G12G11G13
  23793950.266    23793957.736    21061628.808 9   6347590.397 8
  20799724.396    20799731.329   -43320195.542 9  42193323.714 8
  22536511.575    22536519.113     9088276.083 8   5804325.019 8
  20752691.972    20752696.926   -15934147.869 9 -13713065.153 7
 90  2 28  6 57 14.0800000  0  3G12G11G13
  20796853.522    20796858.279   -43335286.820 6  42181564.286 7
  22542680.464    22542686.217     9120685.780 8   5829579.296 8
  20753529.911    20753535.051   -15929745.215 8 -13709634.514 7
 90  2 28  6 57 29.0800000  0  4G 3G12G11G13
                  23818585.122   -56866533.310 9
  20794009.795    20794015.526   -43350231.262 8  42169919.253 7
  22548850.148    22548855.389     9153106.688 8   5854842.315 7
  20754380.765    20754386.162   -15925271.022 9 -13706148.134 8
 90  2 28  6 57 44.0800000  0  4G 3G12G11G13
                  23829369.964   -56948455.036 9
  20791194.133    20791200.593   -43365028.609 8  42158388.847 8
  22555021.878    22555027.552     9185538.805 8   5880114.106 8
  20755245.984    20755252.841   -15920725.542 8 -13702606.222 8
 90  2 28  6 57 59.0800000  0  4G 3G12G11G13
                  23841460.116   -57050570.971 1
  20788406.190    20788412.082   -43379678.554 9  42146973.308 8
  22561192.917    22561200.444     9217981.965 6   5905394.505 8
  20756123.567    20756130.681   -15916108.922 9 -13699008.869 8
 90  2 28  6 58 14.0800000  0  4G 3G12G11G13
                  23852440.851   -57131368.628 1
  20785646.959    20785651.997   -43394180.921 9  42135672.749 7
  22567368.110    22567376.303     9250435.799 8   5930683.220 8
  20757016.003    20757021.014   -15911421.521 8 -13695356.357 8
 90  2 28  6 58 29.0800000  0  4G 3G12G11G13
                  23881246.106   -57069921.281 1
  20782915.049    20782919.745   -43408535.720 9  42124487.203 8
  22573546.536    22573554.386     9282899.841 8   5955979.873 8
  20757922.461    20757928.388   -15906663.770 8 -13691648.996 7
 90  2 28  6 58 44.0800000  0  4G 3G12G11G13
                  23911473.101   -57008387.907 1
  20780211.330    20780216.367   -43422742.805 8  42113416.747 8
  22579726.877    22579734.608     9315374.222 7   5981284.618 7
  20758840.797    20758846.438   -15901835.564 8 -13687886.785 8
 90  2 28  6 58 59.0800000  0  4G 3G12G11G13
                  23942860.450   -56946768.507 1
  20777535.998    20777541.189   -43436801.692 9  42102461.764 8
  22585909.328    22585917.657     9347858.687 8   6006597.199 8
  20759772.411    20759778.882   -15896937.177 9 -13684069.865 8
 90  2 28  6 59 14.0800000  0  4G 3G12G11G13
                  23974263.246   -56885063.081 1
  20774889.631    20774895.036   -43450712.239 8  42091622.366 8
  22592092.952    22592100.648     9380353.106 7   6031917.518 8
  20760719.222    20760724.705   -15891968.819 8 -13680198.427 8
 90  2 28  6 59 29.0800000  0  4G 3G12G11G13
                  24005448.721   -56823271.628 1
  20772269.479    20772275.542   -43464474.198 9  42080898.763 9
  22598278.870    22598284.669     9412857.425 8   6057245.567 8
  20761677.766    20761682.162   -15886930.762 8 -13676272.664 7
 90  2 28  6 59 44.0800000  0  4G 3G12G11G13
                  24036591.376   -56761394.148 1
  20769677.776    20769685.113   -43478087.485 8  42070291.011 7
  22604463.854    22604470.923     9445371.415 8   6082581.167 8
  20762649.818    20762655.330   -15881823.161 8 -13672292.751 7
 90  2 28  6 59 59.0800000  0  4G 3G12G11G13
                  24067838.695   -56699430.643 1
  20767117.569    20767123.400   -43491551.954 8  42059799.209 9
  22610653.909    22610660.493     9477894.803 7   6107924.074 8
  20763633.919    20763640.432   -15876646.151 9 -13668258.718 8
 90  2 28  7  0 14.0800000  0  4G 3G12G11G13
                  24098779.833   -56637381.111 1
  20764583.758    20764588.494   -43504867.253 7  42049423.636 8
  22616844.227    22616850.403     9510427.536 7   6133274.253 7
  20764631.784    20764636.938   -15871399.829 9 -13664170.679 8
 90  2 28  7  0 29.0800000  0  4G 3G12G11G13
                  24130411.383   -56575245.552 1
  20762076.891    20762084.046   -43518033.380 7  42039164.327 8
  22623037.700    22623043.346     9542969.407 7   6158631.573 8
  20765642.757    20765650.015   -15866084.462 9 -13660028.852 8
 90  2 28  7  0 44.0800000  0  4G 3G12G11G13
                  24161444.029   -56513023.967 1
  20759600.646    20759606.885   -43531049.990 8  42029021.513 8
  22629232.611    22629237.902     9575520.371 8   6183995.970 7
  20766667.267    20766673.366   -15860700.485 8 -13655833.551 8
 90  2 28  7  0 59.0800000  0  4G 3G12G11G13
                  24193137.438   -56450716.355 1
  20757151.692    20757158.378   -43543916.806 9  42018995.413 8
  22635427.683    22635433.679     9608080.054 8   6209367.126 8
  20767705.599    20767710.167   -15855248.136 9 -13651584.979 8
 90  2 28  7  1 14.0800000  0  4G 3G12G11G13
                  24224320.229   -56388322.717 1
  20754732.376    20754737.857   -43556633.832 8  42009086.046 8
  22641625.877    22641632.199     9640648.203 8   6234744.894 8
  20768757.497    20768762.150   -15849727.369 9 -13647283.093 7
 90  2 28  7  1 29.0800000  0  4G 3G12G11G13
                  24255547.988   -56325843.052 1
  20752341.150    20752347.095   -43569200.850 8  41999293.568 8
  22647823.950    22647830.931     9673224.922 8   6260129.339 8
  20769820.556    20769825.194   -15844138.312 9 -13642927.977 7
 90  2 28  7  1 44.0800000  0  4G 3G12G11G13
                  24287173.950   -56263277.361 1
  20749979.396    20749983.932   -43581617.597 8  41989618.168 7
  22654025.229    22654031.687     9705809.941 7   6285520.212 7
  20770896.206    20770903.306   -15838481.227 9 -13638519.882 7
 90  2 28  7  1 59.0800000  0  4G 3G12G11G13
                  24019662.828   -58498809.063 1
  20747644.609    20747648.493   -43593883.988 8  41980059.958 8
  22660227.083    22660235.008     9738403.235 8   6310917.626 8
  20771985.966    20771990.490   -15832756.513 8 -13634059.079 8
 90  2 28  7  2 14.0800000  0  4G 3G12G11G13
                  29251500.793   -58528040.905 8
  20745338.469    20745344.090   -43605999.803 8  41970619.057 7
  22666431.615    22666436.890     9771004.495 7   6336321.269 8
  20773088.442    20773093.882   -15826964.222 8 -13629545.588 7
 90  2 28  7  2 29.0800000  0  4G 3G12G11G13
                  23250053.835   -58557447.193 9
  20743061.461    20743067.590   -43617965.016 9  41961295.513 7
  22672637.404    22672642.483     9803613.328 7   6361730.715 8
  20774203.872    20774208.454   -15821104.675 9 -13624979.717 7
 90  2 28  7  2 44.0800000  0  4G 3G12G11G13
  23244503.937    23244510.240   -58586794.277 8  74393697.706 8
  20740813.591    20740817.670   -43629779.360 9  41952089.534 8
  22678844.861    22678850.784     9836229.893 8   6387146.201 9
  20775331.465    20775337.077   -15815178.131 9 -13620361.646 7
 90  2 28  7  2 59.0800000  0  4G 3G12G11G13
  23238931.043    23238938.999   -58616081.529 8  74370875.988 8
  20738594.357    20738599.545   -43641442.716 9  41943001.208 8
  22685050.589    22685058.362     9868853.962 8   6412567.514 9
  20776471.135    20776476.890   -15809184.934 9 -13615691.634 8
 90  2 28  7  3 14.0800000  0  4G 3G12G11G13
  23233369.368    23233376.866   -58645309.282 7  74348101.126 8
  20736403.537    20736408.429   -43652954.698 9  41934030.814 8
  22691261.305    22691268.111     9901485.498 8   6437994.684 9
  20777623.083    20777629.252   -15803125.203 9 -13610969.782 9
 90  2 28  7  3 29.0800000  0  4G 3G12G11G13
  23227819.498    23227825.286   -58674477.635 8  74325372.574 8
  20734241.812    20734246.296   -43664315.104 8  41925178.550 8
  22697473.973    22697478.995     9934124.450 9   6463427.641 8
  20778790.284    20778795.852   -15796998.791 8 -13606195.970 8
 90  2 28  7  3 44.0800000  0  4G 3G12G11G13
  23222279.866    23222287.056   -58703586.451 8  74302690.405 8
  20732107.968    20732113.228   -43675523.695 8  41916444.568 8
  22703685.318    22703691.080     9966770.603 9   6488866.209 9
  20779968.445    20779974.042   -15790805.771 8 -13601370.244 7
 90  2 28  7  3 59.0800000  0  4G 3G12G11G13
  23216751.731    23216758.600   -58732635.986 8  74280054.445 9
  20730003.769    20730009.430   -43686580.440 8  41907828.923 8
  22709898.852    22709905.126     9999423.605 9   6514310.141 9
  20781160.057    20781166.084   -15784546.596 9 -13596492.962 7
 90  2 28  7  4 14.0800000  0  4G 3G12G11G13
  23211234.522    23211241.433   -58761626.475 8  74257464.473 8
  20727928.396    20727934.282   -43697485.433 9  41899331.521 9
  22716112.984    22716119.347    10032083.062 9   6539759.113 9
  20782364.233    20782369.130   -15778221.869 9 -13591564.628 8
 90  2 28  7  4 29.0800000  0  4G 3G12G11G13
  23205730.978    23205737.023   -58790557.583 7  74234920.767 9
  20725882.458    20725887.953   -43708238.313 8  41890952.668 8
  22722329.866    22722335.600    10064748.963 9   6565213.060 9
  20783579.685    20783584.867   -15771831.771 8 -13586585.341 8
 90  2 28  7  4 44.0800000  0  4G 3G12G11G13
  23200236.527    23200242.108   -58819429.658 9  74212423.069 9
  20723865.566    20723871.270   -43718838.850 9  41882692.507 8
  22728544.413    22728552.808    10097421.309 8   6590672.008 8
  20784809.159    20784813.254   -15765376.186 9 -13581555.012 8
 90  2 28  7  4 59.0800000  0  4G 3G12G11G13
  23194753.574    23194759.333   -58848242.467 8  74189971.540 8
  20721877.840    20721884.005   -43729286.910 9  41874551.157 8
  22734763.717    22734771.722    10130099.996 8   6616135.950 8
  20786048.679    20786054.834   -15758855.382 8 -13576473.882 8
 90  2 28  7  5 14.0800000  0  4G 3G12G11G13
  23189282.984    23189289.143   -58876996.104 8  74167566.119 8
  20719918.562    20719924.930   -43739582.414 9  41866528.674 8
  22740984.603    22740990.876    10162784.656 9   6641604.491 9
  20787300.905    20787307.847   -15752269.634 8 -13571342.129 7
 90  2 28  7  5 29.0800000  0  4G 3G12G11G13
  23183821.644    23183829.436   -58905690.774 8  74145206.652 8
  20717988.348    20717994.828   -43749725.145 9  41858625.254 7
  22747205.757    22747212.191    10195475.235 8   6667077.657 9
  20788566.438    20788573.381   -15745619.250 9 -13566160.019 7
 90  2 28  7  5 44.0800000  0  4G 3G12G11G13
  23178371.645    23178379.107   -58934326.477 8  74122893.136 8
  20716088.069    20716094.020   -43759715.088 9  41850840.879 9
  22753427.873    22753433.978    10228171.695 9   6692555.444 8
  20789846.109    20789851.606   -15738904.477 9 -13560927.717 7
 90  2 28  7  5 59.0800000  0  4G 3G12G11G13
  23172933.415    23172940.334   -58962903.145 8  74100625.621 8
  20714215.687    20714221.945   -43769552.053 8  41843175.711 9
  22759650.937    22759657.092    10260873.763 8   6718037.582 9
  20791135.168    20791141.594   -15732125.340 8 -13555645.277 8
 90  2 28  7  6 14.0800000  0  4G 3G12G11G13
  23167508.128    23167514.102   -58991420.869 8  74078404.048 9
  20712372.287    20712379.057   -43779235.783 8  41835629.955 9
  22765875.178    22765880.972    10293581.310 9   6743524.005 9
  20792437.704    20792443.287   -15725282.079 8 -13550312.877 8
 90  2 28  7  6 29.0800000  0  4G 3G12G11G13
  23162092.399    23162099.368   -59019879.654 8  74056228.409 9
  20710559.699    20710565.152   -43788766.183 9  41828203.660 9
  22772100.406    22772106.426    10326294.034 8   6769014.448 9
  20793751.346    20793756.785   -15718374.806 9 -13544930.597 7
 90  2 28  7  6 44.0800000  0  4G 3G12G11G13
  23156686.758    23156693.841   -59048279.653 8  74034098.561 9
  20708773.966    20708780.510   -43798143.085 8  41820896.983 8
  22778324.393    22778332.041    10359011.973 8   6794508.948 9
  20795077.865    20795084.207   -15711403.850 9 -13539498.666 8
 90  2 28  7  6 59.0800000  0  4G 3G12G11G13
  23151293.896    23151301.408   -59076620.823 8  74012014.563 9
  20707018.593    20707025.888   -43807366.342 8  41813710.042 8
  22784552.770    22784558.807    10391735.156 8   6820007.556 9
  20796416.518    20796423.776   -15704369.443 7 -13534017.304 7
 90  2 28  7  7 14.0800000  0  4G 3G12G11G13
  23145912.989    23145919.012   -59104903.388 8  73989976.222 9
  20705292.042    20705300.575   -43816435.871 9  41806642.868 9
  22790781.150    22790787.066    10424463.197 9   6845509.988 9
  20797768.709    20797772.374   -15697271.909 8 -13528486.785 7
 90  2 28  7  7 29.0800000  0  4G 3G12G11G13
  23140541.582    23140548.365   -59133127.228 9  73967983.644 9
  20703596.074    20703603.716   -43825351.543 8  41799695.572 7
  22797009.079    22797015.710    10457195.828 8   6871015.921 9
  20799131.144    20799134.323   -15690111.150 9 -13522906.973 7
 90  2 28  7  7 44.0800000  0  4G 3G12G11G13
  23135182.296    23135188.070   -59161292.481 8  73946036.707 8
  20701929.643    20701936.635   -43834113.190 8  41792868.321 8
  22803237.148    22803245.736    10489933.052 8   6896525.447 8
  20800505.857    20800510.267   -15682887.250 9 -13517277.942 7
 90  2 28  7  7 59.0800000  0  4G 3G12G11G13
  23129834.429    23129840.002   -59189399.105 9  73924135.449 8
  20700292.844    20700297.842   -43842720.584 9  41786161.242 8
  22809469.520    22809476.391    10522674.800 8   6922038.525 9
  20801891.388    20801897.915   -15675600.739 9 -13511600.132 7
 90  2 28  7  8 14.0800000  0  4G 3G12G11G13
  23124495.970    23124501.615   -59217447.058 9  73902279.925 9
  20698683.893    20698690.126   -43851173.528 8  41779574.538 8
  22815701.309    22815706.928    10555420.886 9   6947554.977 8
  20803290.855    20803295.866   -15668251.762 8 -13505873.656 8
 90  2 28  7  8 29.0800000  0  4G 3G12G11G13
  23119169.702    23119175.533   -59245436.721 9  73880469.808 9
  20697103.994    20697111.171   -43859472.051 8  41773108.148 8
  22821933.960    22821939.565    10588171.092 9   6973074.647 9
  20804700.339    20804706.079   -15660840.865 9 -13500098.910 7
 90  2 28  7  8 44.0800000  0  4G 3G12G11G13
  23113854.746    23113860.963   -59273368.015 8  73858705.187 8
  20695555.056    20695560.048   -43867615.901 8  41766762.287 9
  22828165.850    22828173.518    10620925.293 8   6998597.419 9
  20806122.444    20806127.898   -15653367.912 9 -13494275.832 8
 90  2 28  7  8 59.0800000  0  4G 3G12G11G13
  23108550.371    23108556.825   -59301240.606 9  73836986.312 8
  20694035.262    20694041.013   -43875604.827 9  41760537.144 8
  22834399.123    22834406.942    10653683.548 8   7024123.335 9
  20807557.112    20807561.579   -15645832.876 9 -13488404.389 7
 90  2 28  7  9 14.0800000  0  4G 3G12G11G13
  23103257.136    23103264.026   -59329054.839 9  73815312.905 8
  20692543.286    20692549.093   -43883438.780 8  41754432.765 8
  22840633.631    22840640.588    10686445.477 7   7049652.078 9
  20809002.255    20809008.353   -15638236.255 8 -13482484.943 8
 90  2 28  7  9 29.0800000  0  4G 3G12G11G13
  23097975.256    23097982.003   -59356810.885 8  73793684.837 9
  20691082.740    20691088.565   -43891117.758 9  41748449.154 8
  22846868.071    22846875.404    10719211.185 7   7075183.817 9
  20810459.675    20810464.585   -15630578.296 9 -13476517.707 7
 90  2 28  7  9 44.0800000  0  4G 3G12G11G13
  23092704.415    23092711.441   -59384508.812 9  73772102.069 9
  20689649.871    20689656.169   -43898641.629 8  41742586.394 8
  22853104.003    22853110.978    10751980.155 8   7100718.067 8
  20811928.256    20811932.980   -15622858.937 9 -13470502.621 7
 90  2 28  7  9 59.0800000  0  4G 3G12G11G13
  23087445.522    23087452.863   -59412148.527 9  73750564.651 9
  20688248.415    20688253.839   -43906010.255 9  41736844.609 8
  22859342.214    22859346.748    10784752.306 8   7126254.844 8
  20813408.571    20813414.454   -15615078.731 9 -13464440.115 8
 90  2 28  7 10 14.0800000  0  4G 3G12G11G13
  23082196.796    23082203.278   -59439730.123 8  73729072.516 8
  20686875.201    20686880.768   -43913223.432 8  41731223.952 8
  22865578.234    22865584.286    10817527.730 8   7151794.150 8
  20814901.391    20814906.473   -15607237.575 9 -13458330.141 7
 90  2 28  7 10 29.0800000  0  4G 3G12G11G13
  23076958.723    23076965.341   -59467253.602 8  73707625.665 9
  20685533.982    20685539.203   -43920281.119 9  41725724.448 9
  22871815.006    22871821.287    10850306.165 8   7177335.827 8
  20816403.370    20816408.638   -15599336.003 9 -13452173.067 8
 90  2 28  7 10 44.0800000  0  4G 3G12G11G13
  23071733.915    23071739.310   -59494719.081 8  73686224.006 9
  20684220.102    20684226.517   -43927183.110 9  41720346.259 8
  22878052.405    22878059.086    10883087.520 7   7202879.730 7
  20817918.341    20817926.729   -15591374.174 8 -13445969.040 7
 90  2 28  7 10 59.0800000  0  4G 3G12G11G13
  23066516.970    23066523.845   -59522126.640 9  73664867.473 7
  20682934.982    20682941.924   -43933929.215 9  41715089.554 7
  22884291.484    22884298.227    10915871.657 7   7228425.804 8
  20819446.449    20819451.044   -15583352.197 9 -13439718.139 7
 90  2 28  7 11 14.0800000  0  4G 3G12G11G13
  23061312.587    23061317.932   -59549476.274 8  73643556.083 8
  20681681.025    20681686.825   -43940519.462 8  41709954.282 8
  22890531.877    22890538.419    10948658.432 8   7253973.969 8
  20820983.943    20820988.309   -15575270.362 9 -13433420.601 7
 90  2 28  7 11 29.0800000  0  4G 3G12G11G13
  23056119.717    23056125.684   -59576768.077 9  73622289.755 7
  20680456.581    20680463.436   -43946953.698 8  41704940.595 8
  22896770.588    22896777.245    10981447.579 8   7279523.972 8
  20822532.512    20822539.397   -15567128.551 8 -13427076.346 8
 90  2 28  7 11 44.0800000  0  4G 3G12G11G13
  23050936.849    23050942.959   -59604002.051 8  73601068.493 8
  20679261.945    20679268.425   -43953231.665 8  41700048.671 8
  22903012.415    22903016.836    11014239.132 7   7305075.840 8
  20824093.989    20824099.099   -15558927.128 9 -13420685.626 8
 90  2 28  7 11 59.0800000  0  4G 3G12G11G13
  23045764.620    23045772.082   -59631178.127 8  73579892.358 8
  20678098.368    20678102.988   -43959353.267 8  41695278.593 9
  22909250.887    22909257.661    11047032.863 8   7330629.386 8
  20825666.368    20825671.264   -15550666.358 9 -13414248.680 8
 90  2 28  7 12 14.0800000  0  4G 3G12G11G13
  23040604.138    23040611.866   -59658296.703 8  73558761.022 8
  20676962.365    20676967.830   -43965318.555 9  41690630.318 8
  22915490.024    22915498.197    11079828.778 9   7356184.666 9
  20827249.423    20827255.421   -15542346.573 9 -13407765.725 8
 90  2 28  7 12 29.0800000  0  4G 3G12G11G13
  23035454.360    23035461.794   -59685357.611 8  73537674.621 9
  20675857.120    20675862.723   -43971127.379 8  41686103.969 8
  22921731.136    22921739.659    11112626.751 7   7381741.560 8
  20828845.098    20828850.695   -15533968.056 9 -13401237.028 8
 90  2 28  7 12 44.0800000  0  4G 3G12G11G13
  23030317.468    23030323.571   -59712360.865 8  73516633.159 8
  20674781.988    20674787.323   -43976779.601 9  41681699.626 8
  22927975.030    22927980.077    11145426.503 8   7407299.817 8
  20830449.617    20830455.528   -15525530.861 9 -13394662.594 8
 90  2 28  7 12 59.0800000  0  4G 3G12G11G13
  23025189.254    23025195.857   -59739306.532 8  73495636.563 8
  20673736.058    20673741.228   -43982275.106 9  41677417.418 8
  22934216.875    22934223.292    11178227.997 9   7432859.444 9
  20832065.840    20832071.508   -15517034.880 9 -13388042.360 8
 90  2 28  7 13 14.0800000  0  4G 3G12G11G13
  23020072.794    23020079.005   -59766194.866 9  73474684.624 8
  20672719.944    20672725.748   -43987613.802 9  41673257.394 8
  22940460.841    22940465.695    11211030.950 8   7458420.200 8
  20833693.396    20833699.165   -15508480.654 9 -13381376.707 8
 90  2 28  7 13 29.0800000  0  4G 3G12G11G13
  23014967.260    23014972.326   -59793025.793 9  73453777.424 8
  20671734.925    20671739.254   -43992795.595 9  41669219.643 9
  22946702.353    22946707.672    11243835.396 8   7483982.083 9
  20835331.913    20835337.539   -15499868.358 9 -13374665.828 8
 90  2 28  7 13 44.0800000  0  4G 3G12G11G13
  23009872.508    23009877.688   -59819799.317 8  73432914.949 8
  20670778.255    20670783.673   -43997820.308 9  41665304.271 8
  22952944.539    22952949.914    11276641.201 9   7509545.085 9
  20836981.620    20836987.918   -15491198.307 8 -13367909.951 7
 90  2 28  7 13 59.0800000  0  4G 3G12G11G13
  23004788.710    23004794.505   -59846515.695 8  73412097.006 8
  20669852.096    20669856.934   -44002687.886 9  41661511.355 8
  22959187.002    22959192.989    11309448.146 8   7535108.987 8
  20838643.404    20838649.187   -15482470.932 9 -13361109.394 7
 90  2 28  7 14 14.0800000  0  4G 3G12G11G13
  22999713.962    22999720.559   -59873174.771 9  73391323.710 8
  20668954.220    20668960.474   -44007398.229 8  41657840.947 8
  22965430.378    22965437.374    11342255.904 8   7560673.494 8
  20840315.404    20840321.130   -15473686.059 8 -13354264.052 8
 90  2 28  7 14 29.0800000  0  4G 3G12G11G13
  22994652.600    22994658.889   -59899776.591 8  73370595.044 7
  20668089.340    20668093.648   -44011951.204 8  41654293.171 9
  22971673.285    22971680.135    11375064.763 8   7586238.870 8
  20841997.106    20842004.120   -15464843.765 9 -13347373.944 9
 90  2 28  7 14 44.0800000  0  4G 3G12G11G13
  22989599.975    22989607.967   -59926321.453 8  73349910.753 8
  20667251.984    20667258.124   -44016346.819 8  41650868.033 9
  22977916.805    22977923.418    11407874.296 8   7611804.766 9
  20843691.115    20843696.468   -15455944.231 8 -13340439.232 7
 90  2 28  7 14 59.0800000  0  4G 3G12G11G13
  22984560.342    22984566.731   -59952809.203 8  73329270.968 8
  20666445.082    20666451.851   -44020584.771 8  41647565.717 9
  22984160.996    22984167.091    11440684.471 9   7637371.119 9
  20845396.198    20845401.852   -15446987.835 9 -13333460.223 8
 90  2 28  7 15 14.0800000  0  4G 3G12G11G13
  22979530.124    22979537.329   -59979240.127 8  73308675.464 7
  20665668.497    20665675.717   -44024665.129 8  41644386.223 8
  22990402.916    22990410.724    11473495.341 8   7662938.084 9
  20847109.895    20847116.279   -15437974.954 8 -13326437.204 8
 90  2 28  7 15 29.0800000  0  4G 3G12G11G13
  22974510.581    22974518.680   -60005614.213 8  73288124.256 8
  20664922.455    20664928.724   -44028587.908 9  41641329.524 8
  22996648.120    22996654.845    11506306.411 9   7688505.145 9
  20848835.498    20848842.326   -15428905.706 9 -13319370.269 8
 90  2 28  7 15 44.0800000  0  4G 3G12G11G13
  22969503.409    22969510.148   -60031931.221 9  73267617.520 8
  20664206.176    20664213.582   -44032352.783 8  41638395.850 8
  23002891.561    23002898.875    11539117.746 8   7714072.394 9
  20850573.035    20850578.918   -15419780.134 9 -13312259.437 7
 90  2 28  7 15 59.0800000  0  4G 3G12G11G13
  22964507.225    22964513.493   -60058191.634 8  73247154.870 8
  20663519.525    20663525.089   -44035959.807 8  41635585.179 8
  23009135.788    23009142.896    11571929.258 9   7739639.808 8
  20852319.872    20852324.997   -15410598.544 9 -13305104.929 8
 90  2 28  7 16 14.0800000  0  4G 3G12G11G13
  22959520.365    22959526.861   -60084395.250 8  73226736.484 8
  20662863.459    20662870.490   -44039408.904 8  41632897.561 9
  23015380.452    23015385.212    11604740.738 9   7765207.207 9
  20854078.587    20854083.397   -15401361.186 9 -13297906.988 8
 90  2 28  7 16 29.0800000  0  4G 3G12G11G13
  22954544.758    22954550.768   -60110542.193 8  73206362.266 8
  20662237.496    20662243.200   -44042700.038 8  41630333.031 8
  23021623.982    23021629.472    11637551.997 9   7790774.423 8
  20855847.146    20855852.299   -15392068.247 8 -13290665.730 7
 90  2 28  7 16 44.0800000  0  4G 3G12G11G13
  22949580.255    22949587.002   -60136632.749 8  73186031.983 8
  20661641.451    20661648.624   -44045833.187 8  41627891.613 9
  23027867.361    23027872.386    11670363.045 8   7816341.502 8
  20857625.091    20857631.075   -15382720.212 9 -13283381.558 8
 90  2 28  7 16 59.0800000  0  4G 3G12G11G13
  22944626.141    22944632.952   -60162666.949 8  73165745.604 8
  20661074.932    20661081.179   -44048808.121 8  41625573.489 9
  23034110.362    23034115.283    11703173.739 9   7841908.330 8
  20859414.656    20859419.294   -15373316.891 9 -13276054.282 7
 90  2 28  7 17 14.0800000  0  4G 3G12G11G13
  22939682.966    22939688.683   -60188644.338 8  73145503.502 7
  20660538.456    20660545.189   -44051624.652 7  41623378.786 8
  23040353.412    23040360.065    11735984.007 8   7867474.781 8
  20861214.352    20861219.591   -15363858.272 9 -13268683.941 7
 90  2 28  7 17 29.0800000  0  4G 3G12G11G13
  22934750.524    22934756.412   -60214565.578 8  73125305.162 7
  20660032.869    20660038.619   -44054282.996 8  41621307.346 9
  23046597.604    23046603.409    11768793.582 8   7893040.696 9
  20863024.379    20863030.448   -15354345.047 9 -13261271.042 8
 90  2 28  7 17 44.0800000  0  4G 3G12G11G13
  22929826.437    22929834.099   -60240430.473 8  73105150.722 8
  20659556.598    20659564.158   -44056782.841 8  41619359.419 9
  23052840.300    23052846.931    11801602.530 8   7918606.066 9
  20864845.166    20864850.234   -15344776.966 9 -13253815.371 7
 90  2 28  7 17 59.0800000  0  4G 3G12G11G13
  22924915.065    22924922.433   -60266238.954 7  73085040.247 8
  20659110.777    20659118.477   -44059124.300 8  41617534.923 9
  23059082.456    23059091.624    11834410.708 8   7944170.853 9
  20866676.828    20866682.269   -15335154.470 9 -13246317.326 7
 90  2 28  7 18 14.0800000  0  4G 3G12G11G13
  22920015.168    22920022.552   -60291991.425 7  73064973.411 7
  20658695.900    20658703.343   -44061307.302 7  41615833.885 9
  23065327.199    23065333.720    11867217.972 8   7969734.986 9
  20868517.678    20868523.275   -15325478.178 9 -13238777.343 7
 90  2 28  7 18 29.0800000  0  4G 3G12G11G13
  22915126.611    22915132.428   -60317687.913 7  73044950.191 8
  20658310.110    20658316.984   -44063331.642 7  41614256.490 8
  23071570.582    23071576.477    11900024.175 9   7995298.287 9
  20870369.659    20870375.986   -15315747.840 9 -13231195.255 7
 90  2 28  7 18 44.0800000  0  4G 3G12G11G13
  22910247.620    22910252.514   -60343328.220 8  73024970.733 7
  20657955.643    20657963.193   -44065197.150 8  41612802.831 9
  23077812.269    23077819.838    11932829.093 9   8020860.516 8
  20872230.598    20872237.154   -15305963.780 9 -13223571.325 9
 90  2 28  7 18 59.0800000  0  4G 3G12G11G13
  22905378.217    22905384.584   -60368912.532 8  73005034.917 8
  20657630.699    20657636.460   -44066903.958 9  41611472.845 9
  23084054.594    23084061.647    11965632.866 9   8046421.899 9
  20874103.643    20874109.641   -15296126.185 9 -13215905.644 7
 90  2 28  7 19 14.0800000  0  4G 3G12G11G13
  22900522.042    22900527.014   -60394440.761 7  72985142.809 7
  20657336.588    20657342.875   -44068451.775 9  41610266.734 9
  23090297.526    23090302.909    11998435.389 8   8071982.345 9
  20875986.532    20875992.173   -15286235.195 8 -13208198.396 8
 90  2 28  7 19 29.0800000  0  4G 3G12G11G13
  22895673.472    22895679.396   -60419913.210 9  72965294.161 8
  20657072.512    20657078.946   -44069840.789 8  41609184.384 9
  23096538.524    23096544.986    12031236.252 9   8097541.468 8
  20877877.406    20877884.220   -15276291.132 9 -13200449.764 8
 90  2 28  7 19 44.0800000  0  4G 3G12G11G13
  22890836.271    22890843.190   -60445329.935 9  72945488.948 8
  20656837.670    20656844.819   -44071070.839 8  41608225.895 9
  23102780.436    23102786.259    12064035.560 8   8123099.390 9
  20879780.157    20879785.010   -15266294.107 9 -13192659.868 8
 90  2 28  7 19 59.0800000  0  4G 3G12G11G13
  22886010.854    22886017.558   -60470691.011 8  72925727.097 9
  20656633.893    20656641.135   -44072141.841 8  41607391.357 8
  23109021.061    23109027.564    12096833.113 8   8148655.927 8
  20881691.922    20881698.306   -15256244.273 9 -13184828.829 8
 90  2 28  7 20 14.0800000  0  4G 3G12G11G13
  22881194.201    22881202.772   -60495996.405 8  72906008.631 8
  20656460.505    20656466.960   -44073053.815 7  41606680.729 8
  23115261.407    23115267.734    12129628.787 7   8174211.013 8
  20883614.677    20883619.788   -15246141.926 9 -13176956.851 8
 90  2 28  7 20 29.0800000  0  4G 3G12G11G13
  22876389.067    22876397.216   -60521246.235 7  72886333.485 8
  20656316.991    20656324.054   -44073806.789 7  41606093.991 9
  23121502.000    23121507.154    12162422.560 7   8199764.591 8
  20885548.736    20885553.475   -15235987.194 9 -13169044.078 8
 90  2 28  7 20 44.0800000  0  4G 3G12G11G13
  22871594.987    22871603.715   -60546440.671 8  72866701.481 8
  20656204.263    20656210.410   -44074400.703 7  41605631.215 8
  23127741.588    23127748.874    12195214.131 7   8225316.452 8
  20887489.606    20887495.719   -15225780.310 9 -13161090.677 8
 90  2 28  7 20 59.0800000  0  4G 3G12G11G13
  22866812.318    22866818.786   -60571579.681 8  72847112.675 7
  20656122.526    20656127.775   -44074835.373 9  41605292.503 9
  23133981.100    23133988.343    12228003.668 7   8250866.751 8
  20889441.438    20889446.591   -15215521.428 9 -13153096.719 8
 90  2 28  7 21 14.0800000  0  4G 3G12G11G13
  22862037.984    22862044.953   -60596663.234 7  72827567.070 8
  20656070.737    20656074.881   -44075110.596 8  41605078.043 8
  23140220.570    23140227.931    12260791.041 8   8276415.382 9
  20891402.885    20891410.656   -15205210.789 9 -13145062.449 7
 90  2 28  7 21 29.0800000  0  4G 3G12G11G13
  22857276.923    22857282.482   -60621691.510 9  72808064.533 8
  20656048.111    20656053.671   -44075226.524 9  41604987.702 9
  23146460.326    23146466.546    12293575.902 9   8301961.998 9
  20893376.809    20893380.789   -15194848.520 9 -13136987.963 8
 90  2 28  7 21 44.0800000  0  4G 3G12G11G13
  22852523.008    22852530.915   -60646664.546 8  72788605.041 9
  20656055.848    20656061.570   -44075183.113 8  41605021.527 7
  23152698.754    23152705.521    12326358.087 8   8327506.558 9
  20895357.659    20895363.170   -15184435.090 8 -13128873.589 8
 90  2 28  7 21 59.0800000  0  4G 3G12G11G13
  22847782.073    22847788.941   -60671582.482 8  72769188.463 8
  20656095.542    20656099.207   -44074980.314 8  41605179.540 8
  23158936.253    23158943.929    12359137.734 9   8353049.142 9
  20897348.926    20897355.239   -15173970.325 9 -13120719.220 8
 90  2 28  7 22 14.0800000  0  4G 3G12G11G13
  22843050.574    22843056.934   -60696445.497 8  72749814.724 8
  20656163.694    20656169.082   -44074618.023 8  41605461.834 8
  23165173.905    23165180.501    12391914.752 8   8378589.683 9
  20899350.496    20899356.179   -15163454.421 9 -13112524.992 8
 90  2 28  7 22 29.0800000  0  4G 3G12G11G13
  22838328.269    22838335.760   -60721253.306 8  72730483.973 8
  20656262.831    20656268.470   -44074096.188 8  41605868.472 8
  23171410.466    23171417.387    12424689.039 8   8404128.099 9
  20901360.966    20901366.635   -15152887.584 9 -13104291.073 8
 90  2 28  7 22 44.0800000  0  4G 3G12G11G13
  22833619.815    22833626.211   -60746006.087 8  72711196.108 8
  20656393.170    20656398.849   -44073414.787 8  41606399.417 9
  23177645.948    23177653.909    12457460.466 7   8429664.243 9
  20903381.081    20903386.492   -15142269.951 9 -13096017.578 7
 90  2 28  7 22 59.0800000  0  4G 3G12G11G13
  22828919.481    22828926.736   -60770704.032 9  72691950.973 8
  20656551.365    20656557.799   -44072573.800 8  41607054.748 9
  23183880.999    23183888.653    12490228.996 6   8455198.114 9
  20905410.296    20905417.467   -15131602.117 9 -13087704.968 8
 90  2 28  7 23 14.0800000  0  4G 3G12G11G13
  22824229.944    22824237.277   -60795347.390 8  72672748.395 8
  20656742.057    20656749.346   -44071573.246 9  41607834.407 9
  23190115.185    23190124.284    12522994.229 7   8480729.412 9
  20907451.130    20907456.341   -15120884.241 9 -13079353.362 7
 90  2 28  7 23 29.0800000  0  4G 3G12G11G13
  22819551.267    22819557.950   -60819936.056 8  72653588.407 9
  20656963.335    20656969.596   -44070413.101 8  41608738.403 9
  23196350.662    23196357.454    12555756.275 6   8506258.271 8
  20909499.663    20909505.403   -15110116.648 8 -13070963.031 9
 90  2 28  7 23 44.0800000  0  4G 3G12G11G13
  22814882.049    22814889.075   -60844470.162 8  72634470.965 8
  20657214.222    20657220.930   -44069093.341 9  41609766.774 8
  23202583.785    23202590.918    12588514.838 8   8531784.422 8
  20911558.526    20911563.108   -15099299.484 9 -13062534.058 8
 90  2 28  7 23 59.0800000  0  4G 3G12G11G13
  22810224.979    22810230.682   -60868949.729 8  72615396.005 9
  20657496.477    20657502.439   -44067613.890 8  41610919.596 9
  23208818.966    23208823.798    12621269.966 6   8557307.924 8
  20913626.091    20913632.017   -15088432.929 9 -13054066.614 8
 90  2 28  7 24 14.0800000  0  4G 3G12G11G13
  22805577.025    22805583.199   -60893374.810 8  72596363.483 8
  20657807.802    20657814.830   -44065974.750 8  41612196.846 8
  23215051.614    23215057.826    12654021.555 8   8582828.644 8
  20915702.755    20915709.139   -15077516.821 8 -13045560.539 8
 90  2 28  7 24 29.0800000  0  4G 3G12G11G13
  22800938.378    22800945.153   -60917745.799 9  72577373.120 9
  20658150.168    20658156.315   -44064175.982 8  41613598.474 9
  23221283.478    23221288.374    12686769.381 9   8608346.488 9
  20917789.694    20917795.477   -15066551.786 9 -13037016.359 8
 90  2 28  7 24 44.0800000  0  4G 3G12G11G13
  22796311.301    22796317.983   -60942062.452 9  72558425.106 8
  20658523.423    20658528.941   -44062217.493 8  41615124.560 8
  23227513.861    23227520.038    12719513.466 9   8633861.366 8
  20919885.532    20919891.473   -15055537.700 9 -13028433.932 8
 90  2 28  7 24 59.0800000  0  4G 3G12G11G13
  22791694.190    22791700.371   -60966324.661 9  72539519.490 9
  20658926.352    20658932.582   -44060099.195 9  41616775.181 9
  23233744.577    23233749.913    12752253.736 9   8659373.245 8
  20921990.529    20921996.198   -15044474.872 9 -13019813.551 7
 90  2 28  7 25 14.0800000  0  4G 3G12G11G13
  22787087.638    22787093.198   -60990532.495 8  72520656.252 8
  20659360.376    20659367.198   -44057820.856 9  41618550.512 9
  23239973.723    23239980.250    12784990.514 8   8684882.438 9
  20924105.657    20924111.511   -15033362.917 9 -13011154.879 7
 90  2 28  7 25 29.0800000  0  4G 3G12G11G13
  22782490.875    22782497.786   -61014686.126 9  72501835.261 8
  20659824.204    20659829.225   -44055382.596 8  41620450.456 8
  23246201.448    23246208.677    12817723.364 7   8710388.524 9
  20926229.513    20926234.623   -15022202.407 9 -13002458.349 8
 90  2 28  7 25 44.0800000  0  4G 3G12G11G13
  22777905.072    22777911.433   -61038785.886 9  72483056.258 8
  20660319.442    20660324.108   -44052784.498 8  41622474.928 9
  23252428.683    23252437.189    12850452.198 7   8735891.521 9
  20928361.954    20928366.936   -15010993.753 9 -12993724.330 7
 90  2 28  7 25 59.0800000  0  4G 3G12G11G13
  22773328.206    22773335.174   -61062831.750 8  72464319.237 8
  20660842.608    20660849.016   -44050026.628 8  41624623.922 8
  23258654.487    23258664.131    12883176.777 7   8761391.193 9
  20930503.955    20930509.108   -14999737.291 9 -12984953.045 7
 90  2 28  7 26 14.0800000  0  4G 3G12G11G13
  22768763.444    22768769.998   -61086823.911 8  72445624.076 8
  20661398.763    20661405.036   -44047108.953 9  41626897.434 8
  23264883.612    23264891.266    12915896.882 8   8786887.350 8
  20932654.311    20932661.297   -14988433.100 9 -12976144.578 8
 90  2 28  7 26 29.0800000  0  4G 3G12G11G13
  22764207.798    22764216.155   -61110762.269 8  72426970.835 9
  20661983.598    20661990.353   -44044031.560 9  41629295.388 8
  23271108.708    23271116.741    12948612.479 8   8812380.025 9
  20934814.713    20934821.527   -14977081.430 9 -12967299.111 7
 90  2 28  7 26 44.0800000  0  4G 3G12G11G13
  22759663.528    22759669.845   -61134646.948 9  72408359.430 8
  20662599.981    20662606.603   -44040794.281 8  41631817.941 9
  23277333.446    23277340.814    12981323.507 9   8837869.147 8
  20936985.589    20936990.857   -14965682.372 8 -12958416.708 8
 90  2 28  7 26 59.0800000  0  4G 3G12G11G13
  22755129.016    22755135.191   -61158478.030 9  72389789.787 9
  20663245.333    20663253.919   -44037397.159 8  41634465.050 8
  23283558.155    23283564.118    13014030.021 8   8863354.737 9
  20939161.874    20939168.674   -14954236.062 9 -12949497.492 7
 90  2 28  7 27 14.0800000  0  4G 3G12G11G13
  22750604.007    22750609.694   -61182255.669 9  72371261.774 9
  20663923.635    20663930.154   -44033840.202 8  41637236.699 9
  23289780.561    23289787.368    13046731.970 9   8888836.797 8
  20941349.464    20941355.562   -14942742.617 8 -12940541.553 8
 90  2 28  7 27 29.0800000  0  4G 3G12G11G13
  22746089.614    22746094.908   -61205979.857 9  72352775.412 9
  20664630.080    20664637.711   -44030123.364 8  41640132.931 8
  23296003.282    23296008.626    13079429.117 9   8914315.102 7
  20943545.753    20943551.894   -14931202.668 8 -12931549.387 8
 90  2 28  7 27 44.0800000  0  4G 3G12G11G13
  22741585.981    22741591.011   -61229650.647 9  72334330.654 8
  20665368.653    20665375.125   -44026246.682 9  41643153.703 9
  23302224.747    23302228.606    13112121.292 9   8939789.546 7
  20945750.514    20945757.156   -14919615.799 9 -12922520.661 7
 90  2 28  7 27 59.0800000  0  4G 3G12G11G13
  22737090.756    22737096.680   -61253268.143 9  72315927.443 9
  20666136.970    20666143.911   -44022210.035 8  41646299.145 8
  23308444.685    23308448.658    13144808.554 9   8965260.195 7
  20947964.146    20947971.603   -14907982.434 8 -12913455.704 7
 90  2 28  7 28 14.0800000  0  4G 3G12G11G13
  22732606.183    22732613.681   -61276832.487 9  72297565.617 8
  20666935.566    20666940.318   -44018013.409 8  41649569.227 9
  23314663.996    23314669.547    13177490.722 9   8990726.822 8
  20950188.109    20950192.761   -14896302.710 9 -12904354.591 8
 90  2 28  7 28 29.0800000  0  4G 3G12G11G13
  22728131.921    22728138.389   -61300343.601 9  72279245.289 9
  20667763.747    20667771.253   -44013656.920 8  41652963.898 8
  23320882.381    23320887.710    13210167.876 8   9016189.545 8
  20952418.339    20952423.465   -14884577.056 9 -12895217.712 8
 90  2 28  7 28 44.0800000  0  4G 3G12G11G13
  22723668.326    22723673.742   -61323801.885 9  72260966.113 8
  20668623.461    20668630.513   -44009140.605 8  41656483.097 8
  23327098.716    23327105.416    13242839.688 8   9041648.069 8
  20954658.015    20954663.482   -14872805.640 8 -12886045.167 7
 90  2 28  7 28 59.0800000  0  4G 3G12G11G13
  22719214.526    22719220.450   -61347207.140 9  72242728.273 8
  20669512.373    20669519.182   -44004464.516 7  41660126.797 8
  23333315.946    23333322.320    13275506.136 8   9067102.403 8
  20956906.590    20956911.457   -14860988.692 9 -12876837.151 8
 90  2 28  7 29 14.0800000  0  4G 3G12G11G13
  22714769.940    22714778.118   -61370559.496 9  72224531.667 9
  20670432.894    20670440.594   -43999628.555 8  41663895.075 8
  23339529.437    23339536.927    13308167.214 8   9092552.536 8
  20959164.580    20959169.791   -14849126.084 8 -12867593.570 8
 90  2 28  7 29 29.0800000  0  4G 3G12G11G13
  22710337.804    22710343.277   -61393859.108 8  72206376.148 8
  20671384.270    20671390.932   -43994632.693 8  41667787.945 9
  23345745.214    23345751.306    13340822.774 9   9117998.358 9
  20961431.586    20961435.151   -14837218.161 8 -12858314.671 7
 90  2 28  7 29 44.0800000  0  4G 3G12G11G13
  22705914.067    22705919.390   -61417106.063 9  72188261.658 8
  20672365.107    20672371.183   -43989477.142 9  41671805.245 8
  23351957.124    23351965.008    13373472.754 9   9143439.857 9
  20963704.400    20963710.684   -14825265.250 8 -12849000.706 8
 90  2 28  7 29 59.0800000  0  4G 3G12G11G13
  22701501.062    22701505.884   -61440300.283 9  72170188.266 8
  20673376.463    20673383.570   -43984161.805 8  41675947.054 8
  23358170.433    23358177.269    13406117.192 9   9168877.064 9
  20965987.461    20965993.573   -14813267.310 8 -12839651.650 8
 90  2 28  7 30 14.0800000  0  4G 3G12G11G13
  22697095.663    22697102.517   -61463441.908 8  72152155.853 8
  20674418.484    20674424.878   -43978686.690 8  41680213.370 8
  23364380.558    23364388.274    13438756.001 9   9194309.911 9
  20968279.020    20968285.848   -14801224.635 9 -12830267.734 8
 90  2 28  7 30 29.0800000  0  4G 3G12G11G13
  22692703.048    22692707.992   -61486531.196 9  72134164.212 9
  20675491.359    20675498.068   -43973051.820 8  41684604.172 9
  23370589.843    23370597.408    13471388.979 9   9219738.232 9
  20970578.880    20970585.793   -14789137.523 9 -12820849.217 8
 90  2 28  7 30 44.0800000  0  4G 3G12G11G13
  22688319.914    22688324.020   -61509568.187 8  72116213.322 8
  20676593.950    20676601.056   -43967257.208 8  41689119.447 8
  23376799.939    23376805.444    13504016.013 9   9245161.893 8
  20972888.412    20972893.179   -14777005.939 9 -12811396.032 8
 90  2 28  7 30 59.0800000  0  4G 3G12G11G13
  22683945.007    22683950.709   -61532552.746 9  72098303.290 9
  20677726.043    20677733.847   -43961302.896 8  41693759.175 9
  23383008.054    23383012.295    13536637.028 9   9270580.896 8
  20975205.871    20975209.966   -14764830.040 9 -12801908.312 8
 90  2 28  7 31 14.0800000  0  4G 3G12G11G13
  22679580.474    22679586.534   -61555485.114 8  72080433.930 8
  20678889.298    20678896.755   -43955188.856 9  41698523.349 8
  23389214.923    23389218.560    13569251.912 9   9295995.108 8
  20977530.772    20977536.440   -14752610.136 9 -12792386.315 7
 90  2 28  7 31 29.0800000  0  4G 3G12G11G13
  22675226.896    22675232.519   -61578365.373 9  72062605.187 8
  20680084.491    20680090.886   -43948915.123 8  41703411.958 9
  23395419.983    23395423.498    13601860.577 9   9321404.472 8
  20979864.859    20979869.798   -14740346.491 9 -12782830.222 8
 90  2 28  7 31 44.0800000  0  4G 3G12G11G13
  22670881.166    22670888.227   -61601193.398 8  72044817.138 8
  20681307.241    20681314.079   -43942481.467 7  41708425.191 8
  23401622.878    23401628.447    13634463.189 9   9346809.128 8
  20982206.129    20982211.983   -14728039.155 8 -12773240.061 8
 90  2 28  7 31 59.0800000  0  4G 3G12G11G13
  22666548.700    22666554.366   -61623969.495 9  72027069.556 9
  20682562.762    20682568.494   -43935888.166 8  41713562.817 8
  23407825.230    23407831.636    13667059.614 7   9372208.952 7
  20984557.587    20984562.483   -14715688.610 9 -12763616.257 8
 90  2 28  7 32 14.0800000  0  4G 3G12G11G13
  22662223.896    22662230.171   -61646693.774 9  72009362.343 8
  20683846.733    20683853.878   -43929135.315 8  41718824.758 8
  23414026.673    23414033.884    13699649.696 8   9397603.831 8
  20986915.141    20986920.609   -14703294.733 9 -12753958.681 8
 90  2 28  7 32 29.0800000  0  4G 3G12G11G13
  22657909.833    22657915.327   -61669366.351 8  71991695.425 8
  20685162.356    20685169.830   -43922222.972 8  41724211.011 8
  23420227.990    23420234.700    13732233.263 6   9422993.595 9
  20989280.507    20989287.163   -14690857.820 9 -12744267.596 7
 90  2 28  7 32 44.0800000  0  4G 3G12G11G13
  22653606.343    22653610.006   -61691987.192 9  71974068.822 8
  20686509.591    20686515.166   -43915151.109 8  41729721.543 9
  23426424.296    23426434.559    13764810.319 7   9448378.303 9
  20991656.435    20991662.561   -14678378.121 8 -12734543.134 8
 90  2 28  7 32 59.0800000  0  4G 3G12G11G13
  22649309.915    22649315.002   -61714556.290 8  71956482.527 8
  20687884.376    20687890.702   -43907919.814 8  41735356.311 8
  23432624.956    23432631.276    13797380.660 6   9473757.759 9
  20994039.860    20994044.512   -14665855.745 9 -12724785.468 8
 90  2 28  7 33 14.0800000  0  4G 3G12G11G13
  22645025.636    22645029.750   -61737074.025 8  71938936.261 8
  20689292.100    20689298.054   -43900529.157 9  41741115.256 8
  23438821.383    23438827.950    13829944.298 7   9499132.034 9
  20996430.868    20996436.694   -14653290.999 9 -12714994.744 8
 90  2 28  7 33 29.0800000  0  4G 3G12G11G13
  22640749.677    22640756.345   -61759540.409 8  71921429.997 9
  20690727.441    20690733.691   -43892979.203 8  41746998.336 7
  23445017.356    23445023.104    13862501.065 9   9524500.961 8
  20998828.688    20998834.958   -14640684.199 9 -12705171.261 8
 90  2 28  7 33 44.0800000  0  4G 3G12G11G13
  22636485.044    22636491.340   -61781955.455 8  71903963.729 8
  20692194.791    20692201.926   -43885269.916 7  41753005.574 8
  23451211.963    23451218.004    13895051.088 9   9549864.659 8
  21001236.066    21001241.993   -14628035.298 9 -12695314.969 8
 90  2 28  7 33 59.0800000  0  4G 3G12G11G13
  22632228.560    22632235.422   -61804319.256 8  71886537.425 9
  20693692.256    20693699.107   -43877401.332 8  41759136.912 9
  23457403.712    23457410.966    13927594.016 9   9575222.751 9
  21003650.915    21003656.698   -14615344.517 9 -12685426.075 8
 90  2 28  7 34 14.0800000  0  4G 3G12G11G13
  22627983.145    22627989.412   -61826632.020 8  71869150.867 8
  20695221.389    20695227.240   -43869373.476 8  41765392.382 8
  23463595.854    23463601.987    13960129.979 9   9600575.456 8
  21006073.661    21006080.031   -14602611.876 9 -12675504.533 8
 90  2 28  7 34 29.0800000  0  4G 3G12G11G13
  22623746.608    22623752.589   -61848893.592 9  71851804.209 9
  20696777.643    20696785.099   -43861186.527 8  41771771.817 9
  23469785.842    23469791.543    13992659.040 8   9625922.809 9
  21008504.936    21008511.292   -14589837.412 9 -12665550.400 8
 90  2 28  7 34 44.0800000  0  4G 3G12G11G13
  22619520.882    22619526.004   -61871104.202 9  71834497.264 8
  20698366.418    20698372.708   -43852840.593 8  41778275.133 9
  23475975.619    23475980.623    14025180.860 9   9651264.478 9
  21010944.167    21010948.591   -14577021.393 9 -12655563.889 8
 90  2 28  7 34 59.0800000  0  4G 3G12G11G13
  22615304.192    22615310.373   -61893263.969 8  71817229.953 9
  20699984.118    20699990.151   -43844335.550 8  41784902.443 8
  23482162.249    23482168.644    14057695.432 8   9676600.491 9
  21013390.352    21013395.505   -14564164.130 7 -12645545.230 7
 90  2 28  7 35 14.0800000  0  4G 3G12G11G13
  22611095.379    22611102.054   -61915372.902 9  71800002.211 9
  20701632.795    20701641.529   -43835671.421 8  41791653.689 8
  23488346.631    23488353.381    14090202.750 7   9701930.833 8
  21015845.895    21015850.691   -14551265.757 9 -12635494.560 7
 90  2 28  7 35 29.0800000  0  4G 3G12G11G13
  22606898.543    22606902.836   -61937431.044 8  71782814.063 9
  20703312.161    20703319.231   -43826848.260 8  41798528.890 8
  23494527.129    23494536.919    14122702.866 5   9727255.601 9
  21018306.676    21018313.432   -14538326.544 8 -12625412.054 8
 90  2 28  7 35 44.0800000  0  4G 3G12G11G13
  22602710.886    22602716.260   -61959438.656 8  71765665.278 7
  20705022.711    20705028.926   -43817866.068 7  41805527.984 8
  23500710.958    23500721.585    14155195.760 5   9752574.660 9
  21020776.356    21020783.112   -14525346.679 8 -12615297.875 8
 90  2 28  7 35 59.0800000  0  4G 3G12G11G13
  22598532.016    22598537.954   -61981395.625 8  71748555.986 9
  20706760.809    20706767.257   -43808725.122 8  41812650.792 8
  23506893.673    23506902.934    14187681.092 5   9777887.832 8
  21023254.251    21023261.565   -14512326.483 9 -12605152.256 7
 90  2 28  7 36 14.0800000  0  4G 3G12G11G13
  22594363.261    22594369.007   -62003302.026 8  71731486.052 9
  20708530.960    20708538.105   -43799425.282 8  41819897.400 8
  23513076.754    23513083.650    14220159.015 6   9803195.292 9
  21025739.671    21025746.785   -14499265.680 9 -12594975.013 8
 90  2 28  7 36 29.0800000  0  4G 3G12G11G13
  22590204.517    22590211.106   -62025157.990 8  71714455.438 8
  20710331.708    20710339.032   -43789966.685 8  41827267.730 8
  23519256.189    23519261.293    14252629.410 8   9828496.923 9
  21028233.249    21028238.145   -14486164.847 9 -12584766.577 9
 90  2 28  7 36 44.0800000  0  4G 3G12G11G13
  22586054.028    22586061.619   -62046963.807 8  71697463.917 9
  20712160.870    20712167.403   -43780349.509 9  41834761.628 8
  23525433.589    23525439.595    14285091.919 8   9853792.361 8
  21030734.209    21030739.620   -14473024.332 9 -12574527.216 8
 90  2 28  7 36 59.0800000  0  4G 3G12G11G13
  22581915.238    22581921.026   -62068719.459 8  71680511.476 9
  20714020.471    20714028.260   -43770573.964 8  41842378.916 9
  23531609.658    23531615.567    14317546.626 9   9879081.730 9
  21033242.468    21033247.779   -14459844.368 9 -12564257.135 7
 90  2 28  7 37 14.0800000  0  4G 3G12G11G13
  22577783.737    22577791.307   -62090425.004 8  71663598.077 7
  20715912.268    20715918.865   -43760639.932 8  41850119.717 9
  23537784.214    23537789.683    14349993.552 9   9904365.031 9
  21035758.138    21035763.892   -14446624.812 9 -12553956.182 7
 90  2 28  7 37 29.0800000  0  4G 3G12G11G13
  22573663.091    22573670.560   -62112080.610 8  71646723.602 8
  20717833.141    20717838.941   -43750547.518 8  41857983.926 8
  23543956.907    23543963.030    14382432.579 9   9929642.185 9
  21038280.505    21038286.475   -14433365.532 9 -12543624.270 8
 90  2 28  7 37 44.0800000  0  4G 3G12G11G13
  22569553.126    22569558.112   -62133686.222 8  71629888.067 8
  20719783.606    20719789.903   -43740296.660 8  41865971.597 7
  23550128.511    23550134.724    14414863.853 9   9954913.311 9
  21040811.028    21040817.656   -14420066.953 8 -12533261.727 8
 90  2 28  7 37 59.0800000  0  4G 3G12G11G13
  22565451.475    22565455.517   -62155241.971 9  71613091.378 8
  20721763.472    20721770.732   -43729887.594 9  41874082.545 8
  23556298.503    23556304.962    14447287.260 9   9980178.315 9
  21043350.224    21043355.778   -14406729.338 8 -12522868.782 7
 90  2 28  7 38 14.0800000  0  4G 3G12G11G13
  22561358.123    22561363.396   -62176747.933 9  71596333.483 8
  20723774.257    20723779.982   -43719320.191 8  41882316.868 8
  23562467.496    23562473.140    14479702.710 8  10005437.114 9
  21045894.598    21045900.009   -14393352.837 9 -12512445.510 7
 90  2 28  7 38 29.0800000  0  4G 3G12G11G13
  22557275.117    22557279.831   -62198204.280 8  71579614.254 8
  20725815.016    20725822.487   -43708594.698 9  41890674.392 8
  23568633.227    23568640.234    14512110.040 7  10030689.570 9
  21048447.616    21048453.742   -14379937.667 8 -12501992.116 8
 90  2 28  7 38 44.0800000  0  4G 3G12G11G13
  22553200.245    22553207.557   -62219611.173 8  71562933.561 8
  20727886.515    20727891.976   -43697711.269 8  41899154.979 9
  23574797.429    23574805.979    14544509.173 6  10055935.613 9
  21051007.273    21051014.201   -14366484.061 9 -12491508.789 8
 90  2 28  7 38 59.0800000  0  4G 3G12G11G13
  22549136.363    22549142.938   -62240968.650 9  71546291.378 9
  20729987.666    20729993.803   -43686669.918 8  41907758.628 8
  23580959.823    23580969.992    14576900.094 8  10081175.253 9
  21053576.603    21053580.025   -14352991.996 8 -12480995.510 7
 90  2 28  7 39 14.0800000  0  4G 3G12G11G13
  22545081.903    22545088.242   -62262276.535 8  71529687.835 9
  20732118.745    20732124.059   -43675470.679 9  41916485.296 8
  23587123.654    23587131.659    14609282.618 8  10106408.367 9
  21056150.168    21056155.679   -14339461.729 9 -12470452.451 7
 90  2 28  7 39 29.0800000  0  4G 3G12G11G13
  22541036.988    22541042.611   -62283535.278 9  71513122.601 8
  20734281.050    20734286.400   -43664113.678 8  41925334.906 7
  23593285.063    23593292.904    14641656.733 8  10131634.935 9
  21058731.575    21058737.015   -14325893.466 9 -12459879.747 8
 90  2 28  7 39 44.0800000  0  4G 3G12G11G13
  22537000.150    22537005.230   -62304744.809 9  71496595.704 8
  20736471.148    20736477.445   -43652598.939 8  41934307.420 8
  23599444.473    23599451.040    14674022.480 8  10156854.990 8
  21061321.138    21061326.964   -14312287.426 9 -12449277.670 8
 90  2 28  7 39 59.0800000  0  4G 3G12G11G13
  22532974.366    22532980.577   -62325905.311 8  71480107.010 8
  20738693.179    20738698.900   -43640926.635 8  41943402.714 9
  23605602.731    23605608.357    14706379.634 9  10182068.361 8
  21063917.827    21063923.796   -14298643.991 8 -12438646.413 8
 90  2 28  7 40 14.0800000  0  4G 3G12G11G13
  22528956.839    22528962.613   -62347016.877 7  71463656.452 8
  20740943.568    20740950.348   -43629096.911 9  41952620.664 8
  23611757.959    23611763.280    14738728.318 9  10207275.128 8
  21066521.785    21066526.867   -14284962.813 9 -12427985.756 7
 90  2 28  7 40 29.0800000  0  4G 3G12G11G13
  22524948.877    22524954.014   -62368079.436 8  71447244.098 8
  20743225.698    20743231.985   -43617109.712 8  41961961.332 7
  23617912.156    23617916.559    14771068.602 9  10232475.375 8
  21069132.240    21069137.265   -14271244.237 9 -12417295.955 8
 90  2 28  7 40 44.0800000  0  4G 3G12G11G13
  22520950.517    22520956.319   -62389093.181 9  71430869.770 8
  20745535.864    20745543.112   -43604965.258 8  41971424.531 8
  23624065.799    23624070.352    14803400.117 9  10257668.778 8
  21071749.677    21071753.500   -14257488.827 9 -12406577.462 7
 90  2 28  7 40 59.0800000  0  4G 3G12G11G13
  22516961.665    22516966.795   -62410058.142 8  71414533.449 8
  20747876.286    20747883.062   -43592663.599 8  41981010.227 8
  23630215.460    23630221.262    14835722.968 9  10282855.437 7
  21074372.753    21074378.593   -14243696.391 9 -12395830.099 8
 90  2 28  7 41 14.0800000  0  4G 3G12G11G13
  22512980.325    22512985.133   -62430974.466 8  71398235.034 8
  20750247.484    20750254.776   -43580204.863 8  41990718.334 8
  23636364.857    23636370.140    14868037.041 9  10308035.272 9
  21077004.184    21077012.014   -14229867.114 9 -12385054.071 6
 90  2 28  7 41 29.0800000  0  4G 3G12G11G13
  22509010.340    22509015.241   -62451842.256 8  71381974.423 9
  20752646.842    20752654.137   -43567589.058 8  42000548.830 9
  23642512.541    23642518.042    14900342.380 9  10333208.300 9
  21079644.230    21079649.785   -14216001.057 9 -12374249.361 7
 90  2 28  7 41 44.0800000  0  4G 3G12G11G13
  22505048.175    22505054.006   -62472661.594 8  71365751.571 8
  20755078.621    20755085.477   -43554816.228 9  42010501.666 8
  23648656.693    23648663.436    14932639.064 9  10358374.590 8
  21082290.888    21082296.470   -14202098.565 9 -12363416.241 8
 90  2 28  7 41 59.0800000  0  4G 3G12G11G13
  22501094.717    22501100.669   -62493432.383 8  71349566.551 8
  20757540.425    20757546.064   -43541886.474 8  42020576.796 9
  23654801.811    23654807.688    14964926.800 9  10383533.843 8
  21084942.982    21084947.391   -14188159.654 9 -12352554.738 8
 90  2 28  7 42 14.0800000  0  4G 3G12G11G13
  22497151.597    22497156.248   -62514154.861 9  71333419.179 8
  20760029.724    20760036.669   -43528800.036 9  42030774.003 8
  23660943.639    23660950.746    14997205.493 8  10408686.037 9
  21087602.288    21087607.112   -14174184.670 9 -12341665.151 8
 90  2 28  7 42 29.0800000  0  4G 3G12G11G13
  22493218.065    22493222.336   -62534829.295 9  71317309.257 8
  20762549.655    20762557.472   -43515557.004 8  42041093.240 8
  23667085.012    23667091.411    15029475.168 7  10433831.194 9
  21090267.890    21090272.958   -14160173.588 9 -12330747.421 8
 90  2 28  7 42 44.0800000  0  4G 3G12G11G13
  22489292.431    22489296.688   -62555455.848 7  71301236.639 8
  20765100.179    20765106.111   -43502157.467 8  42051534.427 8
  23673223.512    23673231.174    15061735.905 8  10458969.415 9
  21092940.761    21092946.545   -14146126.895 8 -12319801.954 8
 90  2 28  7 42 59.0800000  0  4G 3G12G11G13
  22485376.470    22485382.022   -62576034.291 8  71285201.509 9
  20767680.366    20767685.268   -43488601.530 8  42062097.491 8
  23679361.601    23679368.755    15093987.591 7  10484100.554 9
  21095620.472    21095625.540   -14132044.338 9 -12308828.566 8
 90  2 28  7 43 14.0800000  0  4G 3G12G11G13
  22481469.982    22481474.782   -62596564.823 8  71269203.729 7
  20770288.066    20770295.247   -43474889.426 8  42072782.234 8
  23685494.903    23685503.581    15126230.080 8  10509224.554 8
  21098307.424    21098313.293   -14117926.311 9 -12297827.505 8
 90  2 28  7 43 29.0800000  0  4G 3G12G11G13
  22477571.371    22477576.816   -62617047.565 8  71253243.159 7
  20772926.234    20772933.783   -43461021.212 9  42083588.633 8
  23691629.491    23691636.752    15158463.400 9  10534341.439 8
  21101001.158    21101005.038   -14103772.950 9 -12286798.911 9
 90  2 28  7 43 44.0800000  0  4G 3G12G11G13
  22473684.007    22473688.558   -62637482.616 8  71237319.752 8
  20775595.990    20775603.381   -43446997.026 8  42094516.555 8
  23697763.222    23697769.585    15190687.275 9  10559450.927 9
  21103699.271    21103706.370   -14089584.705 9 -12275743.142 8
 90  2 28  7 43 59.0800000  0  4G 3G12G11G13
  22469803.461    22469809.972   -62657870.244 8  71221433.306 7
  20778294.514    20778300.754   -43432816.980 8  42105565.933 9
  23703894.128    23703898.173    15222901.907 9  10584553.232 9
  21106404.710    21106412.124   -14075361.575 8 -12264660.175 8
 90  2 28  7 44 14.0800000  0  4G 3G12G11G13
  22465932.110    22465939.235   -62678210.476 8  71205583.771 8
  20781022.790    20781028.308   -43418481.249 9  42116736.630 7
  23710022.100    23710027.304    15255107.150 9  10609648.232 8
  21109120.451    21109125.261   -14061103.716 8 -12253550.154 8
 90  2 28  7 44 29.0800000  0  4G 3G12G11G13
  22462071.003    22462076.262   -62698503.168 8  71189771.313 8
  20783780.086    20783785.825   -43403989.769 8  42128028.670 8
  23716148.627    23716154.887    15287303.177 9  10634736.044 8
  21111839.856    21111845.267   -14046811.068 9 -12242413.028 8
 90  2 28  7 44 44.0800000  0  4G 3G12G11G13
  22458217.559    22458223.848   -62718748.536 9  71173995.713 8
  20786567.070    20786573.950   -43389342.846 8  42139441.835 8
  23722273.008    23722279.590    15319489.743 9  10659816.482 9
  21114567.188    21114572.370   -14032484.019 9 -12231249.106 8
 90  2 28  7 44 59.0800000  0  4G 3G12G11G13
  22454374.303    22454379.526   -62738946.761 9  71158256.846 8
  20789383.723    20789390.596   -43374540.730 9  42150975.943 9
  23728395.772    23728401.724    15351666.848 9  10684889.567 8
  21117299.242    21117303.780   -14018122.742 8 -12220058.502 7
 90  2 28  7 45 14.0800000  0  4G 3G12G11G13
  22450539.798    22450546.752   -62759097.832 8  71142554.738 8
  20792230.222    20792236.287   -43359583.270 8  42162631.079 8
  23734517.992    23734523.618    15383834.485 9  10709955.279 8
  21120038.021    21120044.821   -14003727.188 9 -12208841.201 7
 90  2 28  7 45 29.0800000  0  4G 3G12G11G13
  22446713.276    22446719.608   -62779201.881 8  71126889.242 8
  20795106.291    20795112.148   -43344470.724 7  42174407.101 8
  23740637.579    23740643.030    15415992.515 9  10735013.507 7
  21122784.528    21122788.923   -13989297.512 9 -12197597.287 7
 90  2 28  7 45 44.0800000  0  4G 3G12G11G13
  22442897.852    22442903.089   -62799259.051 8  71111260.299 8
  20798011.071    20798019.398   -43329203.244 8  42186303.821 8
  23746754.394    23746760.163    15448140.895 8  10760064.230 8
  21125536.214    21125542.369   -13974834.090 9 -12186327.100 8
 90  2 28  7 45 59.0800000  0  4G 3G12G11G13
  22439090.705    22439094.633   -62819269.251 9  71095667.961 8
  20800945.672    20800953.640   -43313780.864 9  42198321.237 8
  23752870.289    23752876.062    15480279.640 9  10785107.393 7
  21128295.227    21128300.395   -13960337.069 9 -12175030.707 8
 90  2 28  7 46 14.0800000  0  4G 3G12G11G13
  22435291.879    22435298.061   -62839232.813 9  71080111.933 9
  20803911.045    20803918.054   -43298203.721 8  42210459.259 9
  23758984.017    23758991.032    15512408.700 8  10810143.049 8
  21131060.106    21131066.662   -13945806.728 9 -12163708.354 8
 90  2 28  7 46 29.0800000  0  4G 3G12G11G13
  22431500.602    22431506.540   -62859149.786 8  71064592.234 9
  20806904.750    20806911.051   -43282471.877 9  42222717.830 8
  23765094.868    23765101.829    15544528.009 7  10835171.056 9
  21133832.856    21133837.422   -13931243.169 9 -12152360.142 8
 90  2 28  7 46 44.0800000  0  4G 3G12G11G13
  22427720.256    22427725.114   -62879020.219 9  71049108.809 8
  20809928.107    20809934.498   -43266585.597 8  42235096.725 8
  23771204.922    23771212.230    15576637.756 7  10860191.631 8
  21136609.840    21136615.323   -13916646.421 9 -12140986.036 8
 90  2 28  7 46 59.0800000  0  4G 3G12G11G13
  22423947.702    22423954.041   -62898844.202 9  71033661.555 8
  20812979.320    20812986.158   -43250545.008 8  42247595.876 9
  23777312.972    23777321.804    15608737.642 7  10885204.497 9
  21139393.436    21139399.306   -13902016.653 8 -12129586.222 8
 90  2 28  7 47 14.0800000  0  3G 3G12G13
  22420183.111    22420190.542   -62918621.474 7  71018250.706 7
  20816061.914    20816067.856   -43234349.984 7  42260215.366 8
  21142183.410    21142189.345   -13887353.814 8 -12118160.630 7
 90  2 28  7 47 29.0800000  0  4G 3G12G19G13
  22416429.660    22416434.908   -62938352.704 9  71002875.735 8
  20819171.748    20819178.785   -43218000.938 8  42272954.857 8
                  23194497.224   -74767514.952 8
  21144979.884    21144985.218   -13872658.359 8 -12106709.610 7
 90  2 28  7 47 44.0800000  0  4G 3G12G19G13
  22412682.677    22412689.169   -62958037.634 9  70987536.852 9
  20822312.122    20822319.910   -43201498.140 8  42285814.177 8
  23189754.614    23189760.424   -74792604.358 7  94918042.233 9
  21147783.427    21147787.702   -13857930.415 9 -12095233.276 8
 90  2 28  7 47 59.0800000  0  4G 3G12G19G13
  22408946.017    22408951.622   -62977676.365 9  70972233.946 8
  20825483.580    20825489.890   -43184841.630 8  42298793.247 8
  23185002.564    23185008.402   -74817573.411 7  94898585.354 8
  21150591.979    21150596.696   -13843170.057 9 -12083731.689 8
 90  2 28  7 48 14.0800000  0  4G 3G12G19G13
  22405218.165    22405223.420   -62997269.414 8  70956966.641 8
  20828681.770    20828688.377   -43168031.616 8  42311891.958 8
  23180272.564    23180279.794   -74842421.558 7  94879223.166 9
  21153406.682    21153410.699   -13828377.403 9 -12072204.945 8
 90  2 28  7 48 29.0800000  0  4G 3G12G19G13
  22401497.682    22401503.359   -63016816.503 8  70941735.162 9
  20831910.382    20831915.970   -43151068.121 9  42325110.255 8
  23175568.728    23175574.602   -74867148.299 7  94859955.599 9
  21156227.082    21156233.716   -13813552.559 9 -12060653.117 8
 90  2 28  7 48 44.0800000  0  4G 3G12G19G13
  22397787.008    22397791.490   -63036317.925 9  70926539.272 8
  20835166.950    20835173.797   -43133951.428 8  42338447.919 9
  23170886.217    23170892.971   -74891753.518 7  94840782.720 7
  21159053.862    21159060.984   -13798695.876 9 -12049076.485 9
 90  2 28  7 48 59.0800000  0  4G 3G12G19G13
  22394083.796    22394089.745   -63055773.607 8  70911379.010 8
  20838454.158    20838460.912   -43116681.764 9  42351904.784 8
  23166227.301    23166232.109   -74916236.863 9  94821704.788 8
  21161887.998    21161893.217   -13783807.489 9 -12037475.139 8
 90  2 28  7 49 14.0800000  0  4G 3G12G19G13
  22390390.422    22390396.120   -63075183.754 9  70896254.237 8
  20841767.784    20841775.665   -43099259.124 9  42365480.852 9
  23161591.305    23161597.791   -74940598.390 9  94802721.789 8
  21164728.573    21164732.160   -13768887.520 9 -12025849.168 7
 90  2 28  7 49 29.0800000  0  4G 3G12G19G13
  22386704.789    22386711.618   -63094548.337 9  70881164.965 8
  20845112.498    20845119.752   -43081683.667 7  42379175.989 8
  23156978.713    23156984.972   -74964837.843 8  94783833.900 8
  21167572.611    21167577.944   -13753936.187 9 -12014198.779 8
 90  2 28  7 49 44.0800000  0  4G 3G12G19G13
  22383030.525    22383035.250   -63113867.697 9  70866110.933 8
  20848486.816    20848493.441   -43063955.583 8  42392990.076 8
  23152389.733    23152396.441   -74988955.227 8  94765041.138 8
  21170423.403    21170428.564   -13738953.513 9 -12002523.972 8
 90  2 28  7 49 59.0800000  0  4G 3G12G19G13
  22379362.464    22379366.595   -63133141.630 9  70851092.282 8
  20851889.771    20851895.974   -43046075.023 8  42406922.952 8
  23147823.556    23147828.854   -75012950.177 8  94746343.779 8
  21173280.176    21173286.553   -13723939.478 9 -11990824.733 7
 90  2 28  7 50 14.0800000  0  4G 3G12G19G13
  22375702.079    22375708.443   -63152370.474 9  70836108.771 8
  20855321.208    20855327.697   -43028042.264 8  42420974.441 8
  23143280.162    23143286.508   -75036822.598 8  94727741.915 7
  21176143.445    21176148.220   -13708894.433 8 -11979101.327 9
 90  2 28  7 50 29.0800000  0  4G 3G12G19G13
  22372052.506    22372057.796   -63171554.227 8  70821160.392 8
  20858781.010    20858787.728   -43009857.452 9  42435144.404 8
  23138760.850    23138767.590   -75060572.171 8  94709235.776 7
  21179012.438    21179018.186   -13693818.459 9 -11967353.824 8
 90  2 28  7 50 44.0800000  0  4G 3G12G19G13
  22368410.537    22368415.921   -63190692.990 8  70806247.099 8
  20862271.877    20862277.579   -42991520.847 8  42449432.647 8
  23134264.179    23134271.144   -75084198.973 8  94690825.280 8
  21181887.184    21181892.445   -13678711.968 9 -11955582.513 8
 90  2 28  7 50 59.0800000  0  4G 3G12G19G13
  22364776.267    22364781.658   -63209786.799 8  70791368.802 8
  20865788.497    20865795.090   -42973032.369 9  42463839.229 8
  23129793.226    23129797.705   -75107702.676 8  94672510.728 8
  21184767.595    21184772.942   -13663574.850 9 -11943787.353 8
 90  2 28  7 51 14.0800000  0  4G 3G12G19G13
  22361151.455    22361158.571   -63228835.810 8  70776525.446 7
  20869336.808    20869342.704   -42954392.242 8  42478363.995 8
  23125343.930    23125349.048   -75131083.003 8  94654292.297 8
  21187652.529    21187658.806   -13648407.442 9 -11931968.601 8
 90  2 28  7 51 29.0800000  0  4G 3G12G19G13
  22357535.501    22357540.949   -63247840.162 8  70761716.869 8
  20872913.559    20872918.707   -42935600.758 9  42493006.679 8
  23120918.400    23120924.303   -75154339.979 9  94636169.987 8
  21190545.046    21190551.624   -13633209.984 8 -11920126.434 8
 90  2 28  7 51 44.0800000  0  4G 3G12G19G13
  22353928.368    22353932.886   -63266799.951 8  70746943.029 8
  20876516.929    20876523.232   -42916658.071 9  42507767.206 8
  23116515.619    23116521.314   -75177473.140 8  94618144.136 8
  21193443.087    21193449.278   -13617982.431 9 -11908260.778 8
 90  2 28  7 51 59.0800000  0  4G 3G12G19G13
  22350327.661    22350333.566   -63285715.186 8  70732203.900 7
  20880151.467    20880157.123   -42897564.231 9  42522645.498 8
  23112137.472    23112143.546   -75200482.435 9  94600214.820 8
  21196347.051    21196353.229   -13602724.812 9 -11896371.726 8
 90  2 28  7 52 14.0800000  0  4G 3G12G19G13
  22346736.690    22346741.937   -63304585.950 8  70717499.419 9
  20883812.900    20883818.244   -42878319.606 9  42537641.302 8
  23107782.537    23107787.724   -75223367.919 8  94582381.983 8
  21199256.511    21199263.361   -13587437.380 9 -11884459.438 7
 90  2 28  7 52 29.0800000  0  4G 3G12G19G13
  22343154.441    22343160.912   -63323412.540 8  70702829.360 8
  20887503.437    20887510.270   -42858924.215 8  42552754.572 7
  23103451.159    23103457.605   -75246129.217 8  94564645.907 8
  21202170.864    21202176.769   -13572120.136 9 -11872523.915 8
 90  2 28  7 52 44.0800000  0  4G 3G12G19G13
  22339581.357    22339585.325   -63342194.659 9  70688193.963 7
  20891223.902    20891229.955   -42839378.267 9  42567985.163 8
  23099143.212    23099148.571   -75268766.073 8  94547006.798 8
  21205090.998    21205095.887   -13556773.250 9 -11860565.303 7
 90  2 28  7 52 59.0800000  0  4G 3G12G19G13
  22336014.276    22336019.824   -63360932.833 9  70673592.800 8
  20894971.012    20894977.071   -42819682.043 8  42583332.848 8
  23094860.270    23094864.857   -75291278.361 8  94529464.749 9
  21208017.772    21208021.002   -13541396.948 9 -11848583.759 7
 90  2 28  7 53 14.0800000  0  4G 3G12G19G13
  22332456.031    22332463.439   -63379627.139 8  70659025.814 8
  20898748.542    20898753.128   -42799835.840 8  42598797.405 8
  23090599.759    23090603.655   -75313665.964 8  94512019.878 8
  21210948.867    21210953.742   -13525991.678 8 -11836579.642 8
 90  2 28  7 53 29.0800000  0  4G 3G12G19G13
  22328906.872    22328914.130   -63398277.546 9  70644493.056 8
  20902554.014    20902559.112   -42779839.673 9  42614378.812 8
  23086362.725    23086367.572   -75335928.862 8  94494672.170 7
  21213884.684    21213890.374   -13510557.545 9 -11824553.056 7
 90  2 28  7 53 44.0800000  0  4G 3G12G19G13
  22325367.350    22325373.957   -63416884.088 9  70629994.465 8
  20906388.073    20906393.142   -42759693.560 8  42630077.060 7
  23082150.270    23082155.261   -75358066.617 8  94477421.968 8
  21216826.825    21216833.289   -13495094.428 9 -11812503.862 7
 90  2 28  7 53 59.0800000  0  4G 3G12G19G13
  22321834.253    22321840.473   -63435446.859 8  70615529.983 8
  20910249.670    20910254.585   -42739397.803 9  42645891.929 8
  23077960.639    23077967.432   -75380079.441 8  94460269.103 8
  21219775.435    21219781.912   -13479602.347 9 -11800432.103 8
 90  2 28  7 54 14.0800000  0  4G 3G12G19G13
  22318311.022    22318316.549   -63453965.897 9  70601099.592 9
  20914139.838    20914145.519   -42718952.576 9  42661823.246 7
  23073796.082    23073801.884   -75401967.010 9  94443213.863 8
  21222729.682    21222735.416   -13464081.759 8 -11788338.134 8
 90  2 28  7 54 29.0800000  0  4G 3G12G19G13
  22314795.082    22314801.245   -63472441.384 7  70586703.126 9
  20918057.337    20918064.549   -42698358.071 9  42677870.899 8
  23069654.286    23069660.170   -75423729.091 8  94426256.396 8
  21225687.621    21225692.896   -13448532.833 9 -11776222.098 8
 90  2 28  7 54 44.0800000  0  4G 3G12G19G13
  22311287.241    22311292.932   -63490873.606 8  70572340.373 9
  20922005.583    20922013.056   -42677614.581 8  42694034.633 7
  23065537.199    23065542.178   -75445365.257 9  94409397.058 8
  21228652.829    21228658.620   -13432955.482 9 -11764083.904 8
 90  2 28  7 54 59.0800000  0  4G 3G12G19G13
  22307788.307    22307793.633   -63509262.486 8  70558011.382 8
  20925981.647    20925988.386   -42656722.304 9  42710314.311 8
  23061443.962    23061448.343   -75466875.784 7  94392635.584 7
  21231622.073    21231627.835   -13417349.898 9 -11751923.711 8
 90  2 28  7 55 14.0800000  0  4G 3G12G19G13
  22304297.780    22304302.834   -63527608.024 8  70543716.186 8
  20929985.774    20929990.928   -42635681.318 9  42726709.854 7
  23057375.296    23057380.304   -75488260.382 9  94375972.242 8
  21234596.667    21234602.372   -13401716.336 9 -11739741.720 8
 90  2 28  7 55 29.0800000  0  4G 3G12G19G13
  22300814.758    22300819.447   -63545910.439 9  70529454.572 9
  20934017.793    20934023.670   -42614491.903 8  42743221.076 8
  23053329.079    23053334.442   -75509519.057 8  94359407.030 8
  21237577.616    21237583.235   -13386054.824 9 -11727537.954 8
 90  2 28  7 55 44.0800000  0  4G 3G12G19G13
  22297339.434    22297344.918   -63564169.862 9  70515226.469 7
  20938078.338    20938083.238   -42593154.345 9  42759847.729 7
  23049307.803    23049312.975   -75530651.425 8  94342940.236 8
  21240564.116    21240570.092   -13370365.622 8 -11715312.601 8
 90  2 28  7 55 59.0800000  0  4G 3G12G19G13
  22293872.038    22293878.724   -63582386.377 8  70501031.788 8
  20942167.497    20942172.530   -42571668.968 8  42776589.562 8
  23045309.911    23045316.872   -75551657.476 8  94326571.878 8
  21243553.850    21243560.613   -13354648.862 9 -11703065.761 8
 90  2 28  7 56 14.0800000  0  4G 3G12G19G13
  22290414.558    22290419.369   -63600560.064 9  70486870.481 8
  20946283.786    20946288.247   -42550035.757 9  42793446.604 7
  23041336.867    23041343.149   -75572536.933 8  94310302.162 8
  21246548.993    21246555.499   -13338904.426 8 -11690797.377 8
 90  2 28  7 56 29.0800000  0  4G 3G12G19G13
  22286964.941    22286970.389   -63618691.023 9  70472742.475 9
  20950427.675    20950434.003   -42528254.803 8  42810418.765 8
  23037388.006    23037394.638   -75593289.234 9  94294131.546 9
  21249550.403    21249557.710   -13323132.609 8 -11678507.656 8
 90  2 28  7 56 44.0800000  0  4G 3G12G19G13
  22283523.273    22283528.585   -63636779.291 8  70458647.734 8
  20954601.019    20954606.628   -42506326.445 9  42827505.782 7
  23033462.884    23033470.145   -75613914.567 7  94278059.877 7
  21252557.966    21252563.127   -13307333.677 9 -11666196.817 9
 90  2 28  7 56 59.0800000  0  4G 3G12G19G13
  22280089.274    22280094.615   -63654825.003 9  70444586.155 9
  20958800.752    20958806.669   -42484250.864 8  42844707.518 8
  23029562.992    23029569.410   -75634412.810 9  94262087.246 9
  21255568.706    21255574.840   -13291507.554 9 -11653864.778 7
 90  2 28  7 57 14.0800000  0  4G 3G12G19G13
  22276661.743    22276668.830   -63672828.181 9  70430557.722 8
  20963029.795    20963035.544   -42462028.175 8  42862023.887 7
  23025686.046    23025693.265   -75654784.128 7  94246213.492 8
  21258585.799    21258590.345   -13275654.297 8 -11641511.560 8
 90  2 28  7 57 29.0800000  0  4G 3G12G19G13
  22273244.529    22273250.056   -63690789.045 9  70416562.255 8
  20967287.109    20967292.453   -42439658.701 8  42879454.610 7
  23021833.818    23021839.667   -75675028.200 9  94230438.891 8
  21261608.587    21261612.132   -13259774.138 9 -11629137.400 7
 90  2 28  7 57 44.0800000  0  4G 3G12G19G13
  22269834.620    22269841.041   -63708707.638 9  70402599.743 9
  20971571.596    20971576.844   -42417142.662 8  42896999.560 7
  23018006.631    23018011.961   -75695144.846 7  94214763.562 8
  21264635.125    21264639.842   -13243867.422 9 -11616742.564 8
 90  2 28  7 57 59.0800000  0  4G 3G12G19G13
  22266433.046    22266438.923   -63726584.035 9  70388670.100 8
  20975884.379    20975890.361   -42394480.245 9  42914658.548 7
  23014201.352    23014208.310   -75715134.067 8  94199187.522 9
  21267666.870    21267672.132   -13227934.149 9 -11604327.034 8
 90  2 28  7 58 14.0800000  0  4G 3G12G19G13
  22263038.749    22263044.976   -63744418.322 8  70374773.263 8
  20980225.212    20980230.743   -42371671.681 9  42932431.445 7
  23010421.826    23010427.982   -75734995.505 8  94183711.066 9
  21270703.996    21270710.131   -13211974.349 9 -11591890.839 7
 90  2 28  7 58 29.0800000  0  4G 3G12G19G13
  22259653.144    22259658.441   -63762210.670 9  70360909.107 8
  20984592.099    20984597.919   -42348717.303 8  42950317.952 8
  23006666.632    23006673.443   -75754728.901 7  94168334.388 8
  21273746.360    21273750.691   -13195988.341 8 -11579434.211 8
 90  2 28  7 58 44.0800000  0  4G 3G12G19G13
  22256276.246    22256281.601   -63779961.037 9  70347077.672 7
  20988988.073    20988993.993   -42325617.291 8  42968317.950 7
  23002935.049    23002942.712   -75774334.174 8  94153057.541 9
  21276791.871    21276796.961   -13179976.091 9 -11566957.141 7
 90  2 28  7 58 59.0800000  0  4G 3G12G19G13
  22252906.281    22252911.650   -63797669.289 9  70333279.034 9
  20993411.141    20993418.166   -42302371.439 8  42986431.586 9
  22999231.129    22999237.228   -75793810.942 8  94137880.854 7
  21279845.138    21279849.884   -13163937.347 9 -11554459.423 7
 90  2 28  7 59 14.0800000  0  4G 3G12G19G13
  22249543.799    22249549.355   -63815335.888 8  70319512.867 8
  20997863.406    20997868.923   -42278980.433 8  43004658.315 8
  22995549.524    22995553.889   -75813159.497 8  94122804.048 9
  21282902.812    21282907.100   -13147872.660 8 -11541941.474 8
 90  2 28  7 59 29.0800000  0  4G 3G12G19G13
  22246190.476    22246196.618   -63832960.993 8  70305779.037 9
  21002341.629    21002348.057   -42255444.535 8  43022997.958 8
  22991892.320    22991897.536   -75832379.585 8  94107827.358 8
  21285962.804    21285970.784   -13131782.294 8 -11529403.531 8
 90  2 28  7 59 44.0800000  0  4G 3G12G19G13
  22242845.330    22242848.682   -63850544.595 8  70292077.542 7
  21006847.343    21006853.246   -42231763.800 8  43041450.458 8
  22988257.417    22988263.480   -75851470.704 8  94092951.162 8
  21289029.521    21289036.528   -13115666.153 9 -11516845.500 7
 90  2 28  7 59 59.0800000  0  4G 3G12G19G13
  22239506.903    22239511.564   -63868086.738 9  70278408.356 7
  21011381.766    21011388.309   -42207938.608 8  43060015.520 7
  22984649.938    22984655.733   -75870433.298 8  94078175.096 8
  21292102.907    21292108.984   -13099524.369 9 -11504267.492 8
 90  2 28  8  0 14.0800000  0  4G 3G12G19G13
  22236174.950    22236182.094   -63885587.730 8  70264771.233 8
  21015942.226    21015948.079   -42183969.147 8  43078693.002 9
  22981064.973    22981072.135   -75889267.195 9  94063499.312 9
  21295179.498    21295184.545   -13083357.379 8 -11491669.816 7
 90  2 28  8  0 29.0800000  0  4G 3G12G19G13
  22232852.821    22232858.934   -63903047.638 8  70251166.140 9
  21020531.650    21020536.991   -42159855.674 7  43097482.703 8
  22977505.011    22977512.312   -75907972.252 8  94048923.933 9
  21298259.580    21298265.127   -13067165.382 9 -11479052.660 7
 90  2 28  8  0 44.0800000  0  4G 3G12G19G13
  22229537.324    22229545.547   -63920466.389 9  70237593.091 8
  21025147.788    21025154.320   -42135598.191 8  43116384.625 8
  22973970.047    22973976.990   -75926548.361 8  94034449.038 8
  21301345.872    21301350.619   -13050948.237 8 -11466415.906 8
 90  2 28  8  0 59.0800000  0  4G 3G12G19G13
  22226231.514    22226238.021   -63937844.185 9  70224051.989 9
  21029792.470    21029797.371   -42111196.949 8  43135398.553 7
  22970461.862    22970465.843   -75944994.999 7  94020075.004 8
  21304436.773    21304442.349   -13034706.233 9 -11453759.831 8
 90  2 28  8  1 14.0800000  0  4G 3G12G19G13
  22222932.830    22222938.114   -63955181.032 8  70210542.771 9
  21034462.143    21034467.444   -42086652.326 8  43154524.222 9
  22966976.010    22966980.973   -75963312.301 8  94005801.767 9
  21307532.194    21307538.056   -13018439.404 9 -11441084.402 8
 90  2 28  8  1 29.0800000  0  4G 3G12G19G13
  22219642.167    22219646.921   -63972477.245 9  70197065.224 8
  21039159.367    21039166.823   -42061964.805 8  43173761.226 8
  22963514.957    22963520.480   -75981500.141 8  93991629.407 9
  21310633.283    21310638.315   -13002148.108 8 -11428389.892 8
 90  2 28  8  1 44.0800000  0  4G 3G12G19G13
  22216356.812    22216363.562   -63989733.036 9  70183619.167 8
  21043885.397    21043892.190   -42037134.456 8  43193109.508 8
  22960078.973    22960083.709   -75999558.613 8  93977557.845 9
  21313738.177    21313742.551   -12985832.343 7 -11415676.321 8
 90  2 28  8  1 59.0800000  0  4G 3G12G19G13
  22213080.637    22213086.593   -64006948.158 8  70170204.787 9
  21048638.445    21048643.153   -42012161.561 7  43212568.907 8
  22956665.816    22956672.555   -76017487.265 8  93963587.457 9
  21316846.191    21316852.368   -12969491.953 8 -11402943.549 9
 90  2 28  8  2 14.0800000  0  4G 3G12G19G13
  22209813.004    22209818.574   -64024122.914 9  70156821.878 9
  21053417.727    21053421.947   -41987046.412 9  43232139.145 8
  22953277.789    22953284.353   -76035286.161 7  93949718.182 8
  21319961.331    21319967.508   -12953127.184 9 -11390191.798 8
 90  2 28  8  2 29.0800000  0  4G 3G12G19G13
  22206552.962    22206557.215   -64041257.137 8  70143470.534 8
  21058222.825    21058228.273   -41961789.139 8  43251820.121 9
  22949915.909    22949922.677   -76052955.252 9  93935950.051 9
  21323079.246    21323086.597   -12936738.034 8 -11377421.028 8
 90  2 28  8  2 44.0800000  0  4G 3G12G19G13
  22203299.746    22203306.432   -64058351.101 9  70130150.576 8
  21063056.359    21063062.394   -41936389.915 8  43271611.713 7
  22946579.799    22946584.800   -76070494.237 8  93922283.309 8
  21326203.258    21326209.020   -12920324.898 9 -11364631.579 8
 90  2 28  8  2 59.0800000  0  4G 3G12G19G13
  22200054.758    22200060.112   -64075404.853 9  70116861.953 9
  21067915.593    21067923.230   -41910848.963 8  43291513.750 9
  22943266.478    22943272.012   -76087902.835 8  93908718.170 8
  21329330.703    21329335.793   -12903887.862 9 -11351823.515 7
 90  2 28  8  3 14.0800000  0  4G 3G12G19G13
  22196815.421    22196823.109   -64092418.556 8  70103604.531 8
  21072804.174    21072810.810   -41885166.626 8  43311525.935 8
  22939980.110    22939983.559   -76105181.283 9  93895254.445 8
  21332462.385    21332468.004   -12887427.034 9 -11338996.874 8
 90  2 28  8  3 29.0800000  0  4G 3G12G19G13
  22193586.581    22193591.120   -64109392.124 9  70090378.376 8
  21077718.867    21077724.684   -41859343.019 9  43331648.216 8
  22936715.615    22936722.251   -76122329.199 8  93881892.423 9
  21335599.761    21335605.652   -12870942.317 8 -11326151.635 8
 90  2 28  8  3 44.0800000  0  4G 3G12G19G13
  22190364.093    22190371.051   -64126325.776 9  70077183.338 8
  21082659.345    21082665.894   -41833378.389 8  43351880.378 9
  22933477.591    22933483.723   -76139346.203 8  93868632.427 8
  21338742.689    21338747.106   -12854433.827 8 -11313287.869 8
 90  2 28  8  3 59.0800000  0  4G 3G12G19G13
  22187150.134    22187155.510   -64143219.500 8  70064019.414 8
  21087626.827    21087633.062   -41807273.051 9  43372222.200 8
  22930263.833    22930270.079   -76156232.462 7  93855474.297 9
  21341887.077    21341892.868   -12837901.840 9 -11300405.816 9
 90  2 28  8  4 14.0800000  0  4G 3G12G19G13
  22183941.999    22183948.542   -64160073.467 9  70050886.465 8
  21092621.455    21092627.368   -41781027.216 8  43392673.476 8
  22927075.830    22927081.898   -76172988.006 7  93842418.047 9
  21345039.449    21345043.666   -12821346.544 8 -11287505.583 8
 90  2 28  8  4 29.0800000  0  4G 3G12G19G13
  22180742.270    22180747.347   -64176887.919 8  70037784.307 9
  21097642.597    21097648.267   -41754641.252 8  43413233.960 8
  22923912.658    22923918.504   -76189612.523 8  93829463.866 9
  21348193.596    21348198.986   -12804767.932 8 -11274587.177 8
 90  2 28  8  4 44.0800000  0  4G 3G12G19G13
  22177550.005    22177555.717   -64193662.731 8  70024713.039 8
  21102690.114    21102697.075   -41728115.506 8  43433903.363 8
  22920774.077    22920779.779   -76206106.188 8  93816611.654 9
  21351352.407    21351357.726   -12788166.191 9 -11261650.762 8
 90  2 28  8  4 59.0800000  0  4G 3G12G19G13
  22174364.613    22174371.392   -64210398.173 8  70011672.437 9
  21107764.411    21107770.918   -41701450.023 8  43454681.648 8
  22917660.669    22917665.559   -76222468.783 9  93803861.561 9
  21354514.681    21354521.674   -12771541.266 9 -11248696.280 8
 90  2 28  8  5 14.0800000  0  4G 3G12G19G13
  22171187.572    22171194.974   -64227094.169 8  69998662.584 9
  21112865.864    21112872.528   -41674645.169 9  43475568.530 8
  22914571.353    22914577.395   -76238700.266 9  93791213.632 8
  21357682.736    21357688.699   -12754893.520 9 -11235724.017 7
 90  2 28  8  5 29.0800000  0  4G 3G12G19G13
  22168020.290    22168025.058   -64243751.137 9  69985683.145 8
  21117991.853    21117998.063   -41647701.332 9  43496563.702 8
  22911507.305    22911513.644   -76254800.485 8  93778667.997 8
  21360856.115    21360861.705   -12738223.058 9 -11222734.062 8
 90  2 28  8  5 44.0800000  0  4G 3G12G19G13
  22164857.393    22164863.199   -64260368.939 9  69972734.210 8
  21123146.153    21123151.851   -41620618.720 8  43517667.020 8
  22908467.611    22908475.091   -76270769.103 7  93766224.903 8
  21364032.584    21364038.889   -12721529.944 9 -11209726.445 8
 90  2 28  8  5 59.0800000  0  4G 3G12G19G13
  22161702.302    22161707.321   -64276947.644 8  69959815.748 8
  21128325.687    21128331.969   -41593397.618 9  43538878.247 9
  22905454.821    22905460.702   -76286606.200 8  93753884.304 9
  21367213.346    21367218.578   -12704814.422 9 -11196701.363 8
 90  2 28  8  6 14.0800000  0  4G 3G12G19G13
  22158555.446    22158560.966   -64293487.296 8  69946927.716 8
  21133532.913    21133538.780   -41566038.269 8  43560197.199 9
  22902466.965    22902472.889   -76302311.500 9  93741646.394 9
  21370398.715    21370404.019   -12688076.383 9 -11183658.733 7
 90  2 28  8  6 29.0800000  0  4G 3G12G19G13
  22155414.715    22155419.310   -64309988.335 9  69934069.762 8
  21138765.402    21138770.650   -41538540.954 9  43581623.675 9
  22899500.909    22899509.355   -76317885.193 8  93729511.047 9
  21373588.548    21373594.940   -12671315.904 9 -11170598.621 9
 90  2 28  8  6 44.0800000  0  4G 3G12G19G13
  22152283.019    22152286.099   -64326450.566 9  69921242.062 8
  21144024.302    21144029.672   -41510905.961 8  43603157.429 8
  22896564.641    22896570.505   -76333327.189 8  93717478.314 9
  21376782.389    21376786.606   -12654533.381 8 -11157521.343 8
 90  2 28  8  6 59.0800000  0  4G 3G12G19G13
  22149157.527    22149161.658   -64342874.077 8  69908444.535 9
  21149308.909    21149315.451   -41483133.612 9  43624798.211 8
  22893650.743    22893656.130   -76348637.279 8  93705548.377 9
  21379979.291    21379984.624   -12637728.707 8 -11144426.787 7
 90  2 28  8  7 14.0800000  0  4G 3G12G19G13
  22146039.275    22146045.073   -64359258.956 9  69895677.105 8
  21154619.450    21154626.340   -41455224.018 8  43646545.923 9
  22890762.786    22890767.316   -76363815.537 7  93693721.154 9
  21383181.087    21383187.122   -12620901.997 9 -11131315.064 7
 90  2 28  8  7 29.0800000  0  4G 3G12G19G13
  22142928.728    22142933.217   -64375605.479 9  69882939.570 8
  21159955.280    21159963.032   -41427177.579 9  43668400.285 8
  22887897.360    22887905.302   -76378861.853 8  93681996.750 8
  21386387.606    21386393.554   -12604053.348 8 -11118186.250 8
 90  2 28  8  7 44.0800000  0  4G 3G12G19G13
  22139825.300    22139830.212   -64391913.505 9  69870232.027 8
  21165320.229    21165325.931   -41398994.428 8  43690361.160 7
  22885060.781    22885066.347   -76393775.873 8  93670375.440 8
  21389598.131    21389603.692   -12587182.919 9 -11105040.483 8
 90  2 28  8  7 59.0800000  0  4G 3G12G19G13
  22136728.126    22136735.090   -64408183.391 9  69857554.192 8
  21170709.762    21170715.210   -41370674.970 9  43712428.248 8
  22882246.882    22882254.233   -76408557.486 8  93658857.305 8
  21392812.576    21392817.666   -12570290.891 8 -11091877.870 7
 90  2 28  8  8 14.0800000  0  4G 3G12G19G13
  22133639.952    22133645.285   -64424415.185 8  69844906.045 9
  21176124.607    21176129.336   -41342219.416 9  43734601.395 9
  22879459.730    22879466.384   -76423206.694 8  93647442.339 8
  21396031.085    21396036.590   -12553377.358 9 -11078698.499 7
 90  2 28  8  8 29.0800000  0  4G 3G12G19G13
  22130558.818    22130564.215   -64440608.730 9  69832287.714 8
  21181563.588    21181570.743   -41313628.122 9  43756880.316 8
  22876698.106    22876703.676   -76437723.506 8  93636130.537 9
  21399252.943    21399258.634   -12536442.280 9 -11065502.341 8
 90  2 28  8  8 44.0800000  0  4G 3G12G19G13
  22127484.309    22127488.963   -64456764.218 8  69819699.022 9
  21187029.496    21187037.992   -41284901.268 8  43779264.862 8
  22873959.996    22873966.299   -76452107.605 7  93624922.137 8
  21402480.009    21402484.927   -12519485.902 8 -11052289.586 8
 90  2 28  8  8 59.0800000  0  4G 3G12G19G13
  22124417.191    22124421.616   -64472881.664 9  69807139.982 8
  21192522.512    21192529.363   -41256038.961 7  43801754.960 8
  22871248.619    22871254.779   -76466358.756 8  93613817.342 8
  21405710.624    21405717.188   -12502507.998 8 -11039060.055 8
 90  2 28  8  9 14.0800000  0  4G 3G12G19G13
  22121358.415    22121363.277   -64488961.328 9  69794610.385 9
  21198041.879    21198047.788   -41227041.576 8  43824350.305 8
  22868562.158    22868567.781   -76480477.212 8  93602815.937 8
  21408946.820    21408951.624   -12485509.133 8 -11025814.201 8
 90  2 28  8  9 29.0800000  0  4G 3G12G19G13
  22118305.062    22118309.537   -64505003.297 9  69782110.152 8
  21203585.746    21203590.665   -41197909.649 9  43847050.502 7
  22865900.186    22865906.658   -76494463.114 8  93591917.835 8
  21412184.962    21412190.037   -12468489.468 8 -11012552.132 8
 90  2 28  8  9 44.0800000  0  4G 3G12G19G13
  22115259.394    22115264.863   -64521007.627 8  69769639.246 9
  21209153.597    21209160.222   -41168643.352 9  43869855.381 8
  22863264.172    22863270.326   -76508316.094 8  93581123.299 8
  21415427.825    21415432.786   -12451448.861 9 -10999273.739 7
 90  2 28  8  9 59.0800000  0  4G 3G12G19G13
  22112221.252    22112226.779   -64536974.496 9  69757197.535 8
  21214748.311    21214754.898   -41139242.995 7  43892764.739 8
  22860653.854    22860660.439   -76522035.953 7  93570432.496 9
  21418674.066    21418678.941   -12434387.485 9 -10985979.146 8
 90  2 28  8 10 14.0800000  0  4G 3G12G19G13
  22109188.697    22109194.911   -64552904.006 9  69744784.939 8
  21220367.020    21220375.115   -41109708.802 8  43915778.361 8
  22858069.399    22858075.023   -76535622.904 7  93559845.253 8
  21421924.942    21421929.918   -12417305.433 9 -10972668.455 7
 90  2 28  8 10 29.0800000  0  4G 3G12G19G13
  22106164.786    22106170.391   -64568796.065 8  69732401.527 8
  21226014.708    21226020.027   -41080041.034 7  43938896.092 8
  22855508.576    22855514.489   -76549076.688 9  93549361.778 8
  21425179.511    21425184.272   -12400202.702 9 -10959341.658 9
 90  2 28  8 10 44.0800000  0  4G 3G12G19G13
  22103146.255    22103153.241   -64584651.018 8  69720047.037 8
  21231686.761    21231691.898   -41050240.134 7  43962117.558 7
  22852974.082    22852978.979   -76562397.327 8  93538982.057 9
  21428438.029    21428443.348   -12383079.641 9 -10945999.036 8
 90  2 28  8 10 59.0800000  0  4G 3G12G19G13
  22100138.291    22100142.987   -64600468.889 9  69707721.436 8
  21237381.154    21237388.924   -41020306.333 7  43985442.582 8
  22850463.813    22850470.986   -76575584.657 8  93528706.213 8
  21431700.182    21431706.344   -12365936.264 8 -10932640.576 7
 90  2 28  8 11 14.0800000  0  4G 3G12G19G13
  22097135.278    22097140.783   -64616249.657 8  69695424.746 8
  21243101.905    21243109.238   -40990239.897 8  44008870.946 8
  22847979.419    22847986.155   -76588638.847 8  93518534.097 9
  21434966.455    21434972.632   -12348772.430 8 -10919266.186 8
 90  2 28  8 11 29.0800000  0  4G 3G12G19G13
  22094138.804    22094144.839   -64631993.596 9  69683156.747 8
  21248848.169    21248855.771   -40960041.175 8  44032402.418 8
  22845522.016    22845528.047   -76601559.778 8  93508465.836 9
  21438236.878    21438242.154   -12331588.440 9 -10905876.048 8
 90  2 28  8 11 44.0800000  0  4G 3G12G19G13
  22091149.557    22091155.456   -64647700.424 9  69670917.670 9
  21254621.670    21254628.736   -40929710.297 8  44056036.832 8
  22843087.121    22843094.394   -76614346.995 8  93498501.750 9
  21441510.077    21441515.567   -12314384.385 8 -10892470.307 8
 90  2 28  8 11 59.0800000  0  4G 3G12G19G13
  22088167.400    22088174.923   -64663370.577 8  69658707.152 8
  21260418.750    21260424.978   -40899247.679 8  44079773.915 8
  22840680.132    22840686.657   -76627000.559 8  93488641.823 9
  21444787.197    21444792.716   -12297160.339 9 -10879048.980 8
 90  2 28  8 12 14.0800000  0  4G 3G12G19G13
  22085192.755    22085199.934   -64679004.064 9  69646525.219 9
  21266239.622    21266246.812   -40868653.576 8  44103613.457 8
  22838297.874    22838303.522   -76639520.631 9  93478885.902 8
  21448068.037    21448074.372   -12279916.573 9 -10865612.322 8
 90  2 28  8 12 29.0800000  0  4G 3G12G19G13
  22082224.792    22082230.984   -64694600.862 8  69634371.879 9
  21272086.627    21272094.414   -40837928.326 9  44127555.178 7
  22835940.438    22835946.938   -76651907.071 8  93469234.121 9
  21451353.800    21451360.320   -12262652.980 9 -10852160.189 7
 90  2 28  8 12 44.0800000  0  4G 3G12G19G13
  22079263.627    22079270.255   -64710161.335 7  69622246.850 9
  21277958.797    21277964.975   -40807072.427 9  44151598.709 8
  22833609.842    22833614.697   -76664159.900 7  93459686.451 9
  21454642.768    21454648.659   -12245369.541 8 -10838692.553 8
 90  2 28  8 12 59.0800000  0  4G 3G12G19G13
  22076310.009    22076316.358   -64725685.500 8  69610150.108 9
  21283856.302    21283861.632   -40776086.171 9  44175743.832 7
  22831303.838    22831309.376   -76676278.851 8  93450243.104 9
  21457935.256    21457941.275   -12228066.559 9 -10825209.713 8
 90  2 28  8 13 14.0800000  0  4G 3G12G19G13
  22073362.823    22073369.044   -64741173.214 8  69598081.762 8
  21289777.711    21289783.094   -40744969.580 9  44199990.509 8
  22829021.969    22829028.372   -76688264.065 8  93440903.979 8
  21461232.036    21461237.770   -12210744.087 9 -10811711.663 7
 90  2 28  8 13 29.0800000  0  4G 3G12G19G13
  22070421.827    22070429.585   -64756624.635 8  69586041.694 8
  21295722.379    21295729.268   -40713722.958 9  44224338.506 9
  22826767.470    22826773.133   -76700115.377 9  93431669.192 8
  21464531.993    21464537.212   -12193402.244 8 -10798198.535 8
 90  2 28  8 13 44.0800000  0  4G 3G12G19G13
  22067488.557    22067494.455   -64772040.157 8  69574029.597 9
  21301693.283    21301701.249   -40682346.676 9  44248787.526 8
  22824537.239    22824543.482   -76711832.803 8  93422538.716 8
  21467835.528    21467841.419   -12176041.134 9 -10784670.386 7
 90  2 28  8 13 59.0800000  0  4G 3G12G19G13
  22064562.491    22064567.395   -64787419.512 9  69562045.687 9
  21307689.035    21307695.381   -40650840.993 8  44273337.401 7
  22822333.480    22822338.446   -76723415.946 8  93413512.874 8
  21471142.411    21471149.160   -12158660.997 8 -10771127.434 8
 90  2 28  8 14 14.0800000  0  4G 3G12G19G13
  22061642.393    22061649.164   -64802762.881 8  69550089.805 8
  21313708.930    21313714.879   -40619206.266 9  44297987.819 8
  22820154.169    22820160.612   -76734864.978 8  93404591.536 8
  21474453.186    21474460.050   -12141261.750 9 -10757569.593 7
 90  2 28  8 14 29.0800000  0  4G 3G12G19G13
  22058730.716    22058736.578   -64818070.241 9  69538161.999 8
  21319753.179    21319759.228   -40587442.708 9  44322738.643 8
  22818000.936    22818006.496   -76746179.615 9  93395774.912 9
  21477769.399    21477773.987   -12123843.016 8 -10743996.538 7
 90  2 28  8 14 44.0800000  0  4G 3G12G19G13
  22055824.083    22055829.745   -64833341.771 8  69526262.112 8
  21325822.273    21325828.751   -40555550.729 9  44347589.510 7
  22815873.113    22815878.250   -76757360.097 8  93387062.838 8
  21481087.528    21481092.790   -12106405.420 8 -10730408.825 7
 90  2 28  8 14 59.0800000  0  4G 3G12G19G13
  22052924.668    22052930.488   -64848577.654 9  69514389.994 8
  21331915.431    21331921.194   -40523530.717 9  44372540.145 9
  22813771.629    22813778.065   -76768406.587 8  93378455.178 9
  21484407.862    21484414.139   -12088949.215 8 -10716806.584 8
 90  2 28  8 15 14.0800000  0  4G 3G12G19G13
  22050031.671    22050038.478   -64863777.963 9  69502545.601 9
  21338034.224    21338038.796   -40491383.017 9  44397590.273 8
  22811694.525    22811700.596   -76779318.623 8  93369952.280 9
  21487733.433    21487739.510   -12071474.211 8 -10703189.727 8
 90  2 28  8 15 29.0800000  0  4G 3G12G19G13
  22047147.053    22047151.971   -64878942.870 8  69490728.813 8
  21344175.647    21344181.214   -40459107.977 9  44422739.631 8
  22809643.921    22809650.346   -76790096.280 9  93361554.101 8
  21491062.581    21491068.701   -12053980.697 9 -10689558.425 8
 90  2 28  8 15 44.0800000  0  4G 3G12G19G13
  22044266.412    22044272.833   -64894072.347 8  69478939.611 8
  21350341.063    21350347.917   -40426705.951 9  44447987.961 9
  22807618.237    22807624.350   -76800739.220 8  93353260.878 9
  21494395.506    21494400.753   -12036468.443 9 -10675912.480 8
 90  2 28  8 15 59.0800000  0  4G 3G12G19G13
  22041394.271    22041400.134   -64909166.364 8  69467178.043 8
  21356531.216    21356536.922   -40394177.188 9  44473335.035 8
  22805618.975    22805625.127   -76811247.900 8  93345072.272 8
  21497732.353    21497737.486   -12018937.571 9 -10662252.065 8
 90  2 28  8 16 14.0800000  0  4G 3G12G19G13
  22038528.004    22038534.389   -64924225.292 8  69455443.814 8
  21362744.067    21362750.510   -40361521.919 9  44498780.681 8
  22803643.723    22803651.561   -76821622.187 8  93336988.411 9
  21501072.061    21501076.950   -12001388.380 9 -10648577.373 9
 90  2 28  8 16 29.0800000  0  4G 3G12G19G13
  22035670.029    22035675.828   -64939249.106 9  69443736.951 9
  21368983.837    21368988.624   -40328740.483 9  44524324.638 8
  22801695.183    22801701.726   -76831861.950 8  93329009.367 8
  21504413.944    21504420.107   -11983820.958 9 -10634888.482 8
 90  2 28  8 16 44.0800000  0  4G 3G12G19G13
  22032817.699    22032823.984   -64954237.812 8  69432057.443 9
  21375245.272    21375250.899   -40295833.187 9  44549966.667 8
  22799773.663    22799779.240   -76841967.287 9  93321135.071 9
  21507761.036    21507766.684   -11966235.460 9 -10621185.508 8
 90  2 28  8 16 59.0800000  0  4G 3G12G19G13
  22029972.674    22029978.322   -64969191.478 9  69420405.237 8
  21381531.475    21381538.158   -40262800.335 9  44575706.531 8
  22797876.339    22797882.317   -76851937.752 9  93313365.883 9
  21511110.876    21511115.135   -11948632.110 9 -10607468.617 7
 90  2 28  8 17 14.0800000  0  4G 3G12G19G13
  22027133.050    22027138.613   -64984110.157 8  69408780.303 8
  21387840.574    21387847.671   -40229642.057 9  44601544.126 8
  22796005.069    22796010.413   -76861773.358 7  93305701.749 8
  21514463.920    21514468.838   -11931010.467 9 -10593737.492 8
 90  2 28  8 17 29.0800000  0  4G 3G12G19G13
  22024301.183    22024306.029   -64998994.143 9  69397182.398 8
  21394174.551    21394181.302   -40196358.959 9  44627478.974 9
  22794158.357    22794164.274   -76871474.334 8  93298142.551 9
  21517819.883    21517825.989   -11913370.591 9 -10579992.141 8
 90  2 28  8 17 44.0800000  0  4G 3G12G19G13
  22021475.733    22021481.631   -65013843.294 8  69385611.623 9
  21400531.829    21400538.962   -40162951.322 8  44653510.885 8
  22792338.217    22792342.896   -76881040.707 8  93290688.230 8
  21521180.254    21521184.284   -11895712.894 9 -10566232.913 7
 90  2 28  8 17 59.0800000  0  4G 3G12G19G13
  22018655.763    22018662.971   -65028657.865 9  69374067.812 9
  21406912.015    21406919.073   -40129419.531 8  44679639.531 8
  22790543.082    22790549.096   -76890472.290 8  93283338.942 8
  21524544.087    21524548.690   -11878037.267 8 -10552459.688 7
 90  2 28  8 18 14.0800000  0  4G 3G12G19G13
  22015843.713    22015850.578   -65043437.927 8  69362550.876 9
  21413317.382    21413324.379   -40095763.934 9  44705864.652 8
  22788773.790    22788780.183   -76899768.892 8  93276094.829 9
  21527910.010    21527916.659   -11860343.996 9 -10538672.724 8
 90  2 28  8 18 29.0800000  0  4G 3G12G19G13
  22013037.244    22013043.000   -65058183.431 9  69351060.883 8
  21419744.313    21419751.489   -40061984.630 9  44732186.159 8
  22787031.571    22787035.316   -76908930.629 9  93268955.806 8
  21531281.141    21531287.404   -11842633.239 9 -10524872.150 8
 90  2 28  8 18 44.0800000  0  4G 3G12G19G13
  22010237.515    22010243.979   -65072894.460 8  69339597.736 8
  21426196.353    21426203.211   -40028082.033 8  44758603.730 8
  22785312.368    22785319.330   -76917957.508 7  93261921.860 9
  21534654.391    21534661.140   -11824905.095 8 -10511058.021 7
 90  2 28  8 18 59.0800000  0  4G 3G12G19G13
  22007444.890    22007449.909   -65087571.433 8  69328161.149 8
  21432671.087    21432677.841   -39994056.595 9  44785117.047 9
  22783620.610    22783627.035   -76926849.653 7  93254992.919 8
  21538030.930    21538036.778   -11807159.444 9 -10497230.246 7
 90  2 28  8 19 14.0800000  0  4G 3G12G19G13
  22004658.626    22004664.796   -65102214.183 8  69316751.221 8
  21439169.675    21439176.543   -39959908.506 8  44811725.921 9
  22781954.283    22781960.976   -76935606.703 8  93248169.244 9
  21541412.393    21541416.882   -11789396.279 8 -10483388.811 8
 90  2 28  8 19 29.0800000  0  4G 3G12G19G13
  22001877.985    22001884.463   -65116822.713 8  69305367.951 8
  21445690.230    21445698.408   -39925638.256 8  44838429.989 9
  22780312.722    22780319.719   -76944228.800 8  93241450.712 9
  21544795.286    21544800.204   -11771615.785 9 -10469533.904 8
 90  2 28  8 19 44.0800000  0  4G 3G12G19G13
  21999104.677    21999110.812   -65131397.375 9  69294011.067 8
  21452235.563    21452242.202   -39891246.070 9  44865229.063 8
  22778698.939    22778704.577   -76952716.161 8  93234837.193 8
  21548182.873    21548187.605   -11753818.183 9 -10455665.628 8
 90  2 28  8 19 59.0800000  0  4G 3G12G19G13
  21996337.830    21996343.765   -65145937.836 9  69282680.839 9
  21458801.114    21458810.751   -39856732.161 8  44892123.001 9
  22777108.555    22777115.058   -76961068.339 8  93228329.002 9
  21551572.778    21551577.438   -11736003.414 8 -10441784.019 8
 90  2 28  8 20 14.0800000  0  4G 3G12G19G13
  21993577.458    21993583.142   -65160444.391 8  69271377.033 8
  21465394.425    21465401.089   -39822096.885 8  44919111.492 9
  22775545.712    22775551.274   -76969285.219 8  93221926.240 8
  21554964.514    21554971.135   -11718171.355 9 -10427888.922 8
 90  2 28  8 20 29.0800000  0  4G 3G12G19G13
  21990824.041    21990829.332   -65174917.381 8  69260099.375 7
  21472008.609    21472013.904   -39787340.818 8  44946194.116 8
  22774007.967    22774013.691   -76977367.178 9  93215628.607 9
  21558362.203    21558368.624   -11700322.318 8 -10413980.572 8
 90  2 28  8 20 44.0800000  0  4G 3G12G19G13
  21988076.640    21988081.251   -65189356.638 8  69248848.004 8
  21478645.045    21478650.693   -39752464.280 9  44973370.607 8
  22772496.054    22772501.442   -76985314.204 8  93209436.102 9
  21561762.468    21561768.102   -11682456.459 9 -10400059.143 8
 90  2 28  8 20 59.0800000  0  4G 3G12G19G13
  21985335.793    21985341.169   -65203762.230 9  69237622.883 8
  21485302.679    21485311.229   -39717467.616 8  45000640.698 9
  22771008.982    22771015.175   -76993126.007 9  93203348.990 8
  21565164.250    21565170.971   -11664573.805 9 -10386124.583 8
 90  2 28  8 21 14.0800000  0  4G 3G12G19G13
  21982599.897    21982604.686   -65218134.447 9  69226423.752 9
  21491986.928    21491994.251   -39682351.131 8  45028004.160 8
  22769547.517    22769554.092   -77000802.590 8  93197367.227 8
  21568569.694    21568576.329   -11646674.431 8 -10372177.040 9
 90  2 28  8 21 29.0800000  0  4G 3G12G19G13
  21979869.939    21979876.675   -65232473.326 8  69215250.579 7
  21498691.869    21498698.565   -39647115.134 8  45055460.761 8
  22768111.274    22768119.048   -77008344.150 8  93191490.679 8
  21571979.918    21571985.065   -11628758.365 8 -10358216.477 8
 90  2 28  8 21 44.0800000  0  4G 3G12G19G13
  21977148.116    21977154.895   -65246778.711 7  69204103.524 8
  21505418.814    21505426.064   -39611760.012 8  45083010.181 8
  22766703.390    22766709.499   -77015750.650 9  93185719.375 8
  21575392.375    21575398.523   -11610825.807 9 -10344243.064 7
 90  2 28  8 21 59.0800000  0  4G 3G12G19G13
  21974433.541    21974437.329   -65261050.843 8  69192982.390 9
  21512168.638    21512177.431   -39576286.066 9  45110652.202 8
  22765321.526    22765325.225   -77023022.038 8  93180053.343 9
  21578808.608    21578813.927   -11592876.613 8 -10330256.670 8
 90  2 28  8 22 14.0800000  0  4G 3G12G19G13
  21971723.051    21971729.536   -65275289.707 8  69181887.185 9
  21518943.329    21518949.396   -39540693.659 9  45138386.515 8
  22763960.897    22763967.004   -77030158.379 8  93174492.550 8
  21582226.674    21582233.123   -11574910.887 8 -10316257.402 8
 90  2 28  8 22 29.0800000  0  4G 3G12G19G13
  21969019.601    21969026.315   -65289495.758 8  69170817.531 7
  21525738.972    21525743.966   -39504983.247 9  45166212.790 8
  22762629.806    22762635.115   -77037159.615 8  93169037.025 8
  21585647.858    21585655.624   -11556928.946 8 -10302245.527 8
 90  2 28  8 22 44.0800000  0  4G 3G12G19G13
  21966322.919    21966329.519   -65303668.694 9  69159773.664 7
  21532557.488    21532563.169   -39469154.994 9  45194130.872 7
  22761322.583    22761328.965   -77044025.459 8  93163687.010 8
  21589073.937    21589078.253   -11538930.615 8 -10288220.837 8
 90  2 28  8 22 59.0800000  0  4G 3G12G19G13
  21963632.083    21963638.511   -65317808.759 9  69148755.449 8
  21539397.719    21539402.448   -39433209.397 9  45222140.422 7
  22760042.429    22760048.947   -77050756.171 9  93158442.294 9
  21592501.103    21592506.808   -11520916.151 9 -10274183.618 8
 90  2 28  8 23 14.0800000  0  4G 3G12G19G13
  21960946.891    21960953.434   -65331915.890 9  69137762.878 9
  21546259.091    21546265.877   -39397146.728 8  45250241.167 8
  22758786.765    22758793.798   -77057351.715 8  93153302.910 8
  21595932.962    21595939.740   -11502885.582 9 -10260133.833 8
 90  2 28  8 23 29.0800000  0  4G 3G12G19G13
  21958269.727    21958275.411   -65345990.312 8  69126795.794 9
  21553144.320    21553151.879   -39360967.276 9  45278432.924 7
  22757558.278    22757564.145   -77063812.214 8  93148268.767 9
  21599366.911    21599372.573   -11484838.867 8 -10246071.443 7
 90  2 28  8 23 44.0800000  0  4G 3G12G19G13
  21955597.850    21955602.998   -65360032.279 7  69115854.007 8
  21560052.147    21560056.776   -39324671.562 9  45306715.281 8
  22756353.398    22756360.030   -77070137.462 8  93143339.997 8
  21602804.837    21602809.584   -11466776.065 9 -10231996.544 8
